[[{"header":{"parameterUnit":"m.s-1","parameterCategory":1,"la1":31.0,"la2":29.5877,"lo1":-88.7671,"lo2":-86.6584,"dy":0.0162,"dx":0.0185,"nx":115,"ny":88,"refTime":"2023-07-16T12:00:00:Z","depth":0,"parameterNumber":2,"parameterNumberName":"U-component_of_WINDS"},"data":[0.0,0.0,0.0,0.0,0.0,0.0,0.0,0.0,0.0,0.0,0.0,0.0,0.0,0.0,0.0,0.0,0.0,0.0,0.0,0.0,0.0,0.0,0.0,0.0,0.0,0.0,0.0,0.0,0.0,0.0,0.0,0.0,0.0,0.0,0.0,0.0,0.0,0.0,0.0,0.0,0.0,0.0,0.0,0.0,0.0,0.0,0.0,0.0,0.0,0.0,0.0,0.0,0.0,0.0,0.0,0.0,0.0,0.0,0.0,0.0,0.0,0.0,0.0,0.0,0.0,0.0,0.0,0.0,0.0,0.0,0.0,0.0,0.0,0.0,0.0,0.0,0.0,0.0,0.0,0.0,0.0,0.0,0.0,0.0,0.0,0.0,0.0,0.0,0.0,0.0,0.0,0.0,0.0,0.0,0.0,0.0,0.0,0.0,0.0,0.0,0.0,0.0,0.0,0.0,0.0,0.0,0.0,0.0,0.0,0.0,0.0,0.0,0.0,0.0,0.0,0.0,0.0,0.0,0.0,0.0,0.0,0.0,0.0,0.0,0.0,0.0,0.0,0.0,0.0,0.0,0.0,0.0,0.0,0.0,0.0,0.0,0.0,0.0,0.0,0.0,0.0,0.0,0.0,0.0,0.0,0.0,0.0,0.0,0.0,0.0,0.0,0.0,0.0,0.0,0.0,0.0,0.0,0.0,0.0,0.0,0.0,0.0,0.0,0.0,0.0,0.0,0.0,0.0,0.0,0.0,0.0,0.0,0.0,0.0,0.0,0.0,0.0,0.0,0.0,0.0,0.0,0.0,0.0,0.0,0.0,0.0,0.0,0.0,0.0,0.0,0.0,0.0,0.0,0.0,0.0,0.0,0.0,0.0,0.0,0.0,0.0,0.0,0.0,0.0,0.0,0.0,0.0,0.0,0.0,0.0,0.0,0.0,0.0,0.0,0.0,0.0,0.0,0.0,0.0,0.0,0.0,0.0,0.0,0.0,0.0,0.0,0.0,0.0,0.0,0.0,0.0,0.0,0.0,0.0,0.0,0.0,0.0,0.0,0.0,0.0,0.0,0.0,0.0,0.0,0.0,0.0,0.0,0.0,0.0,0.0,0.0,0.0,0.0,0.0,0.0,0.0,0.0,0.0,0.0,0.0,0.0,0.0,0.0,0.0,0.0,0.0,0.0,0.0,0.0,0.0,0.0,0.0,0.0,0.0,0.0,0.0,0.0,0.0,0.0,0.0,0.0,0.0,0.0,0.0,0.0,0.0,0.0,0.0,0.0,0.0,0.0,0.0,0.0,0.0,0.0,0.0,0.0,0.0,0.0,0.0,0.0,0.0,0.0,0.0,0.0,0.0,0.0,0.0,0.0,0.0,0.0,0.0,0.0,0.0,0.0,0.0,0.0,0.0,0.0,0.0,0.0,0.0,0.0,0.0,0.0,0.0,0.0,0.0,0.0,0.0,0.0,0.0,0.0,0.0,0.0,0.0,0.0,0.0,0.0,0.0,0.0,0.0,0.0,0.0,0.0,0.0,0.0,0.0,0.0,0.0,0.0,0.0,0.0,0.0,0.0,0.0,0.0,0.0,0.0,0.0,0.0,0.0,0.0,0.0,0.0,0.0,0.0,0.0,0.0,0.0,0.0,0.0,0.0,0.0,0.0,0.0,0.0,0.0,0.0,0.0,0.0,0.0,0.0,0.0,0.0,0.0,0.0,0.0,0.0,0.0,0.0,0.0,0.0,0.0,0.0,0.0,0.0,0.0,0.0,0.0,0.0,0.0,0.0,0.0,0.0,0.0,0.0,0.0,0.0,0.0,0.0,0.0,0.0,0.0,0.0,0.0,0.0,0.0,0.0,0.0,0.0,0.0,0.0,0.0,0.0,0.0,0.0,0.0,0.0,0.0,0.0,0.0,0.0,0.0,0.0,0.0,0.0,0.0,0.0,0.0,0.0,0.0,0.0,0.0,0.0,0.0,0.0,0.0,0.0,0.0,0.0,0.0,0.0,0.0,0.0,0.0,0.0,0.0,0.0,0.0,0.0,0.0,0.0,0.0,0.0,0.0,0.0,0.0,0.0,0.0,0.0,0.0,0.0,0.0,0.0,0.0,0.0,0.0,0.0,0.0,0.0,0.0,0.0,0.0,0.0,0.0,0.0,0.0,0.0,0.0,0.0,0.0,0.0,0.0,0.0,0.0,0.0,0.0,0.0,0.0,0.0,0.0,0.0,0.0,0.0,0.0,0.0,0.0,0.0,0.0,0.0,0.0,0.0,0.0,0.0,0.0,0.0,0.0,0.0,0.0,0.0,0.0,0.0,0.0,0.0,0.0,0.0,0.0,0.0,0.0,0.0,0.0,0.0,0.0,0.0,0.0,0.0,0.0,0.0,0.0,0.0,0.0,0.0,0.0,0.0,0.0,0.0,0.0,0.0,0.0,0.0,0.0,0.0,0.0,0.0,0.0,0.0,0.0,0.0,0.0,0.0,0.0,0.0,0.0,0.0,0.0,0.0,0.0,0.0,0.0,0.0,0.0,0.0,0.0,0.0,0.0,0.0,0.0,0.0,0.0,0.0,0.0,0.0,0.0,0.0,0.0,0.0,0.0,0.0,0.0,0.0,0.0,0.0,0.0,0.0,0.0,0.0,0.0,0.0,0.0,0.0,0.0,0.0,0.0,0.0,0.0,0.0,0.0,0.0,0.0,0.0,0.0,0.0,0.0,0.0,0.0,0.0,0.0,0.0,0.0,0.0,0.0,0.0,0.0,0.0,0.0,0.0,0.0,0.0,0.0,0.0,0.0,0.0,0.0,0.0,0.0,0.0,0.0,0.0,0.0,0.0,0.0,0.0,0.0,0.0,0.0,0.0,0.0,0.0,0.0,0.0,0.0,0.0,0.0,0.0,0.0,0.0,0.0,0.0,0.0,0.0,0.0,0.0,0.0,0.0,0.0,0.0,0.0,0.0,0.0,0.0,0.0,0.0,0.0,0.0,0.0,0.0,0.0,0.0,0.0,0.0,0.0,0.0,0.0,0.0,0.0,0.0,0.0,0.0,0.0,0.0,0.0,0.0,0.0,0.0,0.0,0.0,0.0,0.0,0.0,0.0,0.0,0.0,0.0,0.0,0.0,0.0,0.0,0.0,0.0,0.0,0.0,0.0,0.0,0.0,0.0,0.0,0.0,0.0,0.0,0.0,0.0,0.0,0.0,0.0,0.0,0.0,0.0,0.0,0.0,0.0,0.0,0.0,0.0,0.0,0.0,0.0,0.0,0.0,0.0,0.0,0.0,0.0,0.0,0.0,0.0,0.0,0.0,0.0,0.0,0.0,0.0,0.0,0.0,0.0,0.0,0.0,0.0,0.0,0.0,0.0,0.0,0.0,0.0,0.0,0.0,0.0,0.0,0.0,0.0,0.0,0.0,0.0,0.0,0.0,0.0,0.0,0.0,0.0,0.0,0.0,0.0,0.0,0.0,0.0,0.0,0.0,0.0,0.0,0.0,0.0,0.0,0.0,0.0,0.0,0.0,0.0,0.0,0.0,0.0,0.0,0.0,0.0,0.0,0.0,0.0,0.0,0.0,0.0,0.0,0.0,0.0,0.0,0.0,0.0,0.0,0.0,0.0,0.0,0.0,0.0,0.0,0.0,0.0,0.0,0.0,0.0,0.0,0.0,0.0,0.0,0.0,0.0,0.0,0.0,0.0,0.0,0.0,0.0,0.0,0.0,0.0,0.0,0.0,0.0,0.0,0.0,0.0,0.0,0.0,0.0,0.0,0.0,0.0,0.0,0.0,0.0,0.0,0.0,0.0,0.0,0.0,0.0,0.0,0.0,0.0,0.0,0.0,0.0,0.0,0.0,0.0,0.0,0.0,0.0,0.0,0.0,0.0,0.0,0.0,0.0,0.0,0.0,0.0,0.0,0.0,0.0,0.0,0.0,0.0,0.0,0.0,0.0,0.0,0.0,0.0,0.0,0.0,0.0,0.0,0.0,0.0,0.0,0.0,0.0,0.0,0.0,0.0,0.0,0.0,0.0,0.0,0.0,0.0,0.0,0.0,0.0,0.0,0.0,0.0,0.0,0.0,0.0,0.0,0.0,0.0,0.0,0.0,0.0,0.0,0.0,0.0,0.0,0.0,0.0,0.0,0.0,0.0,0.0,0.0,0.0,0.0,0.0,0.0,0.0,0.0,0.0,0.0,0.0,0.0,0.0,0.0,0.0,0.0,0.0,0.0,0.0,0.0,0.0,0.0,0.0,0.0,0.0,0.0,0.0,0.0,-0.4293,0.0,0.0,0.0,0.0,0.0,0.0,0.0,0.0,0.0,0.0,0.0,0.0,0.0,0.0,0.0,0.0,0.0,0.0,0.0,0.0,0.0,0.0,0.0,0.0,0.0,0.0,0.0,0.0,0.0,0.0,0.0,0.0,0.0,0.0,0.0,0.0,0.0,0.0,0.0,0.0,0.0,0.0,0.0,0.0,0.0,0.0,0.0,0.0,0.0,0.0,0.0,0.0,0.0,0.0,0.0,0.0,0.0,0.0,0.0,0.0,0.0,0.0,0.0,0.0,0.0,0.0,0.0,0.0,0.0,0.0,0.0,0.0,0.0,0.0,0.0,0.0,0.0,0.0,0.0,0.0,0.0,0.0,0.0,0.0,0.0,0.0,0.0,0.0,0.0,0.0,0.0,0.0,0.0,0.0,0.0,0.0,0.0,0.0,0.0,0.0,0.0,0.0,0.0,0.0,0.0,0.0,0.0,0.0,0.0,0.0,-0.3696,-0.3933,-0.4078,-0.4174,-0.4244,0.0,0.0,0.0,0.0,0.0,0.0,0.0,0.0,0.0,0.0,0.0,0.0,0.0,0.0,0.0,0.0,0.0,0.0,0.0,0.0,0.0,0.0,0.0,0.0,0.0,0.0,0.0,0.0,0.0,0.0,0.0,0.0,0.0,0.0,0.0,0.0,0.0,0.0,0.0,0.0,0.0,0.0,0.0,0.0,0.0,0.0,0.0,0.0,0.0,0.0,0.0,0.0,0.0,0.0,0.0,0.0,0.0,0.0,0.0,0.0,0.0,0.0,0.0,0.0,0.0,0.0,0.0,0.0,0.0,0.0,0.0,0.0,0.0,0.0,0.0,0.0,0.0,0.0,0.0,0.0,0.0,0.0,0.0,0.0,0.0,0.0,0.0,0.0,0.0,0.0,0.0,0.0,0.0,0.0,0.0,0.0,0.0,0.0,0.0,0.0,0.0,0.0,0.0,0.0,0.0,0.0,0.0,0.0,0.0,0.0,0.0,0.0,-0.3842,-0.4016,-0.4128,0.0,0.0,0.0,0.0,0.0,0.0,0.0,0.0,0.0,0.0,0.0,0.0,0.0,0.0,0.0,0.0,0.0,0.0,0.0,0.0,0.0,0.0,0.0,0.0,0.0,0.0,0.0,0.0,0.0,0.0,0.0,0.0,0.0,0.0,0.0,0.0,0.0,0.0,0.0,0.0,0.0,0.0,0.0,0.0,0.0,0.0,0.0,0.0,0.0,0.0,0.0,0.0,0.0,0.0,0.0,0.0,0.0,0.0,0.0,0.0,0.0,0.0,0.0,0.0,0.0,0.0,0.0,0.0,0.0,0.0,0.0,0.0,0.0,0.0,0.0,0.0,0.0,0.0,0.0,0.0,0.0,0.0,0.0,0.0,0.0,0.0,0.0,0.0,0.0,0.0,0.0,0.0,0.0,0.0,0.0,0.0,0.0,0.0,0.0,0.0,0.0,0.0,0.0,0.0,0.0,0.0,0.0,0.0,0.0,0.0,-0.3126,-0.3338,-0.3478,0.0,-0.389,0.0,0.0,0.0,0.0,0.0,0.0,0.0,0.0,0.0,0.0,0.0,0.0,0.0,0.0,0.0,0.0,0.0,0.0,0.0,0.0,0.0,0.0,0.0,0.0,0.0,0.0,0.0,0.0,0.0,0.0,0.0,0.0,0.0,0.0,0.0,0.0,0.0,0.0,0.0,0.0,0.0,0.0,0.0,0.0,0.0,0.0,0.0,0.0,0.0,0.0,0.0,0.0,0.0,0.0,0.0,0.0,0.0,0.0,0.0,0.0,0.0,0.0,0.0,0.0,0.0,0.0,0.0,0.0,0.0,0.0,0.0,0.0,0.0,0.0,0.0,0.0,0.0,0.0,0.0,0.0,0.0,0.0,0.0,0.0,0.0,0.0,0.0,0.0,0.0,0.0,0.0,0.0,0.0,0.0,0.0,0.0,0.0,0.0,0.0,0.0,0.0,0.0,0.0,0.0,0.0,0.0,0.0,0.0,0.0,0.0,-0.2869,-0.295,-0.3223,-0.3457,0.0,0.0,0.0,0.0,0.0,0.0,0.0,0.0,0.0,0.0,0.0,0.0,0.0,0.0,0.0,0.0,0.0,0.0,0.0,0.0,0.0,0.0,0.0,0.0,0.0,0.0,0.0,0.0,0.0,0.0,0.0,0.0,0.0,0.0,0.0,0.0,0.0,0.0,0.0,0.0,0.0,0.0,0.0,0.0,0.0,0.0,0.0,0.0,0.0,0.0,0.0,0.0,0.0,0.0,0.0,0.0,0.0,0.0,0.0,0.0,0.0,0.0,0.0,0.0,0.0,0.0,0.0,0.0,0.0,0.0,0.0,0.0,0.0,0.0,0.0,0.0,0.0,0.0,0.0,0.0,0.0,0.0,0.0,0.0,0.0,0.0,0.0,0.0,0.0,0.0,0.0,0.0,0.0,0.0,0.0,0.0,0.0,0.0,0.0,0.0,0.0,0.0,0.0,0.0,0.0,0.0,0.0,0.0,0.0,0.0,-0.2394,-0.2572,-0.2676,-0.3015,-0.3257,-0.3342,0.0,0.0,0.0,0.0,0.0,0.0,0.0,0.0,0.0,0.0,0.0,0.0,0.0,0.0,0.0,0.0,0.0,0.0,0.0,0.0,0.0,0.0,0.0,0.0,0.0,0.0,0.0,0.0,0.0,0.0,0.0,0.0,0.0,0.0,0.0,0.0,0.0,0.0,0.0,0.0,0.0,0.0,0.0,0.0,0.0,0.0,0.0,0.0,0.0,0.0,0.0,0.0,0.0,0.0,0.0,0.0,0.0,0.0,0.0,0.0,0.0,0.0,0.0,0.0,0.0,0.0,0.0,0.0,0.0,0.0,0.0,0.0,0.0,0.0,0.0,0.0,0.0,0.0,0.0,0.0,0.0,0.0,0.0,0.0,0.0,0.0,0.0,0.0,0.0,0.0,0.0,0.0,0.0,0.0,0.0,0.0,0.0,0.0,0.0,0.0,0.0,0.0,0.0,0.0,0.0,0.0,0.0,0.0,-0.1916,-0.2004,-0.2224,-0.2606,-0.2859,-0.3021,0.0,0.0,0.0,0.0,0.0,0.0,0.0,0.0,0.0,0.0,0.0,0.0,0.0,0.0,0.0,0.0,0.0,0.0,0.0,0.0,0.0,0.0,0.0,0.0,0.0,0.0,0.0,0.0,0.0,0.0,0.0,0.0,0.0,0.0,0.0,0.0,0.0,0.0,0.0,0.0,0.0,0.0,0.0,0.0,0.0,0.0,0.0,0.0,0.0,0.0,0.0,0.0,0.0,0.0,0.0,0.0,0.0,0.0,0.0,0.0,0.0,0.0,0.0,0.0,0.0,0.0,0.0,0.0,0.0,0.0,0.0,0.0,0.0,0.0,0.0,0.0,0.0,0.0,0.0,0.0,0.0,0.0,0.0,0.0,0.0,0.0,0.0,0.0,0.0,0.0,0.0,0.0,0.0,0.0,0.0,0.0,0.0,0.0,0.0,0.0,0.0,0.0,0.0,0.0,0.0,0.0,0.0,0.0,0.0,-0.1702,-0.1898,-0.2114,-0.2346,-0.2555,-0.2739,0.0,0.0,0.0,0.0,0.0,0.0,0.0,0.0,0.0,0.0,0.0,0.0,0.0,0.0,0.0,0.0,0.0,0.0,0.0,0.0,0.0,0.0,0.0,0.0,0.0,0.0,0.0,0.0,0.0,0.0,0.0,0.0,0.0,0.0,0.0,0.0,0.0,0.0,0.0,0.0,0.0,0.0,0.0,0.0,0.0,0.0,0.0,0.0,0.0,0.0,0.0,0.0,0.0,0.0,0.0,0.0,0.0,0.0,0.0,0.0,0.0,0.0,0.0,0.0,0.0,0.0,0.0,0.0,0.0,0.0,0.0,0.0,0.0,0.0,0.0,0.0,0.0,0.0,0.0,0.0,0.0,0.0,0.0,0.0,0.0,0.0,0.0,0.0,0.0,0.0,0.0,0.0,0.0,0.0,0.0,0.0,0.0,0.0,0.0,0.0,0.0,0.0,0.0,0.0,0.0,0.0,0.0,0.0,0.0,-0.1502,0.0,-0.1916,-0.211,-0.2272,-0.2451,0.0,0.0,0.0,0.0,0.0,0.0,0.0,0.0,0.0,0.0,0.0,0.0,0.0,0.0,0.0,0.0,0.0,0.0,0.0,0.0,0.0,0.0,0.0,0.0,0.0,0.0,0.0,0.0,0.0,0.0,0.0,0.0,0.0,0.0,0.0,0.0,0.0,0.0,0.0,0.0,0.0,0.0,0.0,0.0,0.0,0.0,0.0,0.0,0.0,0.0,0.0,0.0,0.0,0.0,0.0,0.0,0.0,0.0,0.0,0.0,0.0,0.0,0.0,0.0,0.0,0.0,0.0,0.0,0.0,0.0,0.0,0.0,0.0,0.0,0.0,0.0,0.0,0.0,0.0,0.0,0.0,0.0,0.0,0.0,0.0,0.0,0.0,0.0,0.0,0.0,0.0,0.0,0.0,0.0,0.0,0.0,0.0,0.0,0.0,0.0,0.0,0.0,0.0,0.0,0.0,0.0,0.0,0.0,-0.1232,-0.1301,-0.1438,-0.167,-0.1879,-0.2053,-0.2223,0.0,0.0,0.0,0.0,0.0,0.0,0.0,0.0,0.0,0.0,0.0,0.0,0.0,0.0,0.0,0.0,0.0,0.0,0.0,0.0,0.0,0.0,0.0,0.0,0.0,0.0,0.0,0.0,0.0,0.0,0.0,0.0,0.0,0.0,0.0,0.0,0.0,0.0,0.0,0.0,0.0,0.0,0.0,0.0,0.0,0.0,0.0,0.0,0.0,0.0,0.0,0.0,0.0,0.0,0.0,0.0,0.0,0.0,0.0,0.0,0.0,0.0,0.0,0.0,0.0,0.0,0.0,0.0,0.0,0.0,0.0,0.0,0.0,0.0,0.0,0.0,0.0,0.0,0.0,0.0,0.0,0.0,0.0,0.0,0.0,0.0,0.0,0.0,0.0,0.0,0.0,0.0,0.0,0.0,0.0,0.0,0.0,0.0,0.0,0.0,0.0,0.0,0.0,0.0,0.0,0.0,0.0,0.0,0.0,-0.1313,-0.1603,-0.1892,-0.2089,-0.2063,-0.2108,0.0,0.0,0.0,0.0,0.0,0.0,0.0,0.0,0.0,0.0,0.0,0.0,0.0,0.0,0.0,0.0,0.0,0.0,0.0,0.0,0.0,0.0,0.0,0.0,0.0,0.0,0.0,0.0,0.0,0.0,0.0,0.0,0.0,0.0,0.0,0.0,0.0,0.0,0.0,0.0,0.0,0.0,0.0,0.0,0.0,0.0,0.0,0.0,0.0,0.0,0.0,0.0,0.0,0.0,0.0,0.0,0.0,0.0,0.0,0.0,0.0,0.0,0.0,0.0,0.0,0.0,0.0,0.0,0.0,0.0,0.0,0.0,0.0,0.0,0.0,0.0,0.0,0.0,0.0,0.0,0.0,0.0,0.0,0.0,0.0,0.0,0.0,0.0,0.0,0.0,0.0,0.0,0.0,0.0,0.0,0.0,0.0,0.0,0.0,0.0,0.0,0.0,0.0,0.0,0.0,0.0,0.0,0.0,0.0,-0.1323,-0.1737,-0.2082,-0.2318,-0.2191,-0.2163,-0.2335,0.0,0.0,0.0,0.0,0.0,0.0,0.0,0.0,0.0,0.0,0.0,0.0,0.0,0.0,0.0,0.0,0.0,0.0,0.0,0.0,0.0,0.0,0.0,0.0,0.0,0.0,0.0,0.0,0.0,0.0,0.0,0.0,0.0,0.0,0.0,0.0,0.0,0.0,0.0,0.0,0.0,0.0,0.0,0.0,0.0,0.0,0.0,0.0,0.0,0.0,0.0,0.0,0.0,0.0,0.0,0.0,0.0,0.0,0.0,0.0,0.0,0.0,0.0,0.0,0.0,0.0,0.0,0.0,0.0,0.0,0.0,0.0,0.0,0.0,0.0,0.0,0.0,0.0,0.0,0.0,0.0,0.0,0.0,0.0,0.0,0.0,0.0,0.0,0.0,0.0,0.0,0.0,0.0,0.0,0.0,0.0,0.0,0.0,0.0,0.0,0.0,0.0,0.0,0.0,0.0,0.0,0.0,0.0,-0.1308,-0.1871,-0.23,-0.2555,-0.2441,-0.2471,0.0,0.0,0.0,0.0,0.0,0.0,0.0,0.0,0.0,0.0,0.0,0.0,0.0,0.0,0.0,0.0,0.0,0.0,0.0,0.0,0.0,0.0,0.0,0.0,0.0,0.0,0.0,0.0,0.0,0.0,0.0,0.0,0.0,0.0,0.0,0.0,0.0,0.0,0.0,0.0,0.0,0.0,0.0,0.0,0.0,0.0,0.0,0.0,0.0,0.0,0.0,0.0,0.0,0.0,0.0,0.0,0.0,0.0,0.0,0.0,0.0,0.0,0.0,0.0,0.0,0.0,0.0,0.0,0.0,0.0,0.0,0.0,0.0,0.0,0.0,0.0,0.0,0.0,0.0,0.0,0.0,0.0,0.0,0.0,0.0,0.0,0.0,0.0,0.0,0.0,0.0,0.0,0.0,0.0,0.0,0.0,0.0,0.0,0.0,0.0,0.0,0.0,0.0,0.0,0.0,0.0,0.0,0.0,0.0,-0.1415,-0.254,-0.32,-0.3305,-0.3093,-0.2996,0.0,0.0,0.0,0.0,0.0,0.0,0.0,0.0,0.0,0.0,0.0,0.0,0.0,0.0,0.0,0.0,0.0,0.0,0.0,0.0,0.0,0.0,0.0,0.0,0.0,0.0,0.0,0.0,0.0,0.0,0.0,0.0,0.0,0.0,0.0,0.0,0.0,0.0,0.0,0.0,0.0,0.0,0.0,0.0,0.0,0.0,0.0,0.0,0.0,0.0,0.0,0.0,0.0,0.0,0.0,0.0,0.0,0.0,0.0,0.0,0.0,0.0,0.0,0.0,0.0,0.0,0.0,0.0,0.0,0.0,0.0,0.0,0.0,0.0,0.0,0.0,0.0,0.0,0.0,0.0,0.0,0.0,0.0,0.0,0.0,0.0,0.0,0.0,0.0,0.0,0.0,0.0,0.0,0.0,0.0,0.0,0.0,0.0,0.0,0.0,0.0,0.0,0.0,0.0,0.0,0.0,0.0,0.0,-0.1513,-0.169,-0.289,-0.3695,-0.3971,-0.379,-0.3475,0.0,0.0,0.0,0.0,0.0,0.0,0.0,0.0,0.0,0.0,0.0,0.0,0.0,0.0,0.0,0.0,0.0,0.0,0.0,0.0,0.0,0.0,0.0,0.0,0.0,0.0,0.0,0.0,0.0,0.0,0.0,0.0,0.0,0.0,0.0,0.0,0.0,0.0,0.0,0.0,0.0,0.0,0.0,0.0,0.0,0.0,0.0,0.0,0.0,0.0,0.0,0.0,0.0,0.0,0.0,0.0,0.0,0.0,0.0,0.0,0.0,0.0,0.0,0.0,0.0,0.0,0.0,0.0,0.0,0.0,0.0,0.0,0.0,0.0,0.0,0.0,0.0,0.0,0.0,0.0,0.0,0.0,0.0,0.0,0.0,0.0,0.0,0.0,0.0,0.0,0.0,0.0,0.0,0.0,0.0,0.0,0.0,0.0,0.0,0.0,0.0,0.0,0.0,0.0,0.0,0.0,0.0,0.0,-0.1687,-0.2015,-0.3087,-0.3918,-0.4467,-0.4365,-0.3882,0.0,0.0,0.0,0.0,0.0,0.0,0.0,0.0,0.0,0.0,0.0,0.0,0.0,0.0,0.0,0.0,0.0,0.0,0.0,0.0,0.0,0.0,0.0,0.0,0.0,0.0,0.0,0.0,0.0,0.0,0.0,0.0,0.0,0.0,0.0,0.0,0.0,0.0,0.0,0.0,0.0,0.0,0.0,0.0,0.0,0.0,0.0,0.0,0.0,0.0,0.0,0.0,0.0,0.0,0.0,0.0,0.0,0.0,0.0,0.0,0.0,0.0,0.0,0.0,0.0,0.0,0.0,0.0,0.0,0.0,0.0,0.0,0.0,0.0,0.0,0.0,0.0,0.0,0.0,0.0,0.0,0.0,0.0,0.0,0.0,0.0,0.0,0.0,0.0,0.0,0.0,0.0,0.0,0.0,0.0,0.0,0.0,0.0,0.0,0.0,0.0,0.0,0.0,0.0,0.0,0.0,0.0,0.0,-0.1919,-0.2023,-0.3313,-0.4151,-0.4466,-0.4349,-0.4114,0.0,0.0,0.0,0.0,0.0,0.0,0.0,0.0,0.0,0.0,0.0,0.0,0.0,0.0,0.0,0.0,0.0,0.0,0.0,0.0,0.0,0.0,0.0,0.0,0.0,0.0,0.0,0.0,0.0,0.0,0.0,0.0,0.0,0.0,0.0,0.0,0.0,0.0,0.0,0.0,0.0,0.0,0.0,0.0,0.0,0.0,0.0,0.0,0.0348,0.0,0.0,0.0,0.0,0.0,0.0,0.0,0.0,0.0,0.0,0.0,0.0,0.0,0.0,0.0,0.0,0.0,0.0,0.0,0.0,0.0,0.0,0.0,0.0,0.0,0.0,0.0,0.0,0.0,0.0,0.0,0.0,0.0,0.0,0.0,0.0,0.0,0.0,0.0,0.0,0.0,0.0,0.0,0.0,0.0,0.0,0.0,0.0,0.0,0.0,0.0,0.0,0.0,0.0,0.0,0.0,0.0,0.0,0.0,-0.215,-0.2298,-0.3342,-0.4007,-0.4225,-0.4189,-0.3939,0.0,0.0,0.0,0.0,0.0,0.0,0.0,0.0,0.0,0.0,0.0,0.0,0.0,0.0,0.0,0.0,0.0,0.0,0.0,0.0,0.0,0.0,0.0,0.0,0.0,0.0,0.0,0.0,0.0,0.0,0.0,0.0,0.0,0.0,0.0,0.0,0.0,0.0,0.0,0.0,0.0,0.0,0.0,0.0,0.0,0.0,0.0,0.0,0.0,0.0,0.0,0.0,0.0,0.0,0.0,0.0,0.0,0.0,0.0,0.0,0.0,0.0,0.0,0.0,0.0,0.0,0.0,0.0,0.0,0.0,0.0,0.0,0.0,0.0,0.0,0.0,0.0,0.0,0.0,0.0,0.0,0.0,0.0,0.0,0.0,0.0,0.0,0.0,0.0,0.0,0.0,0.0,0.0,0.0,0.0,0.0,0.0,0.0,0.0,0.0,0.0,0.0,0.0,0.0,0.0,0.0,0.0,-0.1904,-0.2284,-0.26,-0.3285,-0.3714,-0.3924,-0.3863,-0.3652,-0.3296,0.0,0.0,0.0,0.0,0.0,0.0,0.0,0.0,0.0,0.0,0.0,0.0,0.0,0.0,0.0,0.0,0.0,0.0,0.0,0.0,0.0,0.0,0.0,0.0,0.0,0.0,0.0,0.0,0.0,0.0,0.0,0.0,0.0,0.0,0.0,0.0,0.0,0.0,0.0426,0.0691,0.0,0.0,0.0,0.0,0.0,0.0,0.0,0.0,0.0454,0.0,0.0,0.0,0.0,0.0,0.0,0.0,0.0,0.0,0.0,0.0,0.0,0.0,0.0,0.0,0.0,0.0,0.0,0.0,0.0,0.0,0.0,0.0,0.0,0.0,0.0,0.0,0.0,0.0,0.0,0.0,0.0,0.0,0.0,0.0,0.0,0.0,0.0,0.0,0.0,0.0,0.0,0.0,0.0,0.0,0.0,0.0,0.0,0.0,0.0,0.0,0.0,0.0,0.0,0.0,0.0,-0.1315,-0.205,-0.2481,-0.2597,-0.3369,-0.3754,-0.367,-0.3525,-0.3507,-0.3565,0.0,0.0,0.0,0.0,0.0,0.0,0.0,0.0,0.0,0.0,0.0,0.0,0.0,0.0,0.0,0.0,0.0,0.0,0.0,0.0,0.0,0.0,0.0,0.0,0.0,0.0,0.0,0.0,0.0,0.0,0.0,0.0,0.0,0.0,0.0,0.0,0.0,0.0,0.0,0.0703,0.0798,0.0,0.0,0.0,0.0,0.0,0.0,0.0,0.0,0.0397,0.0,0.0,0.0,0.0,0.0,0.0,0.0,0.0,0.0,0.0,0.0,0.0,0.0,0.0,0.0,0.0,0.0,0.0,0.0,0.0,0.0,0.0,0.0,0.0,0.0,0.0,0.0,0.0,0.0,0.0,0.0,0.0,0.0,0.0,0.0,0.0,0.0,0.0,0.0,0.0,0.0,0.0,0.0,0.0,0.0,0.0,0.0,0.0,0.0,0.0,0.0,0.0,0.0,0.0,0.0,-0.1554,-0.2236,-0.2651,-0.276,-0.3353,-0.3622,-0.3401,-0.3346,-0.3318,0.0,0.0,0.0,0.0,0.0,0.0,0.0,0.0,0.0,0.0,0.0,0.0,0.0,0.0,0.0,0.0,0.0,0.0,0.0,0.0,0.0,0.0,0.0,0.0,0.0,0.0,0.0,0.0,0.0,0.0,0.0,0.0,0.0,0.0,0.0,0.0,0.0,0.0,0.0,0.0,0.0859,0.0841,0.0841,0.0,0.0,0.0,0.0,0.0,0.0,0.0575,0.0435,0.0,0.0,0.0,0.0,0.0,0.0,0.0,0.0,0.0,0.0,0.0,0.0,0.0,0.0,0.0,0.0,0.0,0.0,0.0,0.0,0.0,0.0,0.0,0.0,0.0,0.0,0.0,0.0,0.0,0.0,0.0,0.0,0.0,0.0,0.0,0.0,0.0,0.0,0.0,0.0,0.0,0.0,0.0,0.0,0.0,0.0,0.0,0.0,0.0,0.0,0.0,0.0,0.0,0.0,0.0,-0.1845,-0.243,-0.2778,-0.2908,-0.3354,-0.3486,-0.3214,-0.317,-0.3173,0.0,0.0,0.0,0.0,0.0,0.0,0.0,0.0,0.0,0.0,0.0,0.0,0.0,0.0,0.0,0.0,0.0,0.0,0.0,0.0,0.0,0.0,0.0,0.0,0.0,0.0,0.0,0.0,0.0,0.0,0.0,0.0,0.0,0.0,0.0,0.0,0.0,0.0,0.0,0.0,0.0,0.0924,0.0923,0.0889,0.0,0.0,0.0,0.0,0.0813,0.0613,0.0,0.0,0.0,0.0,0.0,0.0,0.0,0.0,0.0,0.0,0.0,0.0,0.0,0.0,0.0,0.0,0.0,0.0,0.0,0.0,0.0,0.0,0.0,0.0,0.0,0.0,0.0,0.0,0.0,0.0,0.0,0.0,0.0,0.0,0.0,0.0,0.0,0.0,0.0,0.0,0.0,0.0,0.0,0.0,0.0,0.0,0.0,0.0,0.0,0.0,0.0,0.0,0.0,0.0,0.0,0.0,-0.2166,-0.2639,-0.287,-0.2912,-0.3357,-0.3486,-0.3214,-0.3078,-0.3084,0.0,0.0,0.0,0.0,0.0,0.0,0.0,0.0,0.0,0.0,0.0,0.0,0.0,0.0,0.0,0.0,0.0,0.0,0.0,0.0,0.0,0.0,0.0,0.0,0.0,0.0,0.0,0.0,0.0,0.0,0.0,0.0,0.0,0.0,0.0,0.0,0.0,0.0,0.0,0.0,0.0,0.0976,0.0904,0.0795,0.0771,0.0,0.0,0.0778,0.089,0.0705,0.0,0.0,0.0,0.0,0.0,0.0,0.0,0.0,0.0,0.0,0.0,0.0,0.0,0.0,0.0,0.0,0.0,0.0,0.0,0.0,0.0,0.0,0.0,0.0,0.0,0.0,0.0,0.0,0.0,0.0,0.0,0.0,0.0,0.0,0.0,0.0,0.0,0.0,0.0,0.0,0.0,0.0,0.0,0.0,0.0,0.0,0.0,0.0,0.0,0.0,0.0,0.0,0.0,0.0,0.0,-0.2395,-0.2392,-0.2742,-0.2974,-0.3013,-0.341,-0.3534,-0.3442,-0.3214,-0.3037,0.0,0.0,0.0,0.0,0.0,0.0,0.0,0.0,0.0,0.0,0.0,0.0,0.0,0.0,0.0,0.0,0.0,0.0,0.0,0.0,0.0,0.0,0.0,0.0,0.0,0.0,0.0,0.0,0.0,0.0,0.0,0.0,0.0,0.0,0.0,0.0,0.0,0.0,0.0,0.0,0.0,0.0,0.0911,0.0823,0.0,0.0,0.0,0.0759,0.0734,0.0,0.0,0.0,0.0,0.0,0.0,0.0,0.0,0.0,0.0,0.0,0.0,0.0,0.0,0.0,0.0,0.0,0.0,0.0,0.0,0.0,0.0,0.0,0.0,0.0,0.0,0.0,0.0,0.0,0.0,0.0,0.0,0.0,0.0,0.0,0.0,0.0,0.0,0.0,0.0,0.0,0.0,0.0,0.0,0.0,0.0,0.0,0.0,0.0,0.0,0.0,0.0,0.0,0.0,0.0,0.0,0.0,-0.2633,-0.2885,-0.3104,-0.3236,-0.351,-0.3677,-0.3684,-0.3394,0.0,0.0,0.0,0.0,0.0,0.0,0.0,0.0,0.0,0.0,0.0,0.0,0.0,0.0,0.0,0.0,0.0,0.0,0.0,0.0,0.0,0.0,0.0,0.0,0.0,0.0,0.0,-0.0756,0.0,0.0,0.0,0.0,0.0,0.0,0.0,0.0,0.0,0.0,0.0,0.0,0.0,0.0,0.1046,0.0945,0.086,0.0723,0.0,0.0,0.0718,0.0641,0.0528,0.0445,0.0,0.0,0.0,0.0,0.0,0.0,0.0,0.0,0.0,0.0,0.0,0.0,0.0,0.0,0.0,0.0,0.0,0.0,0.0,0.0,0.0,0.0,0.0,0.0,0.0,0.0,0.0,0.0,0.0,0.0,0.0,0.0,0.0,0.0,0.0,0.0,0.0,0.0,0.0,0.0,0.0,0.0,0.0,0.0,0.0,0.0,0.0,0.0,0.0,0.0,0.0,0.0,0.0,0.0,0.0,-0.289,-0.3067,-0.3296,-0.3568,-0.3704,-0.3832,-0.3943,-0.3581,-0.3243,0.0,0.0,0.0,0.0,0.0,0.0,0.0,0.0,0.0,0.0,0.0,0.0,0.0,0.0,0.0,0.0,0.0,0.0,0.0,0.0,0.0,0.0,0.0,0.0,0.0,0.0,0.0,0.0,0.0,0.0,0.0,0.0,0.0,0.0,0.0,0.0,0.0,0.0,0.0,0.0,0.0,0.1153,0.108,0.0879,0.0723,0.0,0.0,0.0641,0.0668,0.0673,0.0628,0.0448,0.0,0.0,0.0,0.0,0.0,0.0,0.0,0.0,0.0,0.0,0.0,0.0,0.0,0.0,0.0,0.0,0.0,0.0,0.0,0.0,0.0,0.0,0.0,0.0,0.0,0.0,0.0,0.0,0.0,0.0,0.0,0.0,0.0,0.0,0.0,0.0,0.0,0.0,0.0,0.0,0.0,0.0,0.0,0.0,0.0,0.0,0.0,0.0,0.0,0.0,0.0,0.0,0.0,-0.284,-0.302,-0.3331,-0.3516,-0.3605,-0.3804,-0.4035,-0.4293,-0.3847,-0.3547,0.0,0.0,0.0,0.0,0.0,0.0,0.0,0.0,0.0,0.0,0.0,0.0,0.0,0.0,0.0,0.0,0.0,0.0,0.0,0.0,0.0,0.0,0.0,0.0,0.0,0.0,0.0,0.0,-0.0573,-0.036,0.0067,0.0,0.0,0.0,0.0,0.0,0.0,0.0,0.0,0.0,0.0,0.1199,0.101,0.069,0.0,0.0,0.0487,0.0662,0.0718,0.0584,0.0539,0.0584,0.0695,0.0,0.0,0.0,0.0,0.0,0.0,0.0,0.0,0.0,0.0,0.0,0.0,0.0,0.0,0.0,0.0,0.0,0.0,0.0,0.0,0.0,0.0,0.0,0.0,0.0,0.0,0.0,0.0,0.0,0.0,0.0,0.0,0.0,0.0,0.0,0.0,0.0,0.0,0.0,0.0,0.0,0.0,0.0,0.0,0.0,0.0,0.0,0.0,0.0,0.0,0.0,0.0,-0.295,-0.3133,-0.3406,-0.3621,-0.3714,-0.3963,-0.4191,-0.4455,-0.4134,-0.3878,0.0,0.0,0.0,0.0,0.0,0.0,0.0,0.0,0.0,0.0,0.0,0.0,0.0,0.0,0.0,0.0,0.0,0.0,0.0,0.0,0.0,0.0,0.0,0.0,0.0,0.0,0.0,0.0,-0.0365,-0.0168,0.0269,0.0,0.0,0.0,0.0,0.0,0.0,0.0,0.0,0.0,0.0,0.1101,0.0859,0.0617,0.036,0.0135,0.0405,0.0629,0.0674,0.0584,0.0539,0.0674,0.0,0.0,0.0,0.0,0.0,0.0,0.0,0.0,0.0,0.0,0.0,0.0,0.0,0.0,0.0,0.0,0.0,0.0,0.0,0.0,0.0,0.0,0.0,0.0,0.0,0.0,0.0,0.0,0.0,0.0,-0.2277,0.0,0.0,0.0,0.0,0.0,0.0,0.0,0.0,0.0,0.0,0.0,0.0,0.0,0.0,0.0,0.0,0.0,0.0,0.0,0.0,0.0,0.0,-0.2952,-0.3089,-0.3418,-0.3733,-0.3979,-0.4113,-0.4299,-0.4467,-0.4331,-0.4283,-0.446,0.0,0.0,0.0,0.0,0.0,0.0,0.0,0.0,0.0,0.0,0.0,0.0,0.0,0.0,0.0,0.0,0.0,0.0,0.0,0.0,0.0,0.0,0.0,0.0,0.0,0.0,-0.0036,-0.0,0.0101,0.0,0.0,0.0,0.0,0.0,0.0,0.0,0.0,0.0,0.0,0.1092,0.0857,0.0714,0.0584,0.0495,0.0405,0.0405,0.0495,0.0675,0.072,0.0674,0.0,0.0,0.0,0.0,0.0,0.0,0.0,0.0,0.0,0.0,0.0,0.0,0.0,0.0,0.0,0.0,0.0,0.0,0.0,0.0,0.0,0.0,0.0,0.0,0.0,0.0,0.0,-0.2254,-0.248,0.0,0.0,0.0,0.0,0.0,0.0,0.0,0.0,0.0,0.0,0.0,-0.2853,-0.2954,0.0,0.0,0.0,0.0,0.0,0.0,0.0,0.0,0.0,0.0,0.0,0.0,-0.3053,-0.3278,-0.3664,-0.3997,-0.4314,-0.4365,-0.4446,-0.4501,-0.4443,-0.4457,-0.4474,0.0,0.0,0.0,0.0,0.0,0.0,0.0,0.0,0.0,0.0,0.0,0.0,0.0,0.0,0.0,0.0,0.0,0.0,0.0,0.0,0.0,0.0,0.0,0.0,0.0,0.0038,0.0,0.0,0.0,0.0,0.0,0.0,0.0,0.0,0.0,0.0,0.0,0.1116,0.105,0.0993,0.0885,0.0718,0.069,0.0703,0.0,0.0,0.0,0.0,0.0,0.0,0.0,0.0,0.0,0.0,0.0,0.0,0.0,0.0,0.0956,0.1172,0.1274,0.1324,0.1408,0.0,0.0,0.0,0.0,0.0,0.0,0.0,0.0,0.0,0.0,0.0,0.0,0.0,0.0,-0.2554,0.0,-0.259,0.0,0.0,0.0,0.0,0.0,0.0,0.0,0.0,-0.3559,-0.3646,-0.3456,-0.3522,-0.3577,0.0,-0.337,-0.305,0.0,0.0,0.0,0.0,0.0,0.0,0.0,0.0,-0.312,-0.3403,-0.379,-0.4187,-0.446,-0.4463,-0.4463,-0.4463,-0.4463,-0.4477,-0.4499,-0.4121,-0.3536,0.0,0.0,0.0,0.0,0.0,0.0,0.0,0.0,0.0,0.0,0.0,0.0,0.0,0.0,0.0,0.0,0.0,0.0,0.0,0.0,0.0,0.0,0.0,0.0369,0.0,0.0,0.0,0.0,0.0,0.0,0.0,0.0,0.0,0.1133,0.1091,0.0992,0.0905,0.0895,0.0872,0.0735,0.0,0.0,0.0,0.0,0.0,0.0,0.0,0.0757,0.0776,0.0779,0.0736,0.0803,0.1009,0.1109,0.0958,0.0,0.0,0.0913,0.1079,0.1222,0.1256,0.1309,0.1345,0.1354,0.1528,0.1695,0.0,0.0,0.0,0.0,0.0,0.0,0.0,0.0,-0.29,-0.2948,0.0,-0.3039,0.0,0.0,0.0,0.0,0.0,-0.2272,0.0,0.0,-0.4389,-0.4371,-0.4094,-0.4097,-0.416,-0.4271,-0.3911,-0.3732,-0.3667,-0.3039,0.0,0.0,0.0,0.0,0.0,0.0,-0.3197,-0.3411,-0.3796,-0.4187,-0.4463,-0.4463,-0.4463,-0.4463,-0.4463,-0.4467,-0.4473,-0.4502,-0.4207,-0.3664,-0.2983,0.0,0.0,0.0,0.0,0.0,0.0,0.0,0.0,0.0,0.0,0.0,0.0,0.0,0.0,0.0,0.0,0.0,0.0,0.0,0.0,0.0351,0.0,0.0,0.0,0.0,0.0,0.0,0.0,0.0,0.0,0.0,0.0979,0.0923,0.0901,0.0901,0.0,0.0,0.0,0.0,0.0808,0.0808,0.0808,0.0808,0.0808,0.0807,0.0806,0.0808,0.0,0.0,0.0456,0.0557,0.071,0.0709,0.0711,0.0658,0.0657,0.0906,0.1109,0.1164,0.1164,0.1164,0.111,0.1353,0.1658,-0.1246,0.0,0.0,0.0,0.0,-0.209,-0.296,-0.356,-0.3475,-0.3602,-0.3789,-0.3618,0.0,0.0,0.0,0.0,0.0,0.0,-0.3733,-0.4646,-0.498,-0.4897,-0.4546,-0.4631,-0.4634,-0.4606,-0.4467,-0.4367,-0.4241,-0.3948,-0.342,-0.2668,0.0,0.0,0.0,0.0,-0.3551,-0.3684,-0.4003,-0.4245,-0.4463,-0.4463,-0.4463,-0.4463,-0.4463,-0.4463,-0.4467,-0.4488,-0.4419,-0.426,-0.3545,0.0,0.0,0.0,0.0,0.0,0.0,0.0,0.0,0.0,0.0,0.0,0.0,0.0,0.0,0.0,0.0,0.0,0.0,0.0,0.1221,0.0916,0.0786,0.0,0.0,0.0,0.0,0.0,0.0,0.0,0.0,0.0,0.0865,0.0853,0.0846,0.0,0.0,0.0795,0.0795,0.0769,0.0787,0.0787,0.0839,0.0,0.0892,0.0821,0.0814,0.0783,0.0803,0.0708,0.0218,0.0163,0.0327,0.0762,0.049,0.0218,0.0217,0.0426,0.0636,0.0649,0.0653,0.0702,0.095,0.1259,0.1616,-0.146,-0.0997,-0.0718,-0.0761,-0.1096,-0.2449,-0.3484,-0.4128,-0.4004,-0.4056,-0.4243,-0.4179,-0.3971,-0.3786,-0.3467,0.0,0.0,0.0,-0.468,-0.5255,-0.5474,-0.5413,-0.5133,-0.5202,-0.5175,-0.5051,-0.4991,-0.4932,-0.4745,-0.4489,-0.4098,-0.354,0.0,0.0,-0.3425,-0.3638,-0.3781,-0.3904,-0.4079,-0.4301,-0.4463,-0.4463,-0.4463,-0.4463,-0.4463,-0.4463,-0.4463,-0.4359,-0.432,-0.4291,-0.3747,-0.318,0.0,0.0,0.0,0.0,0.0,0.0,0.0,0.0,0.0,0.0,0.0,-0.0706,0.0,0.0,0.0,0.0,0.2292,0.2519,0.1784,0.1161,0.0,0.0,0.0,0.0,0.0,0.0,0.0,0.0877,0.0895,0.0908,0.0807,0.0701,0.0695,0.0783,0.0806,0.0773,0.0773,0.0,0.0652,0.0652,0.0652,0.0707,0.0707,0.0641,0.069,0.0813,0.0664,0.0448,-0.0,-0.0,-0.0,0.0393,0.0224,-0.0,-0.0,0.011,0.0219,0.0223,0.0224,0.0334,0.0655,0.1197,0.1675,-0.2102,-0.1214,-0.1173,-0.1115,-0.1254,-0.2796,-0.3976,-0.4713,-0.4583,-0.4526,-0.4588,-0.4674,-0.4549,-0.4204,-0.3785,0.0,-0.4587,-0.5196,-0.5609,-0.5821,-0.5821,-0.5818,-0.5796,-0.5796,-0.5732,-0.5603,-0.5464,-0.5315,-0.5105,-0.4895,-0.4689,-0.4546,-0.3942,-0.3772,-0.4054,-0.4045,-0.4039,-0.4039,-0.4154,-0.4314,-0.4463,-0.4463,-0.4463,-0.446,-0.4463,-0.4463,-0.4463,-0.4132,-0.3965,-0.3904,-0.3579,-0.3202,-0.2817,0.0,0.0,0.0,0.0,0.0,0.0,0.0,0.0,0.0,0.0,0.0,0.0,0.0,0.0,0.0,0.2286,0.0,0.182,0.1176,0.0,0.0,0.0,0.0756,0.0706,0.0657,0.0709,0.076,0.0,0.0,0.0814,0.0576,0.0528,0.0715,0.0733,0.0802,0.0802,0.0604,0.0393,0.0392,0.0392,0.0392,0.0391,0.0391,0.0446,0.067,0.0336,-0.0,-0.0,-0.0,-0.0,-0.0,-0.0,-0.0,-0.0,-0.0,-0.0,-0.0,-0.0,0.0112,0.0392,0.1063,0.1677,-0.3264,-0.2695,-0.2632,-0.2161,-0.146,-0.3273,-0.4644,-0.5436,-0.5311,-0.5329,-0.555,-0.5648,-0.5461,-0.5146,-0.4983,-0.4931,-0.513,-0.5775,-0.6082,-0.619,-0.6193,-0.6061,-0.58,-0.58,-0.5786,-0.5749,-0.5715,-0.562,-0.5477,-0.5328,-0.5246,-0.5168,-0.4578,-0.4398,-0.466,-0.4704,-0.4579,-0.4403,-0.4521,-0.4579,-0.4522,-0.4463,-0.4411,-0.4304,-0.4418,-0.4473,-0.4477,-0.3965,-0.3511,-0.306,-0.3101,-0.3004,-0.2664,-0.2097,0.0,0.0,0.0,0.0,0.0,0.0,0.0,0.0,0.0,0.0094,0.0565,0.0,0.1573,0.0,0.1694,0.1692,0.1745,0.1141,0.0,0.0,0.0605,0.0504,0.0454,0.0465,0.0473,0.0473,0.0484,0.0602,0.0821,0.0827,0.0718,0.0493,0.0496,0.061,0.0831,0.0837,0.0617,0.0224,-0.0,0.0112,-0.0,0.0112,-0.0,0.0168,-0.0,-0.0,-0.0,-0.0,-0.0,-0.0,-0.0,-0.0,-0.0,-0.0,-0.0,-0.0,-0.0,0.0056,0.0336,0.0785,0.1234,-0.4394,-0.3896,-0.3959,-0.3752,-0.3681,-0.4941,-0.5731,-0.6213,-0.602,-0.6017,-0.617,-0.6056,-0.601,-0.5855,-0.5608,-0.5532,-0.5799,-0.6105,-0.63,-0.6311,-0.6311,-0.6159,-0.6006,-0.6006,-0.5969,-0.5901,-0.5901,-0.5827,-0.5684,-0.5535,-0.5456,-0.5377,-0.5087,-0.4975,-0.5143,-0.5132,-0.4977,-0.467,-0.4663,-0.4589,-0.4565,-0.4445,-0.4301,-0.4193,-0.4249,-0.4304,-0.4249,-0.3574,-0.2901,-0.2339,-0.2794,-0.2888,-0.2563,-0.2313,-0.1728,0.0,0.0,0.0,0.0,0.0,0.0,0.0,0.0,0.0,0.0,0.0,0.186,0.1759,0.1772,0.1812,0.1812,0.1068,0.0649,0.0849,0.0688,0.053,0.0265,0.0215,0.0218,0.0218,0.0222,0.028,0.0505,0.0729,0.0729,0.028,0.0224,0.028,0.0449,0.0505,0.0393,-0.0,-0.0,-0.0,-0.0,-0.0,-0.0,-0.0,-0.0,-0.0,-0.0,-0.0,-0.0,-0.0,-0.0,-0.0,-0.0,-0.0,-0.0,-0.0,-0.0,-0.0,0.0224,0.0561,0.101,-0.5534,-0.522,-0.5036,-0.5589,-0.6666,-0.6963,-0.6991,-0.7029,-0.6681,-0.6563,-0.6618,-0.6367,-0.6325,-0.6472,-0.6047,-0.597,-0.6337,-0.6334,-0.6271,-0.6315,-0.6295,-0.6288,-0.6285,-0.6268,-0.619,-0.6061,-0.6057,-0.5983,-0.583,-0.5705,-0.5559,-0.5393,-0.539,-0.5378,-0.5417,-0.5424,-0.5221,-0.4945,-0.4674,-0.4601,-0.4718,-0.4422,-0.4247,-0.4244,-0.4058,-0.3934,-0.3878,-0.3079,-0.24,-0.1783,-0.2464,-0.2699,-0.231,-0.2419,-0.2,0.0,-0.0157,0.0,0.0,0.0,0.0,0.0,0.0,0.0,0.0,0.1502,0.1973,0.1968,0.1976,0.1901,0.1786,0.0998,0.0564,0.0786,0.0785,0.0561,0.0056,-0.0,-0.0,-0.0,-0.0,-0.0,-0.0,0.0451,0.0565,-0.0,-0.0,-0.0,-0.0,-0.0,-0.0,-0.0,-0.0,-0.0,-0.0,-0.0,-0.0,-0.0,-0.0,-0.0,-0.0,-0.0,-0.0,-0.0,-0.0,-0.0,-0.0,-0.0,-0.0,-0.0,-0.0,-0.0,-0.0,0.0393,0.0785,-0.6642,-0.7256,-0.6418,-0.6705,-0.7707,-0.7789,-0.7838,-0.7795,-0.7256,-0.7161,-0.7225,-0.6962,-0.6907,-0.68,-0.6796,-0.6716,-0.6575,-0.6404,-0.6305,-0.6276,-0.6324,-0.6265,-0.6261,-0.6315,-0.6325,-0.622,-0.622,-0.6139,-0.5986,-0.5959,-0.5738,-0.5411,-0.5378,-0.5373,-0.5391,0.0,0.0,0.0,-0.4887,-0.4813,-0.4874,-0.4667,-0.4468,-0.4342,-0.3884,0.0,-0.3256,-0.2723,-0.2125,-0.1453,-0.1962,0.0,0.0,0.0,0.0,0.0,0.0,0.0,0.0,0.0,0.0,0.0,0.0479,0.053,0.0747,0.0763,0.0715,0.0715,0.0719,0.0833,0.1044,0.093,0.0636,0.0225,-0.0,0.0112,-0.0,-0.0,-0.0,-0.0,-0.0,-0.0,-0.0,0.0117,-0.0,-0.0,-0.0,-0.0,-0.0,-0.0,-0.0,-0.0,-0.0,-0.0,-0.0,-0.0,-0.0,-0.0,-0.0,-0.0,-0.0,-0.0,-0.0,-0.0,-0.0,-0.0,-0.0,-0.0,-0.0,-0.0,-0.0,-0.0,-0.0,-0.0,0.0224,-0.7547,0.0,-0.7444,-0.754,0.0,-0.7949,-0.7963,-0.8014,-0.764,-0.7523,-0.7478,-0.74,-0.7326,-0.7255,-0.7091,-0.7061,-0.6912,-0.6756,-0.6686,-0.6698,-0.6702,-0.6586,-0.6413,-0.6512,-0.6478,-0.6474,-0.6403,-0.6325,-0.6244,-0.6101,-0.5952,-0.5806,-0.5587,-0.5408,-0.5406,-0.5399,-0.5387,-0.5243,-0.5098,-0.5023,-0.4957,-0.47,-0.4479,-0.4415,-0.4054,0.0,0.0,0.0,0.0,0.0,0.0,0.0,0.0,0.0,0.0,-0.0422,-0.0181,0.0181,0.0543,0.0734,0.0808,0.0631,0.064,0.0696,0.0848,0.0429,0.0185,0.0185,0.0185,0.0307,0.0423,0.0482,0.0359,-0.0,-0.0,-0.0,-0.0,-0.0,-0.0,-0.0,-0.0,-0.0,-0.0,-0.0,-0.0,-0.0,-0.0,-0.0,-0.0,-0.0,-0.0,-0.0,-0.0,-0.0,-0.0,-0.0,-0.0,-0.0,-0.0,-0.0,-0.0,-0.0,-0.0,-0.0,-0.0,-0.0,-0.0,-0.0,-0.0,-0.0,-0.0,-0.0,-0.0,-0.0,-0.0,-0.8038,-0.8038,-0.8038,-0.8038,-0.8038,-0.8038,-0.8038,-0.8028,0.0,0.0,0.0,-0.7611,-0.7597,-0.759,-0.728,-0.7141,-0.7088,-0.7149,-0.71,-0.7126,-0.7097,-0.6916,-0.6652,-0.6712,-0.6702,-0.6692,-0.6573,-0.6498,-0.6464,-0.6224,-0.6156,-0.6243,-0.5786,-0.5497,-0.5441,-0.5369,-0.5428,-0.5355,-0.5237,-0.5172,-0.5169,-0.4734,-0.4488,-0.4488,-0.4288,-0.3902,-0.334,-0.3206,-0.2646,-0.1661,-0.1417,-0.105,-0.0435,-0.0125,-0.0,-0.0,-0.0,0.0063,0.0314,0.0578,0.0716,0.0716,0.0732,0.0727,0.0755,0.0251,-0.0,-0.0,-0.0,-0.0,-0.0,-0.0,-0.0,-0.0,-0.0,-0.0,-0.0,-0.0,-0.0,-0.0,-0.0,-0.0,-0.0,-0.0,-0.0,-0.0,-0.0,-0.0,-0.0,-0.0,-0.0,-0.0,-0.0,-0.0,-0.0,-0.0,-0.0,-0.0,-0.0,-0.0,-0.0,-0.0,-0.0,-0.0,-0.0,-0.0,-0.0,-0.0,-0.0,-0.0,-0.0,-0.0,-0.0,-0.0,-0.0,-0.8038,-0.8038,-0.8038,-0.8038,-0.8038,-0.8038,-0.8038,-0.8028,-0.7875,-0.7801,-0.7773,-0.7655,-0.7597,-0.7597,-0.7577,-0.7386,-0.7151,-0.7131,-0.7131,-0.7075,-0.7132,-0.7073,-0.7066,-0.6763,-0.6702,-0.6698,-0.6678,-0.66,-0.6481,-0.643,-0.6362,-0.6289,-0.6215,-0.5916,-0.5454,-0.5369,-0.5428,-0.5428,-0.5408,-0.5328,-0.5328,-0.5107,-0.496,-0.4888,-0.4522,-0.4276,-0.4143,-0.3556,-0.3018,-0.2523,-0.1784,-0.106,-0.0448,-0.0128,-0.0,-0.0,-0.0,-0.0,-0.0,-0.0,0.0134,0.0134,0.0135,0.0134,0.0133,0.0067,-0.0,-0.0,-0.0,-0.0,-0.0,-0.0,-0.0,-0.0,-0.0,-0.0,-0.0,-0.0,-0.0,-0.0,-0.0,-0.0,-0.0,-0.0,-0.0,-0.0,-0.0,-0.0,-0.0,-0.0,-0.0,-0.0,-0.0,-0.0,-0.0,-0.0,-0.0,-0.0,-0.0,-0.0,-0.0,-0.0,-0.0,-0.0,-0.0,-0.0,-0.0,-0.0,-0.0,-0.0,-0.0,-0.0,-0.0,-0.0,-0.0,-0.8038,-0.8038,-0.8038,-0.8038,-0.8038,-0.8038,-0.8038,-0.8031,-0.7967,-0.7936,-0.7929,-0.7865,-0.7838,-0.7831,-0.7849,-0.7732,-0.7585,-0.722,-0.7101,-0.7139,-0.7075,-0.7135,-0.7128,-0.6973,-0.6939,-0.6936,-0.6861,-0.6787,-0.6712,-0.6559,-0.6403,-0.6268,-0.627,-0.6033,-0.5461,-0.5381,-0.5373,-0.5428,-0.5428,-0.5428,-0.5428,-0.5223,-0.5153,-0.5223,-0.4829,-0.4602,-0.4534,-0.3965,-0.3359,-0.2711,-0.2328,-0.1627,-0.0527,-0.0132,-0.0,-0.0,-0.0,-0.0,-0.0,-0.0,-0.0,-0.0,-0.0,-0.0,-0.0,-0.0,-0.0,-0.0,-0.0,-0.0,-0.0,-0.0,-0.0,-0.0,-0.0,-0.0,-0.0,-0.0,-0.0,-0.0,-0.0,-0.0,-0.0,-0.0,-0.0,-0.0,-0.0,-0.0,-0.0,-0.0,-0.0,-0.0,-0.0,-0.0,-0.0,-0.0,-0.0,-0.0,-0.0,-0.0,-0.0,-0.0,-0.0,-0.0,-0.0,-0.0,-0.0,-0.0,-0.0,-0.0,-0.0,-0.0,-0.0,-0.0,-0.0,-0.8038,-0.8038,-0.8038,-0.8038,-0.8038,-0.8038,-0.8038,-0.8038,-0.8038,-0.8038,-0.8038,-0.8038,-0.8038,-0.8028,-0.8014,-0.7966,-0.7889,-0.7382,-0.7134,-0.7149,-0.7139,-0.7139,-0.7139,-0.7139,-0.7139,-0.7129,-0.7027,-0.6959,-0.6902,-0.6654,-0.6485,-0.6321,-0.6315,-0.6065,-0.5624,-0.5477,-0.5391,-0.5416,-0.5446,-0.5428,-0.5428,-0.5223,-0.5223,-0.5362,-0.5096,-0.4976,-0.487,-0.4473,-0.3736,-0.28,-0.2671,-0.1988,-0.0754,-0.0206,-0.0,-0.0,-0.0,-0.0,-0.0,-0.0,-0.0,-0.0,-0.0,-0.0,-0.0,-0.0,-0.0,-0.0,-0.0,-0.0,-0.0,-0.0,-0.0,-0.0,-0.0,-0.0,-0.0,-0.0,-0.0,-0.0,-0.0,-0.0,-0.0,-0.0,-0.0,-0.0,-0.0,-0.0,-0.0,-0.0,-0.0,-0.0,-0.0,-0.0,-0.0,-0.0,-0.0,-0.0,-0.0,-0.0,-0.0,-0.0,-0.0,-0.0,-0.0,-0.0,-0.0,-0.0,-0.0,-0.0,-0.0,-0.0,-0.0,-0.0,-0.0,-0.8038,-0.8038,-0.8038,-0.8038,-0.8038,-0.8038,-0.8038,-0.8038,-0.8038,-0.8038,-0.8038,-0.8038,-0.8038,-0.8038,-0.8021,-0.7966,-0.8001,-0.7392,-0.7139,-0.7074,-0.7139,-0.7139,-0.7139,-0.7139,-0.7139,-0.7139,-0.7119,-0.7048,-0.6936,-0.6756,-0.6546,-0.6291,-0.6266,-0.625,-0.6184,-0.5651,-0.5441,-0.5566,-0.55,-0.5428,-0.5428,-0.5359,-0.5359,-0.5428,-0.5365,-0.5359,-0.528,-0.4873,-0.4079,-0.3015,-0.2519,-0.1878,-0.1084,-0.0361,-0.0,-0.0,-0.0,-0.0,-0.0,-0.0,-0.0,-0.0,-0.0,-0.0,-0.0,-0.0,-0.0,-0.0,-0.0,-0.0,-0.0,-0.0,-0.0,-0.0,-0.0,-0.0,-0.0,-0.0,-0.0,-0.0,-0.0,-0.0,-0.0,-0.0,-0.0,-0.0,-0.0,-0.0,-0.0,-0.0,-0.0,-0.0,-0.0,-0.0,-0.0,-0.0,-0.0,-0.0,-0.0,-0.0,-0.0,-0.0,-0.0,-0.0,-0.0,-0.0,-0.0,-0.0,-0.0,-0.0,-0.0,-0.0,-0.0,-0.0,-0.0,-0.8038,-0.8038,-0.8038,-0.8038,-0.8038,-0.8038,-0.8038,-0.8038,-0.8038,-0.8038,-0.8038,-0.8038,-0.8038,-0.8038,-0.8038,-0.8024,-0.7924,-0.7348,-0.7105,-0.7095,-0.7094,-0.7139,-0.7139,-0.7139,-0.7139,-0.7139,-0.7139,-0.7109,-0.7024,-0.6733,-0.6549,-0.6285,-0.6273,-0.628,-0.6261,-0.6061,-0.5882,-0.5715,-0.5654,-0.555,-0.5398,-0.547,-0.5538,-0.5613,-0.562,-0.5574,-0.5416,-0.5077,-0.4528,-0.377,-0.2833,-0.2038,-0.1458,-0.051,-0.0,-0.0,-0.0,-0.0,-0.0,-0.0,-0.0,-0.0,-0.0,-0.0,-0.0,-0.0,-0.0,-0.0,-0.0,-0.0,-0.0,-0.0,-0.0,-0.0,-0.0,-0.0,-0.0,-0.0,-0.0,-0.0,-0.0,-0.0,-0.0,-0.0,-0.0,-0.0,-0.0,-0.0,-0.0,-0.0,-0.0,-0.0,-0.0,-0.0,-0.0,-0.0,-0.0,-0.0,-0.0,-0.0,-0.0,-0.0,-0.0,-0.0,-0.0,-0.0,-0.0,-0.0,-0.0,-0.0,-0.0,-0.0,-0.0,-0.0,-0.0,-0.8038,-0.8038,-0.8038,-0.8038,-0.8038,-0.8038,-0.8038,-0.8038,-0.8038,-0.8038,-0.8038,-0.8038,-0.8038,-0.8038,-0.8038,-0.796,-0.7911,-0.7512,-0.7263,-0.7096,-0.7072,-0.7091,-0.7143,-0.7139,-0.7139,-0.7139,-0.7139,-0.7122,-0.697,-0.6743,-0.6485,-0.6346,-0.6278,-0.6283,-0.6256,-0.6289,-0.6131,-0.5874,-0.5823,-0.5673,-0.5541,-0.5616,-0.5813,-0.5871,-0.5875,-0.5673,-0.5488,-0.5283,-0.4938,-0.4377,-0.3341,-0.2453,-0.1786,-0.0744,-0.0149,-0.0,-0.0,-0.0,-0.0,-0.0,-0.0,-0.0,-0.0,-0.0,-0.0,-0.0,-0.0,-0.0,-0.0,-0.0,-0.0,-0.0,-0.0,-0.0,-0.0,-0.0,-0.0,-0.0,-0.0,-0.0,-0.0,-0.0,-0.0,-0.0,-0.0,-0.0,-0.0,-0.0,-0.0,-0.0,-0.0,-0.0,-0.0,-0.0,-0.0,-0.0,-0.0,-0.0,-0.0,-0.0,-0.0,-0.0,-0.0,-0.0,-0.0,-0.0,-0.0,-0.0,-0.0,-0.0,-0.0,-0.0,-0.0,-0.0,-0.0,-0.8038,-0.8038,-0.8038,-0.8038,-0.8038,-0.8038,-0.8038,-0.8038,-0.8038,-0.8038,-0.8038,-0.8038,-0.8038,-0.8038,-0.8038,-0.7957,-0.8025,-0.7901,-0.7648,-0.722,-0.709,-0.7098,-0.7146,-0.7139,-0.7149,-0.718,-0.7166,-0.7085,-0.6946,-0.6699,-0.6453,-0.6294,-0.6254,-0.6261,-0.63,-0.6263,-0.6186,-0.601,-0.5898,-0.5805,-0.577,-0.5932,-0.6092,-0.6212,-0.596,-0.5812,-0.577,-0.5715,-0.5318,-0.4441,-0.3971,-0.312,-0.2029,-0.1015,-0.039,-0.0,-0.0,-0.0,-0.0,-0.0,-0.0,-0.0,-0.0,-0.0,-0.0,-0.0,-0.0,-0.0,-0.0,-0.0,-0.0,-0.0,-0.0,-0.0,-0.0,-0.0,-0.0,-0.0,-0.0,-0.0,-0.0,-0.0,-0.0,-0.0,-0.0,-0.0,-0.0,-0.0,-0.0,-0.0,-0.0,-0.0,-0.0,-0.0,-0.0,-0.0,-0.0,-0.0,-0.0,-0.0,-0.0,-0.0,-0.0,-0.0,-0.0,-0.0,-0.0,-0.0,-0.0,-0.0,-0.0,-0.0,-0.0,-0.0,-0.0,-0.8038,-0.8038,-0.8038,-0.8038,-0.8038,-0.8038,-0.8038,-0.8038,-0.8038,-0.8038,-0.8038,-0.8038,-0.8038,-0.8038,-0.8038,-0.8011,-0.795,-0.7959,-0.7852,-0.7645,-0.7466,-0.7393,-0.7441,-0.7434,-0.7434,-0.7421,-0.7336,-0.7163,-0.6946,-0.6868,-0.6629,-0.6337,-0.6261,-0.627,-0.6268,-0.6287,-0.6256,-0.6173,-0.6115,-0.6125,-0.609,-0.6176,-0.6228,-0.6256,-0.6173,-0.6122,-0.61,-0.594,-0.5502,-0.4768,-0.4153,-0.345,-0.2589,-0.1099,-0.0157,-0.0,-0.0,-0.0,-0.0,-0.0,-0.0,-0.0,-0.0,-0.0,-0.0,-0.0,-0.0,-0.0,-0.0,-0.0,-0.0,-0.0,-0.0,-0.0,-0.0,-0.0,-0.0,-0.0,-0.0,-0.0,-0.0,-0.0,-0.0,-0.0,-0.0,-0.0,-0.0,-0.0,-0.0,-0.0,-0.0,-0.0,-0.0,-0.0,-0.0,-0.0,-0.0,-0.0,-0.0,-0.0,-0.0,-0.0,-0.0,-0.0,-0.0,-0.0,-0.0,-0.0,-0.0,-0.0,-0.0,-0.0,-0.0,-0.0,-0.0,-0.8038,-0.8038,-0.8038,-0.8038,-0.8038,-0.8038,-0.8038,-0.8038,-0.8038,-0.8038,-0.8038,-0.8038,-0.8038,-0.8038,-0.8038,-0.8038,-0.8028,-0.8031,-0.7959,-0.8004,-0.7808,-0.7739,-0.7701,-0.76,-0.7597,-0.7573,-0.7444,-0.7258,-0.7078,-0.6976,-0.6736,-0.6548,-0.6364,-0.6261,-0.6257,-0.6285,-0.6261,-0.6261,-0.6261,-0.6257,-0.6261,-0.6261,-0.6261,-0.6257,-0.6261,-0.6261,-0.6261,-0.6018,-0.555,-0.4849,-0.4151,-0.3372,-0.2512,-0.0942,-0.0,-0.0,-0.0,-0.0,-0.0,-0.0,-0.0,-0.0,-0.0,-0.0,-0.0,-0.0,-0.0,-0.0,-0.0,-0.0,-0.0,-0.0,-0.0,-0.0,-0.0,-0.0,-0.0,-0.0,-0.0,-0.0,-0.0,-0.0,-0.0,-0.0,-0.0,-0.0,-0.0,-0.0,-0.0,-0.0,-0.0,-0.0,-0.0,-0.0,-0.0,-0.0,-0.0,-0.0,-0.0,-0.0,-0.0,-0.0,-0.0,-0.0,-0.0,-0.0,-0.0,-0.0,-0.0,-0.0,-0.0,-0.0,-0.0,-0.0,-0.0,-0.8038,-0.8038,-0.8038,-0.8038,-0.8038,-0.8038,-0.8038,-0.8038,-0.8038,-0.8038,-0.8038,-0.8038,-0.8038,-0.8038,-0.8038,-0.8038,-0.8035,-0.8021,-0.795,-0.7938,-0.8018,-0.7948,-0.7939,-0.7746,-0.7634,-0.7617,-0.7461,-0.738,-0.7322,-0.7099,-0.6949,-0.6956,-0.6548,-0.6337,-0.6298,-0.626,-0.6271,-0.6261,-0.6261,-0.6261,-0.6261,-0.6261,-0.6261,-0.6261,-0.6261,-0.6261,-0.6261,-0.6022,-0.5395,-0.446,-0.3995,-0.2981,-0.157,-0.0471,-0.0,-0.0,-0.0,-0.0,-0.0,-0.0,-0.0,-0.0,-0.0,-0.0,-0.0,-0.0,-0.0,-0.0,-0.0,-0.0,-0.0,-0.0,-0.0,-0.0,-0.0,-0.0,-0.0,-0.0,-0.0,-0.0,-0.0,-0.0,-0.0,-0.0,-0.0,-0.0,-0.0,-0.0,-0.0,-0.0,-0.0,-0.0,-0.0,-0.0,-0.0,-0.0,-0.0,-0.0,-0.0,-0.0,-0.0,-0.0,-0.0,-0.0,-0.0,-0.0,-0.0,-0.0,-0.0,-0.0,-0.0,-0.0,-0.0,-0.0,-0.0,-0.8038,-0.8038,-0.8038,-0.8038,-0.8038,-0.8038,-0.8038,-0.8038,-0.8038,-0.8038,-0.8038,-0.8038,-0.8038,-0.8038,-0.8038,-0.8038,-0.8038,-0.8038,-0.8011,-0.7974,-0.7963,-0.8041,-0.8004,-0.7899,-0.7848,-0.7756,-0.7699,-0.7563,-0.739,-0.7272,-0.7231,-0.7035,-0.6925,-0.6671,-0.6327,-0.6261,-0.6284,-0.6271,-0.6261,-0.6261,-0.6261,-0.6261,-0.6261,-0.6261,-0.6261,-0.6264,-0.6268,-0.5873,-0.5004,-0.3597,-0.3522,-0.2821,-0.1492,-0.0471,-0.0,-0.0,-0.0,-0.0,-0.0,-0.0,-0.0,-0.0,-0.0,-0.0,-0.0,-0.0,-0.0,-0.0,-0.0,-0.0,-0.0,-0.0,-0.0,-0.0,-0.0,-0.0,-0.0,-0.0,-0.0,-0.0,-0.0,-0.0,-0.0,-0.0,-0.0,-0.0,-0.0,-0.0,-0.0,-0.0,-0.0,-0.0,-0.0,-0.0,-0.0,-0.0,-0.0,-0.0,-0.0,-0.0,-0.0,-0.0,-0.0,-0.0,-0.0,-0.0,-0.0,-0.0,-0.0,-0.0,-0.0,-0.0,-0.0,-0.0,-0.0,-0.8038,-0.8038,-0.8038,-0.8038,-0.8038,-0.8038,-0.8038,-0.8038,-0.8038,-0.8038,-0.8038,-0.8038,-0.8038,-0.8038,-0.8038,-0.8038,-0.8038,-0.8038,-0.8038,-0.8038,-0.8038,-0.8038,-0.8038,-0.8038,-0.7997,-0.7902,-0.7838,-0.7719,-0.7539,-0.7417,-0.7275,-0.7115,-0.7076,-0.6929,-0.6565,-0.6495,-0.6421,-0.643,-0.6373,-0.6339,-0.6329,-0.6288,-0.6261,-0.6261,-0.6261,-0.6268,-0.6278,-0.5802,-0.4854,-0.3602,-0.3215,-0.2512,-0.1335,-0.0,-0.0,-0.0,-0.0,-0.0,-0.0,-0.0,-0.0,-0.0,-0.0,-0.0,-0.0,-0.0,-0.0,-0.0,-0.0,-0.0,-0.0,-0.0,-0.0,-0.0,-0.0,-0.0,-0.0,-0.0,-0.0,-0.0,-0.0,-0.0,-0.0,-0.0,-0.0,-0.0,-0.0,-0.0,-0.0,-0.0,-0.0,-0.0,-0.0,-0.0,-0.0,-0.0,-0.0,-0.0,-0.0,-0.0,-0.0,-0.0,-0.0,-0.0,-0.0,-0.0,-0.0,-0.0,-0.0,-0.0,-0.0,-0.0,-0.0,-0.0,0.0617,-0.8038,-0.8038,-0.8038,-0.8038,-0.8038,-0.8038,-0.8038,-0.8038,-0.8038,-0.8038,-0.8038,-0.8038,-0.8038,-0.8038,-0.8038,-0.8038,-0.8038,-0.8038,-0.8038,-0.8038,-0.8038,-0.8038,-0.8038,-0.8038,-0.8028,-0.8001,-0.7899,-0.7818,-0.7746,-0.7522,-0.7285,-0.7128,-0.7085,-0.7111,-0.696,-0.686,-0.6698,-0.6644,-0.6542,-0.6408,-0.6234,-0.6294,-0.6213,-0.621,-0.621,-0.621,-0.62,-0.5413,-0.4553,-0.3694,-0.2829,-0.2044,-0.1258,-0.0471,-0.0,-0.0,-0.0,-0.0,-0.0,-0.0,-0.0,-0.0,-0.0,-0.0,-0.0,-0.0,-0.0,-0.0,-0.0,-0.0,-0.0,-0.0,-0.0,-0.0,-0.0,-0.0,-0.0,-0.0,-0.0,-0.0,-0.0,-0.0,-0.0,-0.0,-0.0,-0.0,-0.0,-0.0,-0.0,-0.0,-0.0,-0.0,-0.0,-0.0,-0.0,-0.0,-0.0,-0.0,-0.0,-0.0,-0.0,-0.0,-0.0,-0.0,-0.0,-0.0,-0.0,-0.0,-0.0,-0.0,-0.0,-0.0,-0.0,-0.0,0.0841,-0.8038,-0.8038,-0.8038,-0.8038,-0.8038,-0.8038,-0.8038,-0.8038,-0.8038,-0.8038,-0.8038,-0.8038,-0.8038,-0.8038,-0.8038,-0.8038,-0.8038,-0.8038,-0.8038,-0.8038,-0.8038,-0.8038,-0.8038,-0.8038,-0.8038,-0.8028,-0.7987,-0.7923,-0.7804,-0.7631,-0.7393,-0.7083,-0.7101,-0.7121,-0.7111,-0.698,-0.6891,-0.6715,-0.6509,-0.6315,-0.6141,-0.6106,-0.5956,-0.5863,-0.5934,-0.6054,-0.6064,-0.4314,-0.3057,-0.2433,-0.1885,-0.1573,-0.1179,-0.0,-0.0,-0.0,-0.0,-0.0,-0.0,-0.0,-0.0,-0.0,-0.0,-0.0,-0.0,-0.0,-0.0,-0.0,-0.0,-0.0,-0.0,-0.0,-0.0,-0.0,-0.0,-0.0,-0.0,-0.0,-0.0,-0.0,-0.0,-0.0,-0.0,-0.0,-0.0,-0.0,-0.0,-0.0,-0.0,-0.0,-0.0,-0.0,-0.0,-0.0,-0.0,-0.0,-0.0,-0.0,-0.0,-0.0,-0.0,-0.0,-0.0,-0.0,-0.0,-0.0,-0.0,-0.0,-0.0,-0.0,-0.0,-0.0,-0.0,0.0449,0.101,-0.8038,-0.8038,-0.8038,-0.8038,-0.8038,-0.8038,-0.8038,-0.8038,-0.8038,-0.8038,-0.8038,-0.8038,-0.8038,-0.8038,-0.8038,-0.8038,-0.8038,-0.8038,-0.8038,-0.8038,-0.8038,-0.8038,-0.8038,-0.8038,-0.8038,-0.8038,-0.8038,-0.7994,-0.7899,-0.776,-0.7516,-0.7372,-0.7128,-0.7074,-0.7121,-0.7107,-0.6983,-0.6724,-0.6414,-0.6207,-0.5948,-0.5808,-0.5584,-0.5417,-0.5378,-0.5471,-0.5187,-0.3264,-0.1983,-0.189,-0.1335,-0.0786,-0.0707,-0.0314,-0.0,-0.0,-0.0,-0.0,-0.0,-0.0,-0.0,-0.0,-0.0,-0.0,-0.0,-0.0,-0.0,-0.0,-0.0,-0.0,-0.0,-0.0,-0.0,-0.0,-0.0,-0.0,-0.0,-0.0,-0.0,-0.0,-0.0,-0.0,-0.0,-0.0,-0.0,-0.0,-0.0,-0.0,-0.0,-0.0,-0.0,-0.0,-0.0,-0.0,-0.0,-0.0,-0.0,-0.0,-0.0,-0.0,-0.0,-0.0,-0.0,-0.0,-0.0,-0.0,-0.0,-0.0,-0.0,-0.0,-0.0,-0.0,-0.0,0.0617,0.1178,-0.8038,-0.8038,-0.8038,-0.8038,-0.8038,-0.8038,-0.8038,-0.8038,-0.8038,-0.8038,-0.8038,-0.8038,-0.8038,-0.8038,-0.8038,-0.8038,-0.8038,-0.8038,-0.8038,-0.8038,-0.8038,-0.8038,-0.8038,-0.8038,-0.7942,-0.7939,-0.7939,-0.7935,-0.7779,-0.7771,-0.775,-0.76,-0.7263,-0.7118,-0.7084,-0.7143,-0.6966,-0.6744,-0.6303,-0.5912,-0.5548,-0.523,-0.4922,-0.4787,-0.47,-0.458,-0.3916,-0.2525,-0.1619,-0.2143,-0.079,-0.0,-0.0,-0.0,-0.0,-0.0,-0.0,-0.0,-0.0,-0.0,-0.0,-0.0,-0.0,-0.0,-0.0,-0.0,-0.0,-0.0,-0.0,-0.0,-0.0,-0.0,-0.0,-0.0,-0.0,-0.0,-0.0,-0.0,-0.0,-0.0,-0.0,-0.0,-0.0,-0.0,-0.0,-0.0,-0.0,-0.0,-0.0,-0.0,-0.0,-0.0,-0.0,-0.0,-0.0,-0.0,-0.0,-0.0,-0.0,-0.0,-0.0,-0.0,-0.0,-0.0,-0.0,-0.0,-0.0,-0.0,-0.0,-0.0,-0.0,-0.0,0.0729,0.0954,0.1459,-0.8038,-0.8038,-0.8038,-0.8038,-0.8038,-0.8038,-0.8038,-0.8038,-0.8038,-0.8038,-0.8038,-0.8038,-0.8038,-0.8038,-0.8038,-0.8038,-0.8038,-0.8038,-0.8038,-0.8038,-0.8038,-0.8038,-0.7939,-0.7939,-0.7842,-0.7743,-0.7643,-0.7543,-0.7406,-0.7416,-0.7611,-0.7846,-0.7439,-0.7073,-0.7125,-0.7022,-0.6966,-0.6697,-0.613,-0.5585,-0.5142,-0.4588,-0.4102,-0.3871,-0.3966,-0.3847,-0.3258,-0.2089,-0.1167,-0.0,-0.0,-0.0,-0.0,-0.0,-0.0,-0.0,-0.0,-0.0,-0.0,-0.0,-0.0,-0.0,-0.0,-0.0,-0.0,-0.0,-0.0,-0.0,-0.0,-0.0,-0.0,-0.0,-0.0,-0.0,-0.0,-0.0,-0.0,-0.0,-0.0,-0.0,-0.0,-0.0,-0.0,-0.0,-0.0,-0.0,-0.0,-0.0,-0.0,-0.0,-0.0,-0.0,-0.0,-0.0,-0.0,-0.0,-0.0,-0.0,-0.0,-0.0,-0.0,-0.0,-0.0,-0.0,-0.0,-0.0,-0.0,-0.0,-0.0,-0.0,-0.0,-0.0,0.0785,0.1178,0.1698,-0.8038,-0.8038,-0.8038,-0.8038,-0.8038,-0.8038,-0.8038,-0.8038,-0.8038,-0.8038,-0.8038,-0.8038,-0.8038,-0.8038,-0.8038,-0.8038,-0.8038,-0.8045,-0.7842,-0.764,-0.7637,-0.7637,-0.7743,-0.764,-0.754,-0.7444,-0.7244,-0.7042,-0.6915,-0.7069,-0.7403,-0.7931,-0.7651,-0.7413,-0.7106,-0.6915,-0.6675,-0.6355,-0.563,-0.5097,-0.4832,-0.4028,-0.3461,-0.3401,-0.3615,-0.3679,-0.2821,-0.1967,-0.0941,-0.0,-0.0,-0.0,-0.0,-0.0,-0.0,-0.0,-0.0,-0.0,-0.0,-0.0,-0.0,-0.0,-0.0,-0.0,-0.0,-0.0,-0.0,-0.0,-0.0,-0.0,-0.0,-0.0,-0.0,-0.0,-0.0,-0.0,-0.0,-0.0,-0.0,-0.0,-0.0,-0.0,-0.0,-0.0,-0.0,-0.0,-0.0,-0.0,-0.0,-0.0,-0.0,-0.0,-0.0,-0.0,-0.0,-0.0,-0.0,-0.0,-0.0,-0.0,-0.0,-0.0,-0.0,-0.0,-0.0,-0.0,-0.0,-0.0,-0.0,-0.0,-0.0,-0.0,0.0902,0.148,0.2014,-0.8038,-0.8038,-0.8038,-0.8038,-0.8038,-0.8038,-0.8038,-0.8038,-0.8038,-0.8038,-0.8038,-0.8038,-0.8038,-0.8038,-0.8038,-0.8038,-0.7942,-0.7643,-0.7344,-0.6933,-0.7036,-0.7238,-0.7344,-0.7141,-0.6836,-0.6833,-0.6639,-0.6439,-0.6237,-0.6431,-0.6778,-0.7583,-0.7931,-0.7665,-0.7178,-0.663,-0.6286,-0.6005,-0.5186,-0.4563,-0.43,-0.3494,-0.2932,-0.2638,-0.3065,-0.3148,-0.2272,-0.1487,-0.0,-0.0,-0.0,-0.0,-0.0,-0.0,-0.0,-0.0,-0.0,-0.0,-0.0,-0.0,-0.0,-0.0,-0.0,-0.0,-0.0,-0.0,-0.0,-0.0,-0.0,-0.0,-0.0,-0.0,-0.0,-0.0,-0.0,-0.0,-0.0,-0.0,-0.0,-0.0,-0.0,-0.0,-0.0,-0.0,-0.0,-0.0,-0.0,-0.0,-0.0,-0.0,-0.0,-0.0,-0.0,-0.0,-0.0,-0.0,-0.0,-0.0,-0.0,-0.0,-0.0,-0.0,-0.0,-0.0,-0.0,-0.0,-0.0,-0.0,-0.0,-0.0,0.0524,0.1034,0.144,0.1854,0.2349,-0.8038,-0.8038,-0.8038,-0.8038,-0.8038,-0.8038,-0.8038,-0.8038,-0.8038,-0.8038,-0.8038,-0.8038,-0.7939,-0.7939,-0.7939,-0.7942,-0.7749,-0.7144,-0.6334,-0.6029,-0.6232,-0.6539,-0.6742,-0.6339,-0.5937,-0.5632,-0.5634,-0.5434,-0.5233,-0.5329,-0.5919,-0.6691,-0.7508,-0.7637,-0.7282,-0.679,-0.6031,-0.556,-0.4832,-0.4121,-0.3585,-0.2599,-0.1792,-0.1335,-0.1779,-0.178,-0.1515,-0.0714,-0.0179,-0.0,-0.0,-0.0,-0.0,-0.0,-0.0,-0.0,-0.0,-0.0,-0.0,-0.0,-0.0,-0.0,-0.0,-0.0,-0.0,-0.0,-0.0,-0.0,-0.0,-0.0,-0.0,-0.0,-0.0,-0.0,-0.0,-0.0,-0.0,-0.0,-0.0,-0.0,-0.0,-0.0,-0.0,-0.0,-0.0,-0.0,-0.0,-0.0,-0.0,-0.0,-0.0,-0.0,-0.0,-0.0,-0.0,-0.0,-0.0,-0.0,-0.0,-0.0,-0.0,-0.0,-0.0,-0.0,-0.0,-0.0,-0.0,-0.0,-0.0,-0.0,0.1012,0.158,0.1887,0.2203,0.2798,-0.8038,-0.8038,-0.8038,-0.8038,-0.8038,-0.8038,-0.8038,-0.8038,-0.8038,-0.8038,-0.7939,-0.7842,-0.7743,-0.7743,-0.7441,-0.7447,-0.7253,-0.6137,-0.5327,-0.4926,-0.5027,-0.5534,-0.5839,-0.5438,-0.5033,-0.4632,-0.4433,-0.4332,-0.4031,-0.4533,-0.5033,-0.5625,-0.6674,-0.7146,-0.6969,-0.6208,-0.5606,-0.5049,-0.4297,-0.3587,-0.296,-0.0,-0.0,-0.0,-0.0,-0.0628,-0.0629,-0.0359,-0.0,-0.0,-0.0,-0.0,-0.0,-0.0,-0.0,-0.0,-0.0,-0.0,-0.0,-0.0,-0.0,-0.0,-0.0,-0.0,-0.0,-0.0,-0.0,-0.0,-0.0,-0.0,-0.0,-0.0,-0.0,-0.0,-0.0,-0.0,-0.0,-0.0,-0.0,-0.0,-0.0,-0.0,-0.0,-0.0,-0.0,-0.0,-0.0,-0.0,-0.0,-0.0,-0.0,-0.0,-0.0,-0.0,-0.0,-0.0,-0.0,-0.0,-0.0,-0.0,-0.0,-0.0,-0.0,-0.0,-0.0,-0.0,-0.0,-0.0,-0.0,0.087,0.1407,0.1876,0.2185,0.2575,0.3186,-0.8038,-0.8038,-0.8038,-0.8038,-0.8038,-0.8038,-0.8038,-0.8038,-0.8038,-0.8038,-0.7939,-0.7743,-0.7543,-0.7344,-0.6842,-0.6545,-0.6759,-0.5336,-0.4124,-0.3623,-0.3721,-0.4126,-0.4533,-0.4535,-0.4133,-0.3934,-0.3633,-0.313,-0.3228,-0.353,-0.413,-0.4828,-0.5732,-0.6219,-0.6124,-0.5209,-0.4719,-0.4256,-0.3673,-0.305,-0.2244,-0.0,-0.0,-0.0,-0.0,-0.0,-0.0,-0.0,-0.0,-0.0,-0.0,-0.0,-0.0,-0.0,-0.0,-0.0,-0.0,-0.0,-0.0,-0.0,-0.0,-0.0,-0.0,-0.0,-0.0,-0.0,-0.0,-0.0,-0.0,-0.0,-0.0,-0.0,-0.0,-0.0,-0.0,-0.0,-0.0,-0.0,-0.0,-0.0,-0.0,-0.0,-0.0,-0.0,-0.0,-0.0,-0.0,-0.0,-0.0,-0.0,-0.0,-0.0,-0.0,-0.0,-0.0,-0.0,-0.0,-0.0,-0.0,-0.0,-0.0,-0.0,-0.0,-0.0,-0.0,-0.0,-0.0,-0.0,-0.0,0.0893,0.1635,0.2123,0.2499,0.2953,0.3568,-0.8038,-0.8038,-0.8038,-0.8038,-0.8038,-0.8038,-0.8038,-0.8038,-0.7942,-0.8038,-0.7939,-0.7643,-0.7344,-0.6836,-0.5629,-0.5639,-0.5648,-0.4638,-0.3224,-0.2418,-0.2517,-0.3021,-0.3426,-0.3734,-0.3533,-0.3232,-0.3132,-0.293,-0.2624,-0.2522,-0.3126,-0.4029,-0.5022,-0.5443,-0.4981,-0.4292,-0.3814,-0.3697,-0.3224,-0.2509,-0.1615,-0.0,-0.0,-0.0,-0.0,-0.0,-0.0,-0.0,-0.0,-0.0,-0.0,-0.0,-0.0,-0.0,-0.0,-0.0,-0.0,-0.0,-0.0,-0.0,-0.0,-0.0,-0.0,-0.0,-0.0,-0.0,-0.0,-0.0,-0.0,-0.0,-0.0,-0.0,-0.0,-0.0,-0.0,-0.0,-0.0,-0.0,-0.0,-0.0,-0.0,-0.0,-0.0,-0.0,-0.0,-0.0,-0.0,-0.0,-0.0,-0.0,-0.0,-0.0,-0.0,-0.0,-0.0,-0.0,-0.0,-0.0,-0.0,-0.0,-0.0,-0.0,-0.0,-0.0,-0.0,-0.0,-0.0,-0.0,-0.0,0.0981,0.1741,0.2311,0.2755,0.3359,0.3968,-0.8038,-0.8038,-0.8038,-0.8038,-0.8038,-0.8038,-0.8038,-0.7942,-0.7842,-0.7743,-0.7643,-0.6942,-0.6442,-0.5739,-0.4834,-0.4841,-0.5153,-0.4442,-0.3128,-0.1816,-0.1815,-0.2218,-0.2724,-0.2827,-0.2729,-0.2425,-0.2223,-0.192,-0.1817,-0.2119,-0.2722,-0.3224,-0.4332,-0.4684,-0.4062,-0.3477,-0.321,-0.3033,-0.2438,-0.1526,-0.0718,-0.0,-0.0,-0.0,-0.0,-0.0,-0.0,-0.0,-0.0,-0.0,-0.0,-0.0,-0.0,-0.0,-0.0,-0.0,-0.0,-0.0,-0.0,-0.0,-0.0,-0.0,-0.0,-0.0,-0.0,-0.0,-0.0,-0.0,-0.0,-0.0,-0.0,-0.0,-0.0,-0.0,-0.0,-0.0,-0.0,-0.0,-0.0,-0.0,-0.0,-0.0,-0.0,-0.0,-0.0,-0.0,-0.0,-0.0,-0.0,-0.0,-0.0,-0.0,-0.0,-0.0,-0.0,-0.0,-0.0,-0.0,-0.0,-0.0,-0.0,-0.0,-0.0,-0.0,-0.0,-0.0,0.0608,0.0672,0.08,0.1327,0.1915,0.2499,0.3144,0.3816,0.4438,-0.8038,-0.8038,-0.8038,-0.8038,-0.7939,-0.7839,-0.7839,-0.7739,-0.7543,-0.7344,-0.7042,-0.6139,-0.524,-0.4541,-0.4137,-0.4038,-0.4349,-0.4145,-0.2928,-0.1716,-0.1212,-0.1414,-0.1716,-0.1919,-0.2022,-0.1617,-0.1718,-0.1415,-0.1313,-0.1615,-0.2118,-0.2317,-0.363,-0.3889,-0.3348,-0.2732,-0.2497,-0.2334,-0.1829,-0.0998,-0.0,-0.0,-0.0,-0.0,-0.0,-0.0,-0.0,-0.0,-0.0,-0.0,-0.0,-0.0,-0.0,-0.0,-0.0,-0.0,-0.0,-0.0,-0.0,-0.0,-0.0,-0.0,-0.0,-0.0,-0.0,-0.0,-0.0,-0.0,-0.0,-0.0,-0.0,-0.0,-0.0,-0.0,-0.0,-0.0,-0.0,-0.0,-0.0,-0.0,-0.0,-0.0,-0.0,-0.0,-0.0,-0.0,-0.0,-0.0,-0.0,-0.0,-0.0,-0.0,-0.0,-0.0,-0.0,-0.0,-0.0,-0.0,-0.0,-0.0,-0.0,-0.0,-0.0,-0.0,-0.0,0.1366,0.1718,0.1429,0.1212,0.174,0.2267,0.2876,0.348,0.4225,0.4764,-0.8038,-0.8038,-0.8038,-0.8038,-0.7939,-0.7441,-0.7235,-0.7135,-0.6942,-0.6639,-0.6137,-0.5133,-0.4336,-0.3836,-0.323,-0.303,-0.3237,-0.2224,-0.1313,-0.0606,-0.0,-0.0,-0.0,-0.1111,-0.1516,-0.1516,-0.1313,-0.1111,-0.101,-0.1111,-0.1514,-0.1815,-0.3026,-0.3192,-0.2864,-0.2256,-0.175,-0.1615,-0.1213,-0.083,-0.0,-0.0,-0.0,-0.0,-0.0,-0.0,-0.0,-0.0,-0.0,-0.0,-0.0,-0.0,-0.0,-0.0,-0.0,-0.0,-0.0,-0.0,-0.0,-0.0,-0.0,-0.0,-0.0,-0.0,-0.0,-0.0,-0.0,-0.0,-0.0,-0.0,-0.0,-0.0,-0.0,-0.0,-0.0,-0.0,-0.0,-0.0,-0.0,-0.0,-0.0,-0.0,-0.0,-0.0,-0.0,-0.0,-0.0,-0.0,-0.0,-0.0,-0.0,-0.0,-0.0,-0.0,-0.0,-0.0,-0.0,-0.0,-0.0,-0.0,-0.0,-0.0,-0.0,-0.0,0.0917,0.1896,0.2649,0.2134,0.1905,0.2227,0.269,0.3291,0.3959,0.4625,0.504,-0.8038,-0.8038,-0.8038,-0.8038,-0.7939,-0.7437,-0.6828,-0.6224,-0.6132,-0.5539,-0.4738,-0.4033,-0.3533,-0.3233,-0.2425,-0.1717,-0.1212,-0.0909,-0.0,-0.0,-0.0,-0.0,-0.0,-0.0,-0.0606,-0.0,-0.0,-0.0,-0.0404,-0.0,-0.0,-0.1716,-0.2624,-0.2516,-0.2196,-0.1778,-0.1272,-0.0,-0.0,-0.0,-0.0,-0.0,-0.0,-0.0,-0.0,-0.0,-0.0,-0.0,-0.0,-0.0,-0.0,-0.0,-0.0,-0.0,-0.0,-0.0,-0.0,-0.0,-0.0,-0.0,-0.0,-0.0,-0.0,-0.0,-0.0,-0.0,-0.0,-0.0,-0.0,-0.0,-0.0,-0.0,-0.0,-0.0,-0.0,-0.0,-0.0,-0.0,-0.0,-0.0,-0.0,-0.0,-0.0,-0.0,-0.0,-0.0,-0.0,-0.0,-0.0,-0.0,-0.0,-0.0,-0.0,-0.0,-0.0,-0.0,-0.0,-0.0,-0.0,-0.0,-0.0,-0.0,-0.0,-0.0,0.1232,0.2297,0.2836,0.2648,0.2609,0.2772,0.3226,0.3823,0.4422,0.503,0.5272,-0.8038,-0.8038,-0.8038,-0.8038,-0.7939,-0.7238,-0.6326,-0.5518,-0.5532,-0.4839,-0.3636,-0.3029,-0.2727,-0.2527,-0.2022,-0.101,-0.0,-0.0,-0.0,-0.0,-0.0,-0.0,-0.0,-0.0,-0.0,-0.0,-0.0,-0.0,-0.0,-0.0,-0.0,-0.1515,-0.2223,-0.1917,-0.1308,-0.0,-0.0,-0.0,-0.0,-0.0,-0.0,-0.0,-0.0,-0.0,-0.0,-0.0,-0.0,-0.0,-0.0,-0.0,-0.0,-0.0,-0.0,-0.0,-0.0,-0.0,-0.0,-0.0,-0.0,-0.0,-0.0,-0.0,-0.0,-0.0,-0.0,-0.0,-0.0,-0.0,-0.0,-0.0,-0.0,-0.0,-0.0,-0.0,-0.0,-0.0,-0.0,-0.0,-0.0,-0.0,-0.0,-0.0,-0.0,-0.0,-0.0,-0.0,-0.0,-0.0,-0.0,-0.0,-0.0,-0.0,-0.0,-0.0,-0.0,-0.0,-0.0,-0.0,-0.0,-0.0,-0.0,0.0299,0.0149,0.03,0.1196,0.2569,0.3249,0.3482,0.3397,0.3238,0.3763,0.4359,0.4715,0.5202,0.5413,-0.8038,-0.8038,-0.8038,-0.8038,-0.7839,-0.6836,-0.5827,-0.4918,-0.5039,-0.444,-0.303,-0.2222,-0.1717,-0.1617,-0.1414,-0.0808,-0.0,-0.0,-0.0,-0.0,-0.0,-0.0,-0.0,-0.0,-0.0,-0.0,-0.0,-0.0,-0.0,-0.0,-0.0,-0.1111,-0.1414,-0.1212,-0.0202,-0.0,-0.0,-0.0,-0.0,-0.0,-0.0,-0.0,-0.0,-0.0,-0.0,-0.0,-0.0,-0.0,-0.0,-0.0,-0.0,-0.0,-0.0,-0.0,-0.0,-0.0,-0.0,-0.0,-0.0,-0.0,-0.0,-0.0,-0.0,-0.0,-0.0,-0.0,-0.0,-0.0,-0.0,-0.0,-0.0,-0.0,-0.0,-0.0,-0.0,-0.0,-0.0,-0.0,-0.0,-0.0,-0.0,-0.0,-0.0,-0.0,-0.0,-0.0,-0.0,-0.0,-0.0,-0.0,-0.0,-0.0,-0.0,-0.0,-0.0,-0.0,-0.0,-0.0,-0.0,-0.0,0.1012,0.1159,0.0927,0.0466,0.1611,0.3312,0.4063,0.4501,0.4315,0.4206,0.4384,0.4767,0.5065,0.5325,0.5555,-0.8038,-0.8038,-0.8038,-0.8045,-0.7849,-0.6839,-0.5627,-0.442,-0.393,-0.323,-0.2222,-0.1718,-0.1111,-0.0707,-0.0,-0.0,-0.0,-0.0,-0.0,-0.0,-0.0,-0.0,-0.0,-0.0,-0.0,-0.0,-0.0,-0.0,-0.0,-0.0,-0.0,-0.0505,-0.0,-0.0404,-0.0,-0.0,-0.0,-0.0,-0.0,-0.0,-0.0,-0.0,-0.0,-0.0,-0.0,-0.0,-0.0,-0.0,-0.0,-0.0,-0.0,-0.0,-0.0,-0.0,-0.0,-0.0,-0.0,-0.0,-0.0,-0.0,-0.0,-0.0,-0.0,-0.0,-0.0,-0.0,-0.0,-0.0,-0.0,-0.0,-0.0,-0.0,-0.0,-0.0,-0.0,-0.0,-0.0,-0.0,-0.0,-0.0,-0.0,-0.0,-0.0,-0.0,-0.0,-0.0,-0.0,-0.0,-0.0,-0.0,-0.0,-0.0,-0.0,-0.0,-0.0,-0.0,-0.0,-0.0,-0.0,-0.0,0.1649,0.1887,0.1647,0.117,0.2561,0.4009,0.459,0.5073,0.5132,0.5163,0.5117,0.5132,0.5385,0.5517,0.5661,-0.8038,-0.8038,-0.8045,-0.7952,-0.7852,-0.6839,-0.5429,-0.4024,-0.3026,-0.202,-0.1212,-0.101,-0.0707,-0.0,-0.0,-0.0,-0.0,-0.0,-0.0,-0.0,-0.0,-0.0,-0.0,-0.0,-0.0,-0.0,-0.0,-0.0,-0.0,-0.0,-0.0,-0.0,-0.0,-0.0,-0.0,-0.0,-0.0,-0.0,-0.0,-0.0,-0.0,-0.0,-0.0,-0.0,-0.0,-0.0,-0.0,-0.0,-0.0,-0.0,-0.0,-0.0,-0.0,-0.0,-0.0,-0.0,-0.0,-0.0,-0.0,-0.0,-0.0,-0.0,-0.0,-0.0,-0.0,-0.0,-0.0,-0.0,-0.0,-0.0,-0.0,-0.0,-0.0,-0.0,-0.0,-0.0,-0.0,-0.0,-0.0,-0.0,-0.0,-0.0,-0.0,-0.0,-0.0,-0.0,-0.0,-0.0,-0.0,-0.0,-0.0,-0.0,-0.0,-0.0,-0.0,-0.0,-0.0,-0.0,0.0708,0.1578,0.2043,0.2278,0.204,0.2037,0.3276,0.4407,0.5159,0.5584,0.5583,0.5565,0.545,0.5564,0.5661,0.5722,0.58,-0.8038,-0.7942,-0.7952,-0.7959,-0.7756,-0.6539,-0.5238,-0.384,-0.2324,-0.101,-0.0,-0.0,-0.0,-0.0,-0.0,-0.0,-0.0,-0.0,-0.0,-0.0,-0.0,-0.0,-0.0,-0.0,-0.0,-0.0,-0.0,-0.0,-0.0,-0.0,-0.0,-0.0,-0.0,-0.0,-0.0,-0.0,-0.0,-0.0,-0.0,-0.0,-0.0,-0.0,-0.0,-0.0,-0.0,-0.0,-0.0,-0.0,-0.0,-0.0,-0.0,-0.0,-0.0,-0.0,-0.0,-0.0,-0.0,-0.0,-0.0,-0.0,-0.0,-0.0,-0.0,-0.0,-0.0,-0.0,-0.0,-0.0,-0.0,-0.0,-0.0,-0.0,-0.0,-0.0,-0.0,-0.0,-0.0,-0.0,-0.0,-0.0,-0.0,-0.0,-0.0,-0.0,-0.0,-0.0,-0.0,-0.0,-0.0,-0.0,-0.0,-0.0,-0.0,-0.0,-0.0,-0.0,-0.0,-0.0,-0.0,0.1509,0.2054,0.2596,0.2665,0.2896,0.3834,0.4735,0.5439,0.5836,0.5925,0.5905,0.5778,0.5738,0.584,0.5891,0.5962,-0.7846,-0.7646,-0.7862,-0.7563,-0.6648,-0.4939,-0.3835,-0.3232,-0.2122,-0.101,-0.0,-0.0,-0.0,-0.0,-0.0,-0.0,-0.0,-0.0,-0.0,-0.0,-0.0,-0.0,-0.0,-0.0,-0.0,-0.0,-0.0,-0.0,-0.0,-0.0,-0.0,-0.0,-0.0,-0.0,-0.0,-0.0,-0.0,-0.0,-0.0,-0.0,-0.0,-0.0,-0.0,-0.0,-0.0,-0.0,-0.0,-0.0,-0.0,-0.0,-0.0,-0.0,-0.0,-0.0,-0.0,-0.0,-0.0,-0.0,-0.0,-0.0,-0.0,-0.0,-0.0,-0.0,-0.0,-0.0,-0.0,-0.0,-0.0,-0.0,-0.0,-0.0,-0.0,-0.0,-0.0,-0.0,-0.0,-0.0,-0.0,-0.0,-0.0,-0.0,-0.0,-0.0,-0.0,-0.0,-0.0,-0.0,-0.0,-0.0,-0.0,-0.0,-0.0,-0.0,-0.0,-0.0,-0.0,-0.0,-0.0,0.1609,0.233,0.2875,0.3151,0.3754,0.4693,0.5231,0.5748,0.6003,0.6108,0.6156,0.6118,0.6057,0.602,0.6051,0.6088,-0.7344,-0.6939,-0.7459,-0.6759,-0.4939,-0.3327,-0.2725,-0.2929,-0.2022,-0.101,-0.0,-0.0,-0.0,-0.0,-0.0,-0.0,-0.0,-0.0,-0.0,-0.0,-0.0,-0.0,-0.0,-0.0,-0.0,-0.0,-0.0,-0.0,-0.0,-0.0,-0.0,-0.0,-0.0,-0.0,-0.0,-0.0,-0.0,-0.0,-0.0,-0.0,-0.0,-0.0,-0.0,-0.0,-0.0,-0.0,-0.0,-0.0,-0.0,-0.0,-0.0,-0.0,-0.0,-0.0,-0.0,-0.0,-0.0,-0.0,-0.0,-0.0,-0.0,-0.0,-0.0,-0.0,-0.0,-0.0,-0.0,-0.0,-0.0,-0.0,-0.0,-0.0,-0.0,-0.0,-0.0,-0.0,-0.0,-0.0,-0.0,-0.0,-0.0,-0.0,-0.0,-0.0,-0.0,-0.0,-0.0,-0.0,-0.0,-0.0,-0.0,-0.0,-0.0,-0.0,0.0499,0.033,-0.0,-0.0,-0.0,0.1892,0.2623,0.3315,0.3738,0.4565,0.555,0.5854,0.6002,0.6167,0.6227,0.6261,0.6261,0.619,0.6135,0.6149,0.619,-0.6631,-0.5932,-0.6656,-0.5448,-0.3128,-0.2118,-0.2221,-0.2933,-0.2022,-0.101,-0.0,-0.0,-0.0,-0.0,-0.0,-0.0,-0.0,-0.0,-0.0,-0.0,-0.0,-0.0,-0.0,-0.0,-0.0,-0.0,-0.0,-0.0,-0.0,-0.0,-0.0,-0.0,-0.0,-0.0,-0.0,-0.0,-0.0,-0.0,-0.0,-0.0,-0.0,-0.0,-0.0,-0.0,-0.0,-0.0,-0.0,-0.0,-0.0,-0.0,-0.0,-0.0,-0.0,-0.0,-0.0,-0.0,-0.0,-0.0,-0.0,-0.0,-0.0,-0.0,-0.0,-0.0,-0.0,-0.0,-0.0,-0.0,-0.0,-0.0,-0.0,-0.0,-0.0,-0.0,-0.0,-0.0,-0.0,-0.0,-0.0,-0.0,-0.0,-0.0,-0.0,0.0898,0.1436,0.1346,0.0987,0.0628,-0.0,-0.0,-0.0,-0.0,-0.0,0.1025,0.1019,0.0929,0.0844,-0.0,0.1603,0.236,0.3196,0.3872,0.4414,0.5227,0.5944,0.6099,0.6254,0.6261,0.6261,0.6261,0.6261,0.6261,0.6247,0.6234,0.6237,-0.6032,-0.5634,-0.5044,-0.3633,-0.2017,-0.1716,-0.1717,-0.1921,-0.1718,-0.101,-0.0,-0.0,-0.0,-0.0,-0.0,-0.0,-0.0,-0.0,-0.0,-0.0,-0.0,-0.0,-0.0,-0.0,-0.0,-0.0,-0.0,-0.0,-0.0,-0.0,-0.0,-0.0,-0.0,-0.0,-0.0,-0.0,-0.0,-0.0,-0.0,-0.0,-0.0,-0.0,-0.0,-0.0,-0.0,-0.0,-0.0,-0.0,-0.0,-0.0,-0.0,-0.0,-0.0,-0.0,-0.0,-0.0,-0.0,-0.0,-0.0,-0.0,-0.0,-0.0,-0.0,-0.0,-0.0,-0.0,-0.0,-0.0,-0.0,-0.0,-0.0,-0.0,-0.0,-0.0,-0.0,-0.0,-0.0,-0.0,-0.0,-0.0,-0.0,-0.0,-0.0,0.1528,0.2065,0.1974,0.1525,0.1166,0.0807,-0.0,-0.0,-0.0,-0.0,0.1214,0.1383,0.1468,0.1467,0.1639,0.2069,0.2931,0.3789,0.4516,0.5189,0.571,0.6257,0.6261,0.6261,0.6261,0.6261,0.6261,0.6261,0.6261,0.6261,0.6247,0.6251,-0.5434,-0.514,-0.414,-0.2526,-0.111,-0.0909,-0.1111,-0.1514,-0.1102,-0.0601,-0.0,-0.0,-0.0,-0.0,-0.0,-0.0,-0.0,-0.0,-0.0,-0.0,-0.0,-0.0,-0.0,-0.0,-0.0,-0.0,-0.0,-0.0,-0.0,-0.0,-0.0,-0.0,-0.0,-0.0,-0.0,-0.0,-0.0,-0.0,-0.0,-0.0,-0.0,-0.0,-0.0,-0.0,-0.0,-0.0,-0.0,-0.0,-0.0,-0.0,-0.0,-0.0,-0.0,-0.0,-0.0,-0.0,-0.0,-0.0,-0.0,-0.0,-0.0,-0.0,-0.0,-0.0,-0.0,-0.0,-0.0,-0.0,-0.0,-0.0,-0.0,-0.0,-0.0,-0.0,-0.0,-0.0,-0.0,-0.0,-0.0,-0.0,-0.0,-0.0,0.1474,0.192,0.2367,0.2604,0.2155,0.18,0.153,0.1171,0.072,0.0806,0.1417,0.1766,0.1942,0.203,0.2117,0.2292,0.2549,0.3578,0.4499,0.5301,0.5897,0.6172,0.6305,0.6261,0.6261,0.6261,0.6261,0.6261,0.6261,0.6261,0.6261,0.6261,0.6261,-0.4834,-0.4239,-0.3337,-0.1819,-0.0,-0.0,-0.0504,-0.1104,-0.0,-0.0,-0.0,-0.0,-0.0,-0.0,-0.0,-0.0,-0.0,-0.0,-0.0,-0.0,-0.0,-0.0,-0.0,-0.0,-0.0,-0.0,-0.0,-0.0,-0.0,-0.0,-0.0,-0.0,-0.0,-0.0,-0.0,-0.0,-0.0,-0.0,-0.0,-0.0,-0.0,-0.0,-0.0,-0.0,-0.0,-0.0,-0.0,-0.0,-0.0,-0.0,-0.0,-0.0,-0.0,-0.0,-0.0,-0.0,-0.0,-0.0,-0.0,-0.0,-0.0,-0.0,-0.0,-0.0,-0.0,-0.0,-0.0,-0.0,-0.0,-0.0,-0.0,-0.0,-0.0,-0.0,-0.0,-0.0,-0.0,-0.0,-0.0,0.1627,0.1711,0.1701,0.2062,0.2419,0.2766,0.2998,0.2981,0.2622,0.2354,0.1906,0.1545,0.1809,0.242,0.2598,0.2509,0.2592,0.2675,0.2941,0.328,0.4312,0.5224,0.5794,0.6242,0.6321,0.639,0.6332,0.6274,0.6261,0.6261,0.6264,0.6261,0.6261,0.6261,0.6261,0.6261,-0.3627,-0.2222,-0.2022,-0.1111,-0.0,-0.0,-0.01,-0.0,-0.0,-0.0,-0.0,-0.0,-0.0,-0.0,-0.0,-0.0,-0.0,-0.0,-0.0,-0.0,-0.0,-0.0,-0.0,-0.0,-0.0,-0.0,-0.0,-0.0,-0.0,-0.0,-0.0,-0.0,-0.0,-0.0,-0.0,-0.0,-0.0,-0.0,-0.0,-0.0,-0.0,-0.0,-0.0,-0.0,-0.0,-0.0,-0.0,-0.0,-0.0,-0.0,-0.0,-0.0,-0.0,-0.0,-0.0,-0.0,-0.0,-0.0,-0.0,-0.0,-0.0,-0.0,-0.0,-0.0,-0.0,-0.0,-0.0,-0.0,-0.0,-0.0,-0.0,-0.0,-0.0,-0.0,-0.0,-0.0,-0.0,-0.0,-0.0,0.2138,0.2414,0.2685,0.3235,0.3599,0.3969,0.4116,0.4105,0.3824,0.3532,0.2959,0.2388,0.2918,0.3445,0.3329,0.3226,0.3224,0.3309,0.358,0.402,0.496,0.5703,0.6245,0.6531,0.6538,0.6491,0.641,0.6356,0.6305,0.6268,0.6271,0.6264,0.6261,0.6261,0.6268,0.6274]},{"header":{"parameterUnit":"m.s-1","parameterCategory":1,"la1":31.0,"la2":29.5877,"lo1":-88.7671,"lo2":-86.6584,"dy":0.0162,"dx":0.0185,"nx":115,"ny":88,"refTime":"2023-07-16T12:00:00:Z","depth":0,"parameterNumber":3,"parameterNumberName":"V-component_of_WINDS"},"data":[0.0,0.0,0.0,0.0,0.0,0.0,0.0,0.0,0.0,0.0,0.0,0.0,0.0,0.0,0.0,0.0,0.0,0.0,0.0,0.0,0.0,0.0,0.0,0.0,0.0,0.0,0.0,0.0,0.0,0.0,0.0,0.0,0.0,0.0,0.0,0.0,0.0,0.0,0.0,0.0,0.0,0.0,0.0,0.0,0.0,0.0,0.0,0.0,0.0,0.0,0.0,0.0,0.0,0.0,0.0,0.0,0.0,0.0,0.0,0.0,0.0,0.0,0.0,0.0,0.0,0.0,0.0,0.0,0.0,0.0,0.0,0.0,0.0,0.0,0.0,0.0,0.0,0.0,0.0,0.0,0.0,0.0,0.0,0.0,0.0,0.0,0.0,0.0,0.0,0.0,0.0,0.0,0.0,0.0,0.0,0.0,0.0,0.0,0.0,0.0,0.0,0.0,0.0,0.0,0.0,0.0,0.0,0.0,0.0,0.0,0.0,0.0,0.0,0.0,0.0,0.0,0.0,0.0,0.0,0.0,0.0,0.0,0.0,0.0,0.0,0.0,0.0,0.0,0.0,0.0,0.0,0.0,0.0,0.0,0.0,0.0,0.0,0.0,0.0,0.0,0.0,0.0,0.0,0.0,0.0,0.0,0.0,0.0,0.0,0.0,0.0,0.0,0.0,0.0,0.0,0.0,0.0,0.0,0.0,0.0,0.0,0.0,0.0,0.0,0.0,0.0,0.0,0.0,0.0,0.0,0.0,0.0,0.0,0.0,0.0,0.0,0.0,0.0,0.0,0.0,0.0,0.0,0.0,0.0,0.0,0.0,0.0,0.0,0.0,0.0,0.0,0.0,0.0,0.0,0.0,0.0,0.0,0.0,0.0,0.0,0.0,0.0,0.0,0.0,0.0,0.0,0.0,0.0,0.0,0.0,0.0,0.0,0.0,0.0,0.0,0.0,0.0,0.0,0.0,0.0,0.0,0.0,0.0,0.0,0.0,0.0,0.0,0.0,0.0,0.0,0.0,0.0,0.0,0.0,0.0,0.0,0.0,0.0,0.0,0.0,0.0,0.0,0.0,0.0,0.0,0.0,0.0,0.0,0.0,0.0,0.0,0.0,0.0,0.0,0.0,0.0,0.0,0.0,0.0,0.0,0.0,0.0,0.0,0.0,0.0,0.0,0.0,0.0,0.0,0.0,0.0,0.0,0.0,0.0,0.0,0.0,0.0,0.0,0.0,0.0,0.0,0.0,0.0,0.0,0.0,0.0,0.0,0.0,0.0,0.0,0.0,0.0,0.0,0.0,0.0,0.0,0.0,0.0,0.0,0.0,0.0,0.0,0.0,0.0,0.0,0.0,0.0,0.0,0.0,0.0,0.0,0.0,0.0,0.0,0.0,0.0,0.0,0.0,0.0,0.0,0.0,0.0,0.0,0.0,0.0,0.0,0.0,0.0,0.0,0.0,0.0,0.0,0.0,0.0,0.0,0.0,0.0,0.0,0.0,0.0,0.0,0.0,0.0,0.0,0.0,0.0,0.0,0.0,0.0,0.0,0.0,0.0,0.0,0.0,0.0,0.0,0.0,0.0,0.0,0.0,0.0,0.0,0.0,0.0,0.0,0.0,0.0,0.0,0.0,0.0,0.0,0.0,0.0,0.0,0.0,0.0,0.0,0.0,0.0,0.0,0.0,0.0,0.0,0.0,0.0,0.0,0.0,0.0,0.0,0.0,0.0,0.0,0.0,0.0,0.0,0.0,0.0,0.0,0.0,0.0,0.0,0.0,0.0,0.0,0.0,0.0,0.0,0.0,0.0,0.0,0.0,0.0,0.0,0.0,0.0,0.0,0.0,0.0,0.0,0.0,0.0,0.0,0.0,0.0,0.0,0.0,0.0,0.0,0.0,0.0,0.0,0.0,0.0,0.0,0.0,0.0,0.0,0.0,0.0,0.0,0.0,0.0,0.0,0.0,0.0,0.0,0.0,0.0,0.0,0.0,0.0,0.0,0.0,0.0,0.0,0.0,0.0,0.0,0.0,0.0,0.0,0.0,0.0,0.0,0.0,0.0,0.0,0.0,0.0,0.0,0.0,0.0,0.0,0.0,0.0,0.0,0.0,0.0,0.0,0.0,0.0,0.0,0.0,0.0,0.0,0.0,0.0,0.0,0.0,0.0,0.0,0.0,0.0,0.0,0.0,0.0,0.0,0.0,0.0,0.0,0.0,0.0,0.0,0.0,0.0,0.0,0.0,0.0,0.0,0.0,0.0,0.0,0.0,0.0,0.0,0.0,0.0,0.0,0.0,0.0,0.0,0.0,0.0,0.0,0.0,0.0,0.0,0.0,0.0,0.0,0.0,0.0,0.0,0.0,0.0,0.0,0.0,0.0,0.0,0.0,0.0,0.0,0.0,0.0,0.0,0.0,0.0,0.0,0.0,0.0,0.0,0.0,0.0,0.0,0.0,0.0,0.0,0.0,0.0,0.0,0.0,0.0,0.0,0.0,0.0,0.0,0.0,0.0,0.0,0.0,0.0,0.0,0.0,0.0,0.0,0.0,0.0,0.0,0.0,0.0,0.0,0.0,0.0,0.0,0.0,0.0,0.0,0.0,0.0,0.0,0.0,0.0,0.0,0.0,0.0,0.0,0.0,0.0,0.0,0.0,0.0,0.0,0.0,0.0,0.0,0.0,0.0,0.0,0.0,0.0,0.0,0.0,0.0,0.0,0.0,0.0,0.0,0.0,0.0,0.0,0.0,0.0,0.0,0.0,0.0,0.0,0.0,0.0,0.0,0.0,0.0,0.0,0.0,0.0,0.0,0.0,0.0,0.0,0.0,0.0,0.0,0.0,0.0,0.0,0.0,0.0,0.0,0.0,0.0,0.0,0.0,0.0,0.0,0.0,0.0,0.0,0.0,0.0,0.0,0.0,0.0,0.0,0.0,0.0,0.0,0.0,0.0,0.0,0.0,0.0,0.0,0.0,0.0,0.0,0.0,0.0,0.0,0.0,0.0,0.0,0.0,0.0,0.0,0.0,0.0,0.0,0.0,0.0,0.0,0.0,0.0,0.0,0.0,0.0,0.0,0.0,0.0,0.0,0.0,0.0,0.0,0.0,0.0,0.0,0.0,0.0,0.0,0.0,0.0,0.0,0.0,0.0,0.0,0.0,0.0,0.0,0.0,0.0,0.0,0.0,0.0,0.0,0.0,0.0,0.0,0.0,0.0,0.0,0.0,0.0,0.0,0.0,0.0,0.0,0.0,0.0,0.0,0.0,0.0,0.0,0.0,0.0,0.0,0.0,0.0,0.0,0.0,0.0,0.0,0.0,0.0,0.0,0.0,0.0,0.0,0.0,0.0,0.0,0.0,0.0,0.0,0.0,0.0,0.0,0.0,0.0,0.0,0.0,0.0,0.0,0.0,0.0,0.0,0.0,0.0,0.0,0.0,0.0,0.0,0.0,0.0,0.0,0.0,0.0,0.0,0.0,0.0,0.0,0.0,0.0,0.0,0.0,0.0,0.0,0.0,0.0,0.0,0.0,0.0,0.0,0.0,0.0,0.0,0.0,0.0,0.0,0.0,0.0,0.0,0.0,0.0,0.0,0.0,0.0,0.0,0.0,0.0,0.0,0.0,0.0,0.0,0.0,0.0,0.0,0.0,0.0,0.0,0.0,0.0,0.0,0.0,0.0,0.0,0.0,0.0,0.0,0.0,0.0,0.0,0.0,0.0,0.0,0.0,0.0,0.0,0.0,0.0,0.0,0.0,0.0,0.0,0.0,0.0,0.0,0.0,0.0,0.0,0.0,0.0,0.0,0.0,0.0,0.0,0.0,0.0,0.0,0.0,0.0,0.0,0.0,0.0,0.0,0.0,0.0,0.0,0.0,0.0,0.0,0.0,0.0,0.0,0.0,0.0,0.0,0.0,0.0,0.0,0.0,0.0,0.0,0.0,0.0,0.0,0.0,0.0,0.0,0.0,0.0,0.0,0.0,0.0,0.0,0.0,0.0,0.0,0.0,0.0,0.0,0.0,0.0,0.0,0.0,0.0,0.0,0.0,0.0,0.0,0.0,0.0,0.0,0.0,0.0,0.0,0.0,0.0,0.0,0.0,0.0,0.0,0.0,0.0,0.0,0.0,0.0,0.0,0.0,0.0,0.0,0.0,0.0,0.0,0.0,0.0,0.0,0.0,0.0,0.0,0.0,0.0,0.0,0.0,0.0,0.0,0.0,0.0,0.0,0.0,0.0,0.0,0.0,0.0,0.0,0.0,0.0,0.0,0.0,-0.9312,0.0,0.0,0.0,0.0,0.0,0.0,0.0,0.0,0.0,0.0,0.0,0.0,0.0,0.0,0.0,0.0,0.0,0.0,0.0,0.0,0.0,0.0,0.0,0.0,0.0,0.0,0.0,0.0,0.0,0.0,0.0,0.0,0.0,0.0,0.0,0.0,0.0,0.0,0.0,0.0,0.0,0.0,0.0,0.0,0.0,0.0,0.0,0.0,0.0,0.0,0.0,0.0,0.0,0.0,0.0,0.0,0.0,0.0,0.0,0.0,0.0,0.0,0.0,0.0,0.0,0.0,0.0,0.0,0.0,0.0,0.0,0.0,0.0,0.0,0.0,0.0,0.0,0.0,0.0,0.0,0.0,0.0,0.0,0.0,0.0,0.0,0.0,0.0,0.0,0.0,0.0,0.0,0.0,0.0,0.0,0.0,0.0,0.0,0.0,0.0,0.0,0.0,0.0,0.0,0.0,0.0,0.0,0.0,0.0,0.0,-0.9628,-0.9554,-0.9493,-0.943,-0.942,0.0,0.0,0.0,0.0,0.0,0.0,0.0,0.0,0.0,0.0,0.0,0.0,0.0,0.0,0.0,0.0,0.0,0.0,0.0,0.0,0.0,0.0,0.0,0.0,0.0,0.0,0.0,0.0,0.0,0.0,0.0,0.0,0.0,0.0,0.0,0.0,0.0,0.0,0.0,0.0,0.0,0.0,0.0,0.0,0.0,0.0,0.0,0.0,0.0,0.0,0.0,0.0,0.0,0.0,0.0,0.0,0.0,0.0,0.0,0.0,0.0,0.0,0.0,0.0,0.0,0.0,0.0,0.0,0.0,0.0,0.0,0.0,0.0,0.0,0.0,0.0,0.0,0.0,0.0,0.0,0.0,0.0,0.0,0.0,0.0,0.0,0.0,0.0,0.0,0.0,0.0,0.0,0.0,0.0,0.0,0.0,0.0,0.0,0.0,0.0,0.0,0.0,0.0,0.0,0.0,0.0,0.0,0.0,0.0,0.0,0.0,0.0,-0.957,-0.9519,-0.9493,0.0,0.0,0.0,0.0,0.0,0.0,0.0,0.0,0.0,0.0,0.0,0.0,0.0,0.0,0.0,0.0,0.0,0.0,0.0,0.0,0.0,0.0,0.0,0.0,0.0,0.0,0.0,0.0,0.0,0.0,0.0,0.0,0.0,0.0,0.0,0.0,0.0,0.0,0.0,0.0,0.0,0.0,0.0,0.0,0.0,0.0,0.0,0.0,0.0,0.0,0.0,0.0,0.0,0.0,0.0,0.0,0.0,0.0,0.0,0.0,0.0,0.0,0.0,0.0,0.0,0.0,0.0,0.0,0.0,0.0,0.0,0.0,0.0,0.0,0.0,0.0,0.0,0.0,0.0,0.0,0.0,0.0,0.0,0.0,0.0,0.0,0.0,0.0,0.0,0.0,0.0,0.0,0.0,0.0,0.0,0.0,0.0,0.0,0.0,0.0,0.0,0.0,0.0,0.0,0.0,0.0,0.0,0.0,0.0,0.0,-0.9766,-0.9695,-0.9687,0.0,-0.9508,0.0,0.0,0.0,0.0,0.0,0.0,0.0,0.0,0.0,0.0,0.0,0.0,0.0,0.0,0.0,0.0,0.0,0.0,0.0,0.0,0.0,0.0,0.0,0.0,0.0,0.0,0.0,0.0,0.0,0.0,0.0,0.0,0.0,0.0,0.0,0.0,0.0,0.0,0.0,0.0,0.0,0.0,0.0,0.0,0.0,0.0,0.0,0.0,0.0,0.0,0.0,0.0,0.0,0.0,0.0,0.0,0.0,0.0,0.0,0.0,0.0,0.0,0.0,0.0,0.0,0.0,0.0,0.0,0.0,0.0,0.0,0.0,0.0,0.0,0.0,0.0,0.0,0.0,0.0,0.0,0.0,0.0,0.0,0.0,0.0,0.0,0.0,0.0,0.0,0.0,0.0,0.0,0.0,0.0,0.0,0.0,0.0,0.0,0.0,0.0,0.0,0.0,0.0,0.0,0.0,0.0,0.0,0.0,0.0,0.0,-0.9844,-0.98,-0.9775,-0.9695,0.0,0.0,0.0,0.0,0.0,0.0,0.0,0.0,0.0,0.0,0.0,0.0,0.0,0.0,0.0,0.0,0.0,0.0,0.0,0.0,0.0,0.0,0.0,0.0,0.0,0.0,0.0,0.0,0.0,0.0,0.0,0.0,0.0,0.0,0.0,0.0,0.0,0.0,0.0,0.0,0.0,0.0,0.0,0.0,0.0,0.0,0.0,0.0,0.0,0.0,0.0,0.0,0.0,0.0,0.0,0.0,0.0,0.0,0.0,0.0,0.0,0.0,0.0,0.0,0.0,0.0,0.0,0.0,0.0,0.0,0.0,0.0,0.0,0.0,0.0,0.0,0.0,0.0,0.0,0.0,0.0,0.0,0.0,0.0,0.0,0.0,0.0,0.0,0.0,0.0,0.0,0.0,0.0,0.0,0.0,0.0,0.0,0.0,0.0,0.0,0.0,0.0,0.0,0.0,0.0,0.0,0.0,0.0,0.0,0.0,-0.9971,-0.9946,-0.9899,-0.9862,-0.9805,-0.9776,0.0,0.0,0.0,0.0,0.0,0.0,0.0,0.0,0.0,0.0,0.0,0.0,0.0,0.0,0.0,0.0,0.0,0.0,0.0,0.0,0.0,0.0,0.0,0.0,0.0,0.0,0.0,0.0,0.0,0.0,0.0,0.0,0.0,0.0,0.0,0.0,0.0,0.0,0.0,0.0,0.0,0.0,0.0,0.0,0.0,0.0,0.0,0.0,0.0,0.0,0.0,0.0,0.0,0.0,0.0,0.0,0.0,0.0,0.0,0.0,0.0,0.0,0.0,0.0,0.0,0.0,0.0,0.0,0.0,0.0,0.0,0.0,0.0,0.0,0.0,0.0,0.0,0.0,0.0,0.0,0.0,0.0,0.0,0.0,0.0,0.0,0.0,0.0,0.0,0.0,0.0,0.0,0.0,0.0,0.0,0.0,0.0,0.0,0.0,0.0,0.0,0.0,0.0,0.0,0.0,0.0,0.0,0.0,-1.0093,-1.0076,-1.003,-0.9897,-0.9888,-0.9881,0.0,0.0,0.0,0.0,0.0,0.0,0.0,0.0,0.0,0.0,0.0,0.0,0.0,0.0,0.0,0.0,0.0,0.0,0.0,0.0,0.0,0.0,0.0,0.0,0.0,0.0,0.0,0.0,0.0,0.0,0.0,0.0,0.0,0.0,0.0,0.0,0.0,0.0,0.0,0.0,0.0,0.0,0.0,0.0,0.0,0.0,0.0,0.0,0.0,0.0,0.0,0.0,0.0,0.0,0.0,0.0,0.0,0.0,0.0,0.0,0.0,0.0,0.0,0.0,0.0,0.0,0.0,0.0,0.0,0.0,0.0,0.0,0.0,0.0,0.0,0.0,0.0,0.0,0.0,0.0,0.0,0.0,0.0,0.0,0.0,0.0,0.0,0.0,0.0,0.0,0.0,0.0,0.0,0.0,0.0,0.0,0.0,0.0,0.0,0.0,0.0,0.0,0.0,0.0,0.0,0.0,0.0,0.0,0.0,-1.0171,-1.0116,-1.0054,-0.9962,-0.9971,-0.9962,0.0,0.0,0.0,0.0,0.0,0.0,0.0,0.0,0.0,0.0,0.0,0.0,0.0,0.0,0.0,0.0,0.0,0.0,0.0,0.0,0.0,0.0,0.0,0.0,0.0,0.0,0.0,0.0,0.0,0.0,0.0,0.0,0.0,0.0,0.0,0.0,0.0,0.0,0.0,0.0,0.0,0.0,0.0,0.0,0.0,0.0,0.0,0.0,0.0,0.0,0.0,0.0,0.0,0.0,0.0,0.0,0.0,0.0,0.0,0.0,0.0,0.0,0.0,0.0,0.0,0.0,0.0,0.0,0.0,0.0,0.0,0.0,0.0,0.0,0.0,0.0,0.0,0.0,0.0,0.0,0.0,0.0,0.0,0.0,0.0,0.0,0.0,0.0,0.0,0.0,0.0,0.0,0.0,0.0,0.0,0.0,0.0,0.0,0.0,0.0,0.0,0.0,0.0,0.0,0.0,0.0,0.0,0.0,0.0,-1.0203,0.0,-1.0093,-1.0034,-1.0039,-1.0017,0.0,0.0,0.0,0.0,0.0,0.0,0.0,0.0,0.0,0.0,0.0,0.0,0.0,0.0,0.0,0.0,0.0,0.0,0.0,0.0,0.0,0.0,0.0,0.0,0.0,0.0,0.0,0.0,0.0,0.0,0.0,0.0,0.0,0.0,0.0,0.0,0.0,0.0,0.0,0.0,0.0,0.0,0.0,0.0,0.0,0.0,0.0,0.0,0.0,0.0,0.0,0.0,0.0,0.0,0.0,0.0,0.0,0.0,0.0,0.0,0.0,0.0,0.0,0.0,0.0,0.0,0.0,0.0,0.0,0.0,0.0,0.0,0.0,0.0,0.0,0.0,0.0,0.0,0.0,0.0,0.0,0.0,0.0,0.0,0.0,0.0,0.0,0.0,0.0,0.0,0.0,0.0,0.0,0.0,0.0,0.0,0.0,0.0,0.0,0.0,0.0,0.0,0.0,0.0,0.0,0.0,0.0,0.0,-1.0219,-1.023,-1.0231,-1.0255,-1.014,-1.0206,-1.013,0.0,0.0,0.0,0.0,0.0,0.0,0.0,0.0,0.0,0.0,0.0,0.0,0.0,0.0,0.0,0.0,0.0,0.0,0.0,0.0,0.0,0.0,0.0,0.0,0.0,0.0,0.0,0.0,0.0,0.0,0.0,0.0,0.0,0.0,0.0,0.0,0.0,0.0,0.0,0.0,0.0,0.0,0.0,0.0,0.0,0.0,0.0,0.0,0.0,0.0,0.0,0.0,0.0,0.0,0.0,0.0,0.0,0.0,0.0,0.0,0.0,0.0,0.0,0.0,0.0,0.0,0.0,0.0,0.0,0.0,0.0,0.0,0.0,0.0,0.0,0.0,0.0,0.0,0.0,0.0,0.0,0.0,0.0,0.0,0.0,0.0,0.0,0.0,0.0,0.0,0.0,0.0,0.0,0.0,0.0,0.0,0.0,0.0,0.0,0.0,0.0,0.0,0.0,0.0,0.0,0.0,0.0,0.0,0.0,-1.1094,-1.1056,-1.1308,-1.1848,-1.1853,-1.1805,0.0,0.0,0.0,0.0,0.0,0.0,0.0,0.0,0.0,0.0,0.0,0.0,0.0,0.0,0.0,0.0,0.0,0.0,0.0,0.0,0.0,0.0,0.0,0.0,0.0,0.0,0.0,0.0,0.0,0.0,0.0,0.0,0.0,0.0,0.0,0.0,0.0,0.0,0.0,0.0,0.0,0.0,0.0,0.0,0.0,0.0,0.0,0.0,0.0,0.0,0.0,0.0,0.0,0.0,0.0,0.0,0.0,0.0,0.0,0.0,0.0,0.0,0.0,0.0,0.0,0.0,0.0,0.0,0.0,0.0,0.0,0.0,0.0,0.0,0.0,0.0,0.0,0.0,0.0,0.0,0.0,0.0,0.0,0.0,0.0,0.0,0.0,0.0,0.0,0.0,0.0,0.0,0.0,0.0,0.0,0.0,0.0,0.0,0.0,0.0,0.0,0.0,0.0,0.0,0.0,0.0,0.0,0.0,0.0,-1.2862,-1.2556,-1.2444,-1.2661,-1.2921,-1.2926,-1.2598,0.0,0.0,0.0,0.0,0.0,0.0,0.0,0.0,0.0,0.0,0.0,0.0,0.0,0.0,0.0,0.0,0.0,0.0,0.0,0.0,0.0,0.0,0.0,0.0,0.0,0.0,0.0,0.0,0.0,0.0,0.0,0.0,0.0,0.0,0.0,0.0,0.0,0.0,0.0,0.0,0.0,0.0,0.0,0.0,0.0,0.0,0.0,0.0,0.0,0.0,0.0,0.0,0.0,0.0,0.0,0.0,0.0,0.0,0.0,0.0,0.0,0.0,0.0,0.0,0.0,0.0,0.0,0.0,0.0,0.0,0.0,0.0,0.0,0.0,0.0,0.0,0.0,0.0,0.0,0.0,0.0,0.0,0.0,0.0,0.0,0.0,0.0,0.0,0.0,0.0,0.0,0.0,0.0,0.0,0.0,0.0,0.0,0.0,0.0,0.0,0.0,0.0,0.0,0.0,0.0,0.0,0.0,0.0,-1.5335,-1.4706,-1.3932,-1.2993,-1.367,-1.3665,0.0,0.0,0.0,0.0,0.0,0.0,0.0,0.0,0.0,0.0,0.0,0.0,0.0,0.0,0.0,0.0,0.0,0.0,0.0,0.0,0.0,0.0,0.0,0.0,0.0,0.0,0.0,0.0,0.0,0.0,0.0,0.0,0.0,0.0,0.0,0.0,0.0,0.0,0.0,0.0,0.0,0.0,0.0,0.0,0.0,0.0,0.0,0.0,0.0,0.0,0.0,0.0,0.0,0.0,0.0,0.0,0.0,0.0,0.0,0.0,0.0,0.0,0.0,0.0,0.0,0.0,0.0,0.0,0.0,0.0,0.0,0.0,0.0,0.0,0.0,0.0,0.0,0.0,0.0,0.0,0.0,0.0,0.0,0.0,0.0,0.0,0.0,0.0,0.0,0.0,0.0,0.0,0.0,0.0,0.0,0.0,0.0,0.0,0.0,0.0,0.0,0.0,0.0,0.0,0.0,0.0,0.0,0.0,0.0,-1.6169,-1.7788,-1.792,-1.6429,-1.5913,-1.5594,0.0,0.0,0.0,0.0,0.0,0.0,0.0,0.0,0.0,0.0,0.0,0.0,0.0,0.0,0.0,0.0,0.0,0.0,0.0,0.0,0.0,0.0,0.0,0.0,0.0,0.0,0.0,0.0,0.0,0.0,0.0,0.0,0.0,0.0,0.0,0.0,0.0,0.0,0.0,0.0,0.0,0.0,0.0,0.0,0.0,0.0,0.0,0.0,0.0,0.0,0.0,0.0,0.0,0.0,0.0,0.0,0.0,0.0,0.0,0.0,0.0,0.0,0.0,0.0,0.0,0.0,0.0,0.0,0.0,0.0,0.0,0.0,0.0,0.0,0.0,0.0,0.0,0.0,0.0,0.0,0.0,0.0,0.0,0.0,0.0,0.0,0.0,0.0,0.0,0.0,0.0,0.0,0.0,0.0,0.0,0.0,0.0,0.0,0.0,0.0,0.0,0.0,0.0,0.0,0.0,0.0,0.0,0.0,-1.6081,-1.7555,-1.9336,-1.9934,-1.9303,-1.8423,-1.747,0.0,0.0,0.0,0.0,0.0,0.0,0.0,0.0,0.0,0.0,0.0,0.0,0.0,0.0,0.0,0.0,0.0,0.0,0.0,0.0,0.0,0.0,0.0,0.0,0.0,0.0,0.0,0.0,0.0,0.0,0.0,0.0,0.0,0.0,0.0,0.0,0.0,0.0,0.0,0.0,0.0,0.0,0.0,0.0,0.0,0.0,0.0,0.0,0.0,0.0,0.0,0.0,0.0,0.0,0.0,0.0,0.0,0.0,0.0,0.0,0.0,0.0,0.0,0.0,0.0,0.0,0.0,0.0,0.0,0.0,0.0,0.0,0.0,0.0,0.0,0.0,0.0,0.0,0.0,0.0,0.0,0.0,0.0,0.0,0.0,0.0,0.0,0.0,0.0,0.0,0.0,0.0,0.0,0.0,0.0,0.0,0.0,0.0,0.0,0.0,0.0,0.0,0.0,0.0,0.0,0.0,0.0,0.0,-1.6751,-1.9172,-2.0057,-2.0886,-2.1713,-2.0757,-1.9082,0.0,0.0,0.0,0.0,0.0,0.0,0.0,0.0,0.0,0.0,0.0,0.0,0.0,0.0,0.0,0.0,0.0,0.0,0.0,0.0,0.0,0.0,0.0,0.0,0.0,0.0,0.0,0.0,0.0,0.0,0.0,0.0,0.0,0.0,0.0,0.0,0.0,0.0,0.0,0.0,0.0,0.0,0.0,0.0,0.0,0.0,0.0,0.0,0.0,0.0,0.0,0.0,0.0,0.0,0.0,0.0,0.0,0.0,0.0,0.0,0.0,0.0,0.0,0.0,0.0,0.0,0.0,0.0,0.0,0.0,0.0,0.0,0.0,0.0,0.0,0.0,0.0,0.0,0.0,0.0,0.0,0.0,0.0,0.0,0.0,0.0,0.0,0.0,0.0,0.0,0.0,0.0,0.0,0.0,0.0,0.0,0.0,0.0,0.0,0.0,0.0,0.0,0.0,0.0,0.0,0.0,0.0,0.0,-1.8259,-2.0094,-2.1524,-2.267,-2.3525,-2.1378,-1.9353,0.0,0.0,0.0,0.0,0.0,0.0,0.0,0.0,0.0,0.0,0.0,0.0,0.0,0.0,0.0,0.0,0.0,0.0,0.0,0.0,0.0,0.0,0.0,0.0,0.0,0.0,0.0,0.0,0.0,0.0,0.0,0.0,0.0,0.0,0.0,0.0,0.0,0.0,0.0,0.0,0.0,0.0,0.0,0.0,0.0,0.0,0.0,0.0,-1.2261,0.0,0.0,0.0,0.0,0.0,0.0,0.0,0.0,0.0,0.0,0.0,0.0,0.0,0.0,0.0,0.0,0.0,0.0,0.0,0.0,0.0,0.0,0.0,0.0,0.0,0.0,0.0,0.0,0.0,0.0,0.0,0.0,0.0,0.0,0.0,0.0,0.0,0.0,0.0,0.0,0.0,0.0,0.0,0.0,0.0,0.0,0.0,0.0,0.0,0.0,0.0,0.0,0.0,0.0,0.0,0.0,0.0,0.0,0.0,-1.8508,-1.9789,-2.1401,-2.2438,-2.2795,-2.155,-2.0265,0.0,0.0,0.0,0.0,0.0,0.0,0.0,0.0,0.0,0.0,0.0,0.0,0.0,0.0,0.0,0.0,0.0,0.0,0.0,0.0,0.0,0.0,0.0,0.0,0.0,0.0,0.0,0.0,0.0,0.0,0.0,0.0,0.0,0.0,0.0,0.0,0.0,0.0,0.0,0.0,0.0,0.0,0.0,0.0,0.0,0.0,0.0,0.0,0.0,0.0,0.0,0.0,0.0,0.0,0.0,0.0,0.0,0.0,0.0,0.0,0.0,0.0,0.0,0.0,0.0,0.0,0.0,0.0,0.0,0.0,0.0,0.0,0.0,0.0,0.0,0.0,0.0,0.0,0.0,0.0,0.0,0.0,0.0,0.0,0.0,0.0,0.0,0.0,0.0,0.0,0.0,0.0,0.0,0.0,0.0,0.0,0.0,0.0,0.0,0.0,0.0,0.0,0.0,0.0,0.0,0.0,0.0,-1.7042,-1.8276,-1.9101,-2.0738,-2.1617,-2.1699,-2.163,-2.1251,-2.0518,0.0,0.0,0.0,0.0,0.0,0.0,0.0,0.0,0.0,0.0,0.0,0.0,0.0,0.0,0.0,0.0,0.0,0.0,0.0,0.0,0.0,0.0,0.0,0.0,0.0,0.0,0.0,0.0,0.0,0.0,0.0,0.0,0.0,0.0,0.0,0.0,0.0,0.0,-1.3001,-1.3752,0.0,0.0,0.0,0.0,0.0,0.0,0.0,0.0,-1.386,0.0,0.0,0.0,0.0,0.0,0.0,0.0,0.0,0.0,0.0,0.0,0.0,0.0,0.0,0.0,0.0,0.0,0.0,0.0,0.0,0.0,0.0,0.0,0.0,0.0,0.0,0.0,0.0,0.0,0.0,0.0,0.0,0.0,0.0,0.0,0.0,0.0,0.0,0.0,0.0,0.0,0.0,0.0,0.0,0.0,0.0,0.0,0.0,0.0,0.0,0.0,0.0,0.0,0.0,0.0,0.0,-1.5413,-1.7006,-1.823,-1.9082,-2.0684,-2.1848,-2.2535,-2.1945,-2.1533,-2.1305,0.0,0.0,0.0,0.0,0.0,0.0,0.0,0.0,0.0,0.0,0.0,0.0,0.0,0.0,0.0,0.0,0.0,0.0,0.0,0.0,0.0,0.0,0.0,0.0,0.0,0.0,0.0,0.0,0.0,0.0,0.0,0.0,0.0,0.0,0.0,0.0,0.0,0.0,0.0,-1.4632,-1.5233,0.0,0.0,0.0,0.0,0.0,0.0,0.0,0.0,-1.5151,0.0,0.0,0.0,0.0,0.0,0.0,0.0,0.0,0.0,0.0,0.0,0.0,0.0,0.0,0.0,0.0,0.0,0.0,0.0,0.0,0.0,0.0,0.0,0.0,0.0,0.0,0.0,0.0,0.0,0.0,0.0,0.0,0.0,0.0,0.0,0.0,0.0,0.0,0.0,0.0,0.0,0.0,0.0,0.0,0.0,0.0,0.0,0.0,0.0,0.0,0.0,0.0,0.0,0.0,0.0,-1.543,-1.6982,-1.8009,-1.8467,-2.0034,-2.1078,-2.1471,-2.1123,-2.095,0.0,0.0,0.0,0.0,0.0,0.0,0.0,0.0,0.0,0.0,0.0,0.0,0.0,0.0,0.0,0.0,0.0,0.0,0.0,0.0,0.0,0.0,0.0,0.0,0.0,0.0,0.0,0.0,0.0,0.0,0.0,0.0,0.0,0.0,0.0,0.0,0.0,0.0,0.0,0.0,-1.5132,-1.5407,-1.5407,0.0,0.0,0.0,0.0,0.0,0.0,-1.6455,-1.6596,0.0,0.0,0.0,0.0,0.0,0.0,0.0,0.0,0.0,0.0,0.0,0.0,0.0,0.0,0.0,0.0,0.0,0.0,0.0,0.0,0.0,0.0,0.0,0.0,0.0,0.0,0.0,0.0,0.0,0.0,0.0,0.0,0.0,0.0,0.0,0.0,0.0,0.0,0.0,0.0,0.0,0.0,0.0,0.0,0.0,0.0,0.0,0.0,0.0,0.0,0.0,0.0,0.0,0.0,0.0,-1.5889,-1.7291,-1.8049,-1.8108,-1.9519,-2.0289,-2.0294,-2.0301,-2.032,0.0,0.0,0.0,0.0,0.0,0.0,0.0,0.0,0.0,0.0,0.0,0.0,0.0,0.0,0.0,0.0,0.0,0.0,0.0,0.0,0.0,0.0,0.0,0.0,0.0,0.0,0.0,0.0,0.0,0.0,0.0,0.0,0.0,0.0,0.0,0.0,0.0,0.0,0.0,0.0,0.0,-1.5676,-1.5656,-1.5658,0.0,0.0,0.0,0.0,-1.6934,-1.7548,0.0,0.0,0.0,0.0,0.0,0.0,0.0,0.0,0.0,0.0,0.0,0.0,0.0,0.0,0.0,0.0,0.0,0.0,0.0,0.0,0.0,0.0,0.0,0.0,0.0,0.0,0.0,0.0,0.0,0.0,0.0,0.0,0.0,0.0,0.0,0.0,0.0,0.0,0.0,0.0,0.0,0.0,0.0,0.0,0.0,0.0,0.0,0.0,0.0,0.0,0.0,0.0,0.0,0.0,0.0,0.0,-1.7641,-1.8484,-1.8924,-1.8918,-1.9795,-2.0289,-2.0294,-2.0295,-2.0334,0.0,0.0,0.0,0.0,0.0,0.0,0.0,0.0,0.0,0.0,0.0,0.0,0.0,0.0,0.0,0.0,0.0,0.0,0.0,0.0,0.0,0.0,0.0,0.0,0.0,0.0,0.0,0.0,0.0,0.0,0.0,0.0,0.0,0.0,0.0,0.0,0.0,0.0,0.0,0.0,0.0,-1.6553,-1.6557,-1.6543,-1.6818,0.0,0.0,-1.6974,-1.7712,-1.7935,0.0,0.0,0.0,0.0,0.0,0.0,0.0,0.0,0.0,0.0,0.0,0.0,0.0,0.0,0.0,0.0,0.0,0.0,0.0,0.0,0.0,0.0,0.0,0.0,0.0,0.0,0.0,0.0,0.0,0.0,0.0,0.0,0.0,0.0,0.0,0.0,0.0,0.0,0.0,0.0,0.0,0.0,0.0,0.0,0.0,0.0,0.0,0.0,0.0,0.0,0.0,0.0,0.0,0.0,0.0,-1.7887,-1.7868,-1.8627,-1.9046,-1.9021,-1.9846,-2.03,-2.0296,-2.0294,-2.0321,0.0,0.0,0.0,0.0,0.0,0.0,0.0,0.0,0.0,0.0,0.0,0.0,0.0,0.0,0.0,0.0,0.0,0.0,0.0,0.0,0.0,0.0,0.0,0.0,0.0,0.0,0.0,0.0,0.0,0.0,0.0,0.0,0.0,0.0,0.0,0.0,0.0,0.0,0.0,0.0,0.0,0.0,-1.6694,-1.7129,0.0,0.0,0.0,-1.8305,-1.8677,0.0,0.0,0.0,0.0,0.0,0.0,0.0,0.0,0.0,0.0,0.0,0.0,0.0,0.0,0.0,0.0,0.0,0.0,0.0,0.0,0.0,0.0,0.0,0.0,0.0,0.0,0.0,0.0,0.0,0.0,0.0,0.0,0.0,0.0,0.0,0.0,0.0,0.0,0.0,0.0,0.0,0.0,0.0,0.0,0.0,0.0,0.0,0.0,0.0,0.0,0.0,0.0,0.0,0.0,0.0,0.0,0.0,-1.8446,-1.9021,-1.9323,-1.934,-2.0165,-2.0592,-2.0631,-2.0839,0.0,0.0,0.0,0.0,0.0,0.0,0.0,0.0,0.0,0.0,0.0,0.0,0.0,0.0,0.0,0.0,0.0,0.0,0.0,0.0,0.0,0.0,0.0,0.0,0.0,0.0,0.0,-1.1929,0.0,0.0,0.0,0.0,0.0,0.0,0.0,0.0,0.0,0.0,0.0,0.0,0.0,0.0,-1.7097,-1.7318,-1.7909,-1.8404,0.0,0.0,-1.9362,-1.9579,-2.0169,-2.0386,0.0,0.0,0.0,0.0,0.0,0.0,0.0,0.0,0.0,0.0,0.0,0.0,0.0,0.0,0.0,0.0,0.0,0.0,0.0,0.0,0.0,0.0,0.0,0.0,0.0,0.0,0.0,0.0,0.0,0.0,0.0,0.0,0.0,0.0,0.0,0.0,0.0,0.0,0.0,0.0,0.0,0.0,0.0,0.0,0.0,0.0,0.0,0.0,0.0,0.0,0.0,0.0,0.0,0.0,0.0,-2.0244,-2.0218,-2.0241,-2.0235,-2.1004,-2.1457,-2.1537,-2.2292,-2.2364,0.0,0.0,0.0,0.0,0.0,0.0,0.0,0.0,0.0,0.0,0.0,0.0,0.0,0.0,0.0,0.0,0.0,0.0,0.0,0.0,0.0,0.0,0.0,0.0,0.0,0.0,0.0,0.0,0.0,0.0,0.0,0.0,0.0,0.0,0.0,0.0,0.0,0.0,0.0,0.0,0.0,-1.8206,-1.9012,-1.9179,-1.9498,0.0,0.0,-1.9579,-2.0399,-2.0555,-2.0557,-2.0522,0.0,0.0,0.0,0.0,0.0,0.0,0.0,0.0,0.0,0.0,0.0,0.0,0.0,0.0,0.0,0.0,0.0,0.0,0.0,0.0,0.0,0.0,0.0,0.0,0.0,0.0,0.0,0.0,0.0,0.0,0.0,0.0,0.0,0.0,0.0,0.0,0.0,0.0,0.0,0.0,0.0,0.0,0.0,0.0,0.0,0.0,0.0,0.0,0.0,0.0,0.0,0.0,0.0,-2.1217,-2.1153,-2.164,-2.1887,-2.1833,-2.2136,-2.2314,-2.2345,-2.2684,-2.2713,0.0,0.0,0.0,0.0,0.0,0.0,0.0,0.0,0.0,0.0,0.0,0.0,0.0,0.0,0.0,0.0,0.0,0.0,0.0,0.0,0.0,0.0,0.0,0.0,0.0,0.0,0.0,0.0,-1.4579,-1.5015,-1.5371,0.0,0.0,0.0,0.0,0.0,0.0,0.0,0.0,0.0,0.0,-1.8927,-1.927,-1.9754,0.0,0.0,-2.0307,-2.0223,-2.0554,-2.0597,-2.0598,-2.0597,-1.989,0.0,0.0,0.0,0.0,0.0,0.0,0.0,0.0,0.0,0.0,0.0,0.0,0.0,0.0,0.0,0.0,0.0,0.0,0.0,0.0,0.0,0.0,0.0,0.0,0.0,0.0,0.0,0.0,0.0,0.0,0.0,0.0,0.0,0.0,0.0,0.0,0.0,0.0,0.0,0.0,0.0,0.0,0.0,0.0,0.0,0.0,0.0,0.0,0.0,0.0,0.0,0.0,-2.1675,-2.161,-2.2458,-2.286,-2.2805,-2.306,-2.3179,-2.3189,-2.3447,-2.3491,0.0,0.0,0.0,0.0,0.0,0.0,0.0,0.0,0.0,0.0,0.0,0.0,0.0,0.0,0.0,0.0,0.0,0.0,0.0,0.0,0.0,0.0,0.0,0.0,0.0,0.0,0.0,0.0,-1.5191,-1.5409,-1.5408,0.0,0.0,0.0,0.0,0.0,0.0,0.0,0.0,0.0,0.0,-1.9383,-1.9669,-2.0205,-2.0602,-2.0605,-2.0601,-2.0596,-2.0594,-2.0597,-2.0598,-2.0594,0.0,0.0,0.0,0.0,0.0,0.0,0.0,0.0,0.0,0.0,0.0,0.0,0.0,0.0,0.0,0.0,0.0,0.0,0.0,0.0,0.0,0.0,0.0,0.0,0.0,0.0,0.0,0.0,0.0,0.0,-1.7903,0.0,0.0,0.0,0.0,0.0,0.0,0.0,0.0,0.0,0.0,0.0,0.0,0.0,0.0,0.0,0.0,0.0,0.0,0.0,0.0,0.0,0.0,-2.1694,-2.1636,-2.2535,-2.2921,-2.2859,-2.3629,-2.4072,-2.4101,-2.488,-2.4928,-2.4063,0.0,0.0,0.0,0.0,0.0,0.0,0.0,0.0,0.0,0.0,0.0,0.0,0.0,0.0,0.0,0.0,0.0,0.0,0.0,0.0,0.0,0.0,0.0,0.0,0.0,0.0,-1.6621,-1.5918,-1.5468,0.0,0.0,0.0,0.0,0.0,0.0,0.0,0.0,0.0,0.0,-1.9227,-1.963,-2.0437,-2.0597,-2.0639,-2.0621,-2.0621,-2.0619,-2.0633,-2.0612,-2.0594,0.0,0.0,0.0,0.0,0.0,0.0,0.0,0.0,0.0,0.0,0.0,0.0,0.0,0.0,0.0,0.0,0.0,0.0,0.0,0.0,0.0,0.0,0.0,0.0,0.0,0.0,0.0,-1.9047,-1.9491,0.0,0.0,0.0,0.0,0.0,0.0,0.0,0.0,0.0,0.0,0.0,-2.2043,-2.2069,0.0,0.0,0.0,0.0,0.0,0.0,0.0,0.0,0.0,0.0,0.0,0.0,-2.2804,-2.3325,-2.4157,-2.454,-2.4466,-2.4755,-2.4899,-2.4889,-2.5197,-2.4957,-2.414,0.0,0.0,0.0,0.0,0.0,0.0,0.0,0.0,0.0,0.0,0.0,0.0,0.0,0.0,0.0,0.0,0.0,0.0,0.0,0.0,0.0,0.0,0.0,0.0,0.0,-1.7559,0.0,0.0,0.0,0.0,0.0,0.0,0.0,0.0,0.0,0.0,0.0,-1.8932,-1.9229,-1.978,-2.0274,-2.0554,-2.1082,-2.1473,0.0,0.0,0.0,0.0,0.0,0.0,0.0,0.0,0.0,0.0,0.0,0.0,0.0,0.0,-2.0857,-1.9163,-1.8805,-1.8938,-1.952,0.0,0.0,0.0,0.0,0.0,0.0,0.0,0.0,0.0,0.0,0.0,0.0,0.0,0.0,-2.0801,0.0,-2.0718,0.0,0.0,0.0,0.0,0.0,0.0,0.0,0.0,-2.3126,-2.3686,-2.4208,-2.3922,-2.3933,0.0,-2.3608,-2.2785,0.0,0.0,0.0,0.0,0.0,0.0,0.0,0.0,-2.3702,-2.4215,-2.4988,-2.536,-2.5293,-2.5313,-2.5313,-2.5313,-2.5313,-2.5072,-2.4572,-2.4301,-2.3663,0.0,0.0,0.0,0.0,0.0,0.0,0.0,0.0,0.0,0.0,0.0,0.0,0.0,0.0,0.0,0.0,0.0,0.0,0.0,0.0,0.0,0.0,0.0,-1.8785,0.0,0.0,0.0,0.0,0.0,0.0,0.0,0.0,0.0,-1.852,-1.9207,-1.976,-1.9745,-2.0508,-2.1037,-2.1061,0.0,0.0,0.0,0.0,0.0,0.0,0.0,-2.1666,-2.2232,-2.2311,-2.2488,-2.2994,-2.3103,-2.3098,-2.3105,0.0,0.0,-2.0918,-2.0597,-2.0726,-2.1291,-2.1405,-2.1227,-2.0659,-2.0568,-2.0398,0.0,0.0,0.0,0.0,0.0,0.0,0.0,0.0,-2.3198,-2.3173,0.0,-2.3082,0.0,0.0,0.0,0.0,0.0,-2.3072,0.0,0.0,-2.4274,-2.5111,-2.6601,-2.5869,-2.5898,-2.6593,-2.5048,-2.4246,-2.4177,-2.3476,0.0,0.0,0.0,0.0,0.0,0.0,-2.4283,-2.4273,-2.5026,-2.536,-2.5313,-2.5313,-2.5313,-2.5313,-2.5313,-2.5332,-2.537,-2.4591,-2.4168,-2.4157,-2.2656,0.0,0.0,0.0,0.0,0.0,0.0,0.0,0.0,0.0,0.0,0.0,0.0,0.0,0.0,0.0,0.0,0.0,0.0,0.0,0.0,-2.0095,0.0,0.0,0.0,0.0,0.0,0.0,0.0,0.0,0.0,0.0,-1.9487,-2.0135,-2.0644,-2.0644,0.0,0.0,0.0,0.0,-2.313,-2.313,-2.315,-2.313,-2.315,-2.3111,-2.3091,-2.313,0.0,0.0,-2.3199,-2.3196,-2.3251,-2.3192,-2.327,-2.3194,-2.3174,-2.3068,-2.3098,-2.3174,-2.3174,-2.3174,-2.3118,-2.2948,-2.2987,-3.0033,0.0,0.0,0.0,0.0,-2.5834,-2.6495,-2.7505,-2.6846,-2.6908,-2.7395,-2.6157,0.0,0.0,0.0,0.0,0.0,0.0,-2.5746,-2.6014,-2.6549,-2.708,-2.7537,-2.7305,-2.7325,-2.7527,-2.7056,-2.6815,-2.6776,-2.603,-2.4725,-2.2971,0.0,0.0,0.0,0.0,-2.449,-2.5023,-2.5271,-2.537,-2.5313,-2.5313,-2.5313,-2.5313,-2.5313,-2.5313,-2.5332,-2.513,-2.4745,-2.4159,-2.3721,0.0,0.0,0.0,0.0,0.0,0.0,0.0,0.0,0.0,0.0,0.0,0.0,0.0,0.0,0.0,0.0,0.0,0.0,0.0,-1.9963,-2.0976,-2.1177,0.0,0.0,0.0,0.0,0.0,0.0,0.0,0.0,0.0,-2.2014,-2.1721,-2.1526,0.0,0.0,-2.276,-2.276,-2.3483,-2.403,-2.403,-2.4028,0.0,-2.4026,-2.3501,-2.3306,-2.3932,-2.4538,-2.4951,-2.494,-2.4941,-2.4959,-2.4949,-2.4956,-2.496,-2.4901,-2.443,-2.4269,-2.4777,-2.4952,-2.4736,-2.4181,-2.4029,-2.3852,-3.5204,-3.2621,-2.9913,-2.9052,-2.953,-2.9469,-2.9994,-3.0838,-2.9909,-2.9803,-3.0192,-2.882,-2.8257,-2.8283,-2.7733,0.0,0.0,0.0,-2.8347,-2.8703,-2.9178,-2.9567,-2.9875,-2.9883,-2.9729,-2.9393,-2.9047,-2.87,-2.8356,-2.7566,-2.6244,-2.4413,0.0,0.0,-2.4764,-2.4714,-2.493,-2.5365,-2.5397,-2.5361,-2.5313,-2.5313,-2.5313,-2.5313,-2.5313,-2.5313,-2.5313,-2.537,-2.5139,-2.4649,-2.4342,-2.3753,0.0,0.0,0.0,0.0,0.0,0.0,0.0,0.0,0.0,0.0,0.0,-1.903,0.0,0.0,0.0,0.0,-1.8668,-1.9801,-2.092,-2.2157,0.0,0.0,0.0,0.0,0.0,0.0,0.0,-2.2326,-2.2775,-2.3107,-2.3111,-2.2958,-2.2763,-2.2428,-2.3091,-2.3601,-2.362,0.0,-2.4913,-2.4913,-2.4913,-2.4912,-2.4912,-2.4464,-2.4326,-2.483,-2.5343,-2.568,-2.5703,-2.5703,-2.5703,-2.57,-2.5702,-2.5703,-2.5703,-2.5254,-2.5058,-2.5585,-2.5702,-2.5506,-2.5011,-2.4913,-2.4728,-4.0101,-3.9747,-3.584,-3.4064,-3.3785,-3.3653,-3.3594,-3.3538,-3.2609,-3.2203,-3.2135,-3.1274,-3.0897,-3.0887,-3.0823,0.0,-3.0694,-3.0637,-3.102,-3.1796,-3.1796,-3.2173,-3.2872,-3.2872,-3.2506,-3.1775,-3.0987,-3.014,-2.9325,-2.8489,-2.7652,-2.6805,-2.5992,-2.5622,-2.5599,-2.5541,-2.5502,-2.5502,-2.5504,-2.5438,-2.5313,-2.5313,-2.5313,-2.5293,-2.5313,-2.5313,-2.5313,-2.5369,-2.5395,-2.5365,-2.4683,-2.4321,-2.4251,0.0,0.0,0.0,0.0,0.0,0.0,0.0,0.0,0.0,0.0,0.0,0.0,0.0,0.0,0.0,-2.0871,0.0,-2.1897,-2.3408,0.0,0.0,0.0,-2.3093,-2.3095,-2.3155,-2.3192,-2.321,0.0,0.0,-2.3306,-2.4016,-2.4193,-2.3407,-2.3993,-2.4499,-2.4499,-2.5168,-2.57,-2.5641,-2.5681,-2.5681,-2.5602,-2.5583,-2.5543,-2.5597,-2.5701,-2.5703,-2.5703,-2.5703,-2.5703,-2.5703,-2.5703,-2.5703,-2.5703,-2.5664,-2.5703,-2.5684,-2.5703,-2.5703,-2.5641,-2.5622,-2.559,-4.2668,-4.2532,-4.1538,-3.9589,-3.7159,-3.6494,-3.6503,-3.6926,-3.6076,-3.5659,-3.5546,-3.468,-3.3998,-3.3434,-3.3341,-3.2993,-3.2389,-3.234,-3.2423,-3.2601,-3.262,-3.2705,-3.2891,-3.2891,-3.2814,-3.2602,-3.241,-3.1872,-3.1064,-3.0217,-2.9379,-2.8579,-2.773,-2.7007,-2.6428,-2.6341,-2.6304,-2.6314,-2.6314,-2.5967,-2.5322,-2.5313,-2.5341,-2.538,-2.538,-2.537,-2.539,-2.5395,-2.5383,-2.5383,-2.5259,-2.4917,-2.4327,-2.3971,0.0,0.0,0.0,0.0,0.0,0.0,0.0,0.0,0.0,-2.1601,-2.1594,0.0,-2.1172,0.0,-2.2142,-2.2769,-2.2804,-2.3762,0.0,0.0,-2.3097,-2.31,-2.3101,-2.3687,-2.4077,-2.4097,-2.4663,-2.5071,-2.5084,-2.526,-2.5322,-2.5112,-2.5249,-2.5403,-2.5396,-2.5553,-2.5696,-2.5702,-2.5703,-2.5703,-2.5703,-2.5703,-2.5703,-2.5703,-2.5703,-2.5703,-2.5703,-2.5703,-2.5703,-2.5703,-2.5703,-2.5703,-2.5703,-2.5703,-2.5703,-2.5703,-2.5703,-2.5703,-2.5701,-2.5691,-2.5693,-4.4608,-4.4537,-4.4139,-4.2883,-4.1046,-4.0245,-4.014,-4.0364,-3.911,-3.8537,-3.8414,-3.7186,-3.6402,-3.5952,-3.5912,-3.543,-3.4655,-3.4622,-3.4408,-3.4049,-3.4049,-3.4057,-3.4064,-3.4064,-3.3853,-3.3468,-3.3468,-3.3045,-3.2237,-3.1391,-3.0552,-2.9733,-2.8852,-2.8217,-2.775,-2.7355,-2.7185,-2.718,-2.6785,-2.6361,-2.589,-2.5534,-2.5361,-2.5398,-2.5389,-2.538,-2.5389,-2.5434,-2.546,-2.5459,-2.5511,-2.5344,-2.4907,-2.4579,-2.3961,0.0,0.0,0.0,0.0,0.0,0.0,0.0,0.0,0.0,0.0,0.0,-2.2384,-2.2353,-2.3155,-2.3681,-2.3681,-2.4469,-2.4777,-2.4302,-2.4268,-2.4272,-2.4256,-2.4687,-2.4979,-2.4979,-2.5409,-2.5702,-2.5698,-2.5693,-2.5693,-2.5702,-2.5702,-2.5702,-2.5699,-2.5698,-2.57,-2.5703,-2.5703,-2.5703,-2.5703,-2.5703,-2.5703,-2.5703,-2.5703,-2.5703,-2.5703,-2.5703,-2.5703,-2.5703,-2.5703,-2.5703,-2.5703,-2.5703,-2.5703,-2.5703,-2.5703,-2.5703,-2.5702,-2.5697,-2.5703,-4.5898,-4.5817,-4.5071,-4.4711,-4.4602,-4.3964,-4.3524,-4.3162,-4.1596,-4.0863,-4.0636,-3.9094,-3.8309,-3.8166,-3.8176,-3.7694,-3.6881,-3.6862,-3.6496,-3.5815,-3.5699,-3.5661,-3.5641,-3.5545,-3.5103,-3.4372,-3.4353,-3.393,-3.3064,-3.2352,-3.1525,-3.0583,-2.9809,-2.9375,-2.9229,-2.8572,-2.8172,-2.8044,-2.7199,-2.6775,-2.6755,-2.6073,-2.5726,-2.5707,-2.5618,-2.5558,-2.5567,-2.5538,-2.5512,-2.5504,-2.5585,-2.5679,-2.5756,-2.5118,-2.4724,0.0,-2.4003,0.0,0.0,0.0,0.0,0.0,0.0,0.0,0.0,-2.3702,-2.3746,-2.3688,-2.4432,-2.4849,-2.476,-2.541,-2.5834,-2.5711,-2.5691,-2.5697,-2.5703,-2.5801,-2.5879,-2.5859,-2.5957,-2.6016,-2.5898,-2.5855,-2.5873,-2.5742,-2.5703,-2.5703,-2.5703,-2.5703,-2.5703,-2.5703,-2.5703,-2.5703,-2.5703,-2.5703,-2.5703,-2.5703,-2.5703,-2.5703,-2.5703,-2.5703,-2.5703,-2.5703,-2.5703,-2.5703,-2.5703,-2.5703,-2.5703,-2.5703,-2.5703,-2.5703,-2.5703,-2.57,-2.5691,-4.581,-4.5816,-4.5664,-4.5544,-4.5445,-4.5332,-4.4451,-4.3109,-4.2787,-4.2229,-4.1505,-4.0519,-3.9677,-3.9061,-3.9042,-3.858,-3.7772,-3.7762,-3.7679,-3.7506,-3.6804,-3.6458,-3.6439,-3.5815,-3.5416,-3.5276,-3.5276,-3.4814,-3.3949,-3.3795,-3.2961,-3.1492,-3.1299,-3.0864,-3.0186,0.0,0.0,0.0,-2.8074,-2.7651,-2.764,-2.7517,-2.7431,-2.7412,-2.679,0.0,-2.652,-2.5912,-2.5576,-2.5584,-2.5648,0.0,0.0,0.0,0.0,0.0,0.0,0.0,0.0,0.0,0.0,0.0,-2.7418,-2.7006,-2.6337,-2.6903,-2.7315,-2.7295,-2.7451,-2.7272,-2.6581,-2.6644,-2.6477,-2.58,-2.5703,-2.5703,-2.5723,-2.6328,-2.6758,-2.6777,-2.7363,-2.7519,-2.6836,-2.6757,-2.6465,-2.582,-2.5703,-2.5703,-2.5703,-2.5703,-2.5703,-2.5703,-2.5703,-2.5703,-2.5703,-2.5703,-2.5703,-2.5703,-2.5703,-2.5703,-2.5703,-2.5703,-2.5703,-2.5703,-2.5703,-2.5703,-2.5703,-2.5703,-2.5703,-2.5703,-2.5703,-2.5703,-2.5703,-2.5703,-2.5702,-4.5709,0.0,-4.5706,-4.5671,0.0,-4.5661,-4.5163,-4.432,-4.3891,-4.3217,-4.2412,-4.197,-4.1546,-4.1143,-4.0735,-4.0046,-3.92,-3.8811,-3.8407,-3.7988,-3.7531,-3.7353,-3.7324,-3.693,-3.6738,-3.6719,-3.6315,-3.5872,-3.5411,-3.4603,-3.3757,-3.2929,-3.2095,-3.1472,-3.1056,-3.0621,-3.0167,-2.9737,-2.8909,-2.8486,-2.8478,-2.8086,-2.7885,-2.7875,-2.7535,0.0,0.0,0.0,0.0,0.0,0.0,0.0,0.0,0.0,0.0,-2.7633,-2.7656,-2.7636,-2.7651,-2.8037,-2.8485,-2.8919,-2.9348,-2.9015,-2.7741,-2.8063,-2.83,-2.83,-2.83,-2.8123,-2.7712,-2.7632,-2.7459,-2.7031,-2.6973,-2.6992,-2.7031,-2.7383,-2.7637,-2.7656,-2.8027,-2.7969,-2.7109,-2.7012,-2.6641,-2.5859,-2.5703,-2.5703,-2.5703,-2.5703,-2.5703,-2.5703,-2.5703,-2.5703,-2.5703,-2.5703,-2.5703,-2.5703,-2.5703,-2.5703,-2.5703,-2.5703,-2.5703,-2.5703,-2.5703,-2.5703,-2.5703,-2.5703,-2.5703,-2.5703,-2.5703,-2.5703,-2.5703,-2.5703,-2.5703,-4.5586,-4.5586,-4.5586,-4.5586,-4.5586,-4.5586,-4.5586,-4.5528,0.0,0.0,0.0,-4.3162,-4.3085,-4.3047,-4.2367,-4.1559,-4.0716,-4.0031,-3.9265,-3.8447,-3.8293,-3.8247,-3.8214,-3.8065,-3.8007,-3.795,-3.7276,-3.6853,-3.6661,-3.5295,-3.4474,-3.4101,-3.2814,-3.1992,-3.1665,-3.0845,-3.0398,-3.0371,-2.9698,-2.9333,-2.9313,-2.8674,-2.8338,-2.8338,-2.827,-2.8208,-2.8221,-2.8138,-2.8118,-2.8174,-2.8207,-2.8301,-2.8512,-2.8535,-2.8613,-2.875,-2.875,-2.8769,-2.8768,-2.9428,-2.9835,-2.9816,-3.0499,-3.0304,-2.8838,-2.8768,-2.8769,-2.875,-2.8769,-2.8691,-2.8555,-2.8535,-2.8457,-2.832,-2.8281,-2.8281,-2.8281,-2.8457,-2.8535,-2.8535,-2.8711,-2.8359,-2.7441,-2.7285,-2.6816,-2.5957,-2.5703,-2.5703,-2.5703,-2.5703,-2.5703,-2.5703,-2.5703,-2.5703,-2.5703,-2.5703,-2.5703,-2.5703,-2.5703,-2.5703,-2.5703,-2.5703,-2.5703,-2.5703,-2.5703,-2.5703,-2.5703,-2.5703,-2.5703,-2.5703,-2.5703,-2.5703,-2.5703,-2.5703,-2.5703,-4.5586,-4.5586,-4.5586,-4.5586,-4.5586,-4.5586,-4.5586,-4.5528,-4.4662,-4.4239,-4.4085,-4.3412,-4.3085,-4.3085,-4.297,-4.2428,-4.1617,-4.1501,-4.0966,-4.0123,-3.9438,-3.9112,-3.9073,-3.8354,-3.8007,-3.7988,-3.7873,-3.743,-3.6757,-3.6469,-3.5628,-3.4351,-3.3947,-3.3128,-3.1742,-3.0845,-3.0398,-3.0398,-3.0283,-3.0217,-3.0217,-3.0117,-3.0042,-3.0015,-2.9381,-2.9042,-2.9022,-2.845,-2.812,-2.8129,-2.8166,-2.8574,-2.9352,-2.9414,-2.9746,-3.0469,-3.0527,-3.0527,-3.0527,-3.0664,-3.0722,-3.0722,-3.0839,-3.0781,-3.0566,-3.0547,-3.0527,-3.0547,-3.0469,-3.0215,-2.9531,-2.9414,-2.9141,-2.8476,-2.832,-2.8301,-2.8398,-2.9004,-2.9414,-2.9414,-3.0078,-2.9824,-2.8359,-2.8066,-2.7441,-2.6113,-2.5703,-2.5703,-2.5703,-2.5703,-2.5703,-2.5703,-2.5703,-2.5703,-2.5703,-2.5703,-2.5703,-2.5703,-2.5703,-2.5703,-2.5703,-2.5703,-2.5703,-2.5703,-2.5703,-2.5703,-2.5703,-2.5703,-2.5703,-2.5703,-2.5703,-2.5703,-2.5703,-2.5703,-2.5703,-4.5586,-4.5586,-4.5586,-4.5586,-4.5586,-4.5586,-4.5586,-4.5547,-4.5182,-4.5009,-4.497,-4.4605,-4.4451,-4.4412,-4.3953,-4.3299,-4.2473,-4.2021,-4.1328,-4.0489,-4.0123,-3.9954,-3.9915,-3.9546,-3.9354,-3.9335,-3.8911,-3.8488,-3.8065,-3.7199,-3.6315,-3.5545,-3.4672,-3.3365,-3.178,-3.1318,-3.0864,-3.0398,-3.0398,-3.0398,-3.0398,-3.0394,-3.0386,-3.0394,-3.0064,-2.9902,-2.9892,-2.9619,-2.9477,-2.9505,-2.9576,-2.9799,-3.021,-3.0273,-3.0488,-3.0879,-3.1348,-3.1601,-3.1601,-3.1601,-3.1387,-3.0957,-3.0918,-3.0918,-3.0918,-3.0918,-3.0918,-3.0918,-3.0918,-3.0742,-3.0351,-3.0293,-3.0156,-2.9746,-2.9726,-2.9707,-2.9746,-3.0019,-3.0293,-3.0332,-3.0644,-3.0215,-2.8516,-2.8281,-2.7637,-2.6074,-2.5703,-2.5703,-2.5703,-2.5703,-2.5703,-2.5703,-2.5703,-2.5703,-2.5703,-2.5703,-2.5703,-2.5703,-2.5703,-2.5703,-2.5703,-2.5703,-2.5703,-2.5703,-2.5703,-2.5703,-2.5703,-2.5703,-2.5703,-2.5703,-2.5703,-2.5703,-2.5703,-2.5703,-2.5703,-4.5586,-4.5586,-4.5586,-4.5586,-4.5586,-4.5586,-4.5586,-4.5586,-4.5586,-4.5586,-4.5586,-4.5586,-4.5586,-4.5528,-4.4876,-4.4051,-4.3092,-4.2409,-4.152,-4.0546,-4.0489,-4.0489,-4.0489,-4.0489,-4.0489,-4.0431,-3.9854,-3.9469,-3.9142,-3.7738,-3.6776,-3.6309,-3.4922,-3.3538,-3.2307,-3.1877,-3.1376,-3.0717,-3.0494,-3.0398,-3.0398,-3.0394,-3.0394,-3.041,-3.0455,-3.0554,-3.0749,-3.0849,-3.0986,-3.1222,-3.1312,-3.1382,-3.1397,-3.1445,-3.1465,-3.1543,-3.209,-3.248,-3.2461,-3.2285,-3.1914,-3.125,-3.0996,-3.0918,-3.0918,-3.0918,-3.0918,-3.0918,-3.0918,-3.0898,-3.0859,-3.0879,-3.0898,-3.0918,-3.0918,-3.082,-3.0898,-3.0918,-3.0918,-3.0918,-3.0918,-3.0312,-2.9043,-2.8594,-2.793,-2.6465,-2.584,-2.5703,-2.5703,-2.5703,-2.5703,-2.5703,-2.5703,-2.5703,-2.5703,-2.5703,-2.5703,-2.5703,-2.5703,-2.5703,-2.5703,-2.5703,-2.5703,-2.5703,-2.5703,-2.5703,-2.5703,-2.5703,-2.5703,-2.5703,-2.5703,-2.5703,-2.5703,-2.5703,-2.5703,-4.5586,-4.5586,-4.5586,-4.5586,-4.5586,-4.5586,-4.5586,-4.5586,-4.5586,-4.5586,-4.5586,-4.5586,-4.5586,-4.5586,-4.549,-4.4607,-4.3171,-4.3022,-4.2094,-4.0639,-4.0489,-4.0489,-4.0489,-4.0489,-4.0489,-4.0489,-4.0373,-3.9969,-3.9335,-3.8315,-3.7123,-3.568,-3.4653,-3.4139,-3.3774,-3.2461,-3.1665,-3.1564,-3.0802,-3.0398,-3.0398,-3.039,-3.039,-3.0398,-3.0429,-3.0787,-3.1553,-3.1658,-3.2066,-3.2811,-3.2931,-3.3072,-3.3127,-3.3123,-3.3144,-3.3125,-3.3223,-3.3301,-3.3242,-3.2598,-3.2207,-3.2051,-3.1387,-3.0976,-3.0918,-3.0918,-3.0918,-3.0918,-3.0918,-3.0918,-3.0918,-3.0918,-3.0918,-3.0918,-3.0918,-3.0918,-3.0918,-3.0918,-3.0918,-3.0918,-3.0918,-3.0527,-2.9609,-2.9316,-2.8672,-2.7109,-2.6387,-2.5957,-2.584,-2.584,-2.5762,-2.5723,-2.5703,-2.5703,-2.5703,-2.5703,-2.5703,-2.5703,-2.5703,-2.5703,-2.5703,-2.5703,-2.5703,-2.5703,-2.5703,-2.5703,-2.5703,-2.5703,-2.5703,-2.5703,-2.5703,-2.5703,-2.5703,-2.5703,-2.5703,-4.5586,-4.5586,-4.5586,-4.5586,-4.5586,-4.5586,-4.5586,-4.5586,-4.5586,-4.5586,-4.5586,-4.5586,-4.5586,-4.5586,-4.5586,-4.4934,-4.382,-4.3327,-4.2456,-4.1289,-4.0754,-4.0489,-4.0489,-4.0489,-4.0489,-4.0489,-4.0489,-4.0315,-3.9835,-3.8676,-3.7142,-3.5641,-3.5128,-3.473,-3.4197,-3.3519,-3.2936,-3.241,-3.2064,-3.1884,-3.1831,-3.1422,-3.141,-3.1833,-3.1872,-3.2018,-3.2362,-3.2516,-3.2735,-3.3087,-3.3219,-3.3317,-3.3386,-3.3394,-3.3379,-3.3418,-3.3887,-3.418,-3.418,-3.3848,-3.3242,-3.2285,-3.2324,-3.1992,-3.1016,-3.1348,-3.1465,-3.0996,-3.0918,-3.0918,-3.0918,-3.0918,-3.0918,-3.0918,-3.0918,-3.0918,-3.0918,-3.0918,-3.0918,-3.0918,-3.0918,-3.0566,-2.9746,-2.9141,-2.8574,-2.7851,-2.7402,-2.7031,-2.6602,-2.6465,-2.623,-2.582,-2.5703,-2.5703,-2.5703,-2.5703,-2.5703,-2.5703,-2.5703,-2.5703,-2.5703,-2.5703,-2.5703,-2.5703,-2.5703,-2.5703,-2.5703,-2.5703,-2.5703,-2.5703,-2.5703,-2.5703,-2.5703,-2.5703,-2.5703,-4.5586,-4.5586,-4.5586,-4.5586,-4.5586,-4.5586,-4.5586,-4.5586,-4.5586,-4.5586,-4.5586,-4.5586,-4.5586,-4.5586,-4.5586,-4.5143,-4.4299,-4.3715,-4.2826,-4.1844,-4.1155,-4.0735,-4.0508,-4.0489,-4.0489,-4.0489,-4.0489,-4.0392,-4.0042,-3.8734,-3.7252,-3.5988,-3.5603,-3.5185,-3.4595,-3.4351,-3.3903,-3.3314,-3.3026,-3.3012,-3.3114,-3.2685,-3.2551,-3.2878,-3.2897,-3.3012,-3.3241,-3.3354,-3.3545,-3.3819,-3.3918,-3.4013,-3.4074,-3.4093,-3.4121,-3.4141,-3.4687,-3.5059,-3.5039,-3.4824,-3.418,-3.3086,-3.3262,-3.2891,-3.1992,-3.2168,-3.2226,-3.1738,-3.1387,-3.123,-3.0918,-3.0918,-3.0918,-3.0918,-3.0918,-3.0918,-3.0918,-3.0918,-3.0918,-3.0918,-3.0918,-3.0684,-3.0,-2.9297,-2.8711,-2.8672,-2.8437,-2.8144,-2.7539,-2.7324,-2.707,-2.6211,-2.6074,-2.5957,-2.5781,-2.5703,-2.5703,-2.5703,-2.5703,-2.5703,-2.5703,-2.5703,-2.5703,-2.5703,-2.5703,-2.5703,-2.5703,-2.5703,-2.5703,-2.5703,-2.5703,-2.5703,-2.5703,-2.5703,-2.5703,-4.5586,-4.5586,-4.5586,-4.5586,-4.5586,-4.5586,-4.5586,-4.5586,-4.5586,-4.5586,-4.5586,-4.5586,-4.5586,-4.5586,-4.5586,-4.5124,-4.4378,-4.4241,-4.3374,-4.2021,-4.1805,-4.1309,-4.0527,-4.0489,-4.0546,-4.0719,-4.0642,-4.0181,-3.9392,-3.8484,-3.7555,-3.6631,-3.5925,-3.5507,-3.5282,-3.4634,-3.4211,-3.4083,-3.3449,-3.3346,-3.4026,-3.4077,-3.3692,-3.3114,-3.2961,-3.3385,-3.4026,-3.4154,-3.4554,-3.5524,-3.5541,-3.5664,-3.5724,-3.5767,-3.576,-3.582,-3.5879,-3.5918,-3.5801,-3.5195,-3.4648,-3.4453,-3.3906,-3.3379,-3.3105,-3.3242,-3.3262,-3.3223,-3.25,-3.1836,-3.1113,-3.0957,-3.0918,-3.0918,-3.0918,-3.0918,-3.0918,-3.0918,-3.0918,-3.0918,-3.0918,-3.084,-3.0762,-3.0098,-2.9629,-2.9394,-2.8887,-2.8379,-2.832,-2.8242,-2.7851,-2.7226,-2.6875,-2.666,-2.5937,-2.5703,-2.5703,-2.5703,-2.5703,-2.5703,-2.5703,-2.5703,-2.5703,-2.5703,-2.5703,-2.5703,-2.5703,-2.5703,-2.5703,-2.5703,-2.5703,-2.5703,-2.5703,-2.5703,-2.5703,-4.5586,-4.5586,-4.5586,-4.5586,-4.5586,-4.5586,-4.5586,-4.5586,-4.5586,-4.5586,-4.5586,-4.5586,-4.5586,-4.5586,-4.5586,-4.5432,-4.5086,-4.4568,-4.3972,-4.3355,-4.289,-4.2467,-4.22,-4.2162,-4.2162,-4.2085,-4.1604,-4.0623,-3.9392,-3.895,-3.808,-3.6881,-3.6439,-3.6021,-3.5545,-3.5205,-3.5032,-3.5007,-3.468,-3.4737,-3.4982,-3.5026,-3.4878,-3.4595,-3.457,-3.4718,-3.5039,-3.5027,-3.5237,-3.562,-3.5756,-3.583,-3.5903,-3.596,-3.6015,-3.6016,-3.6016,-3.6016,-3.5976,-3.5723,-3.5273,-3.4785,-3.4961,-3.4512,-3.375,-3.3867,-3.4004,-3.3496,-3.3184,-3.2598,-3.1836,-3.125,-3.0918,-3.0918,-3.0918,-3.0918,-3.0918,-3.0918,-3.0918,-3.0918,-3.0918,-3.0918,-3.0859,-3.0625,-3.0449,-3.041,-3.0137,-2.9707,-2.9258,-2.9141,-2.8828,-2.8086,-2.7812,-2.7539,-2.666,-2.5996,-2.5703,-2.5703,-2.5703,-2.5703,-2.5703,-2.5703,-2.5703,-2.5703,-2.5703,-2.5703,-2.5703,-2.5703,-2.5703,-2.5703,-2.5703,-2.5703,-2.5703,-2.5703,-2.5703,-4.5586,-4.5586,-4.5586,-4.5586,-4.5586,-4.5586,-4.5586,-4.5586,-4.5586,-4.5586,-4.5586,-4.5586,-4.5586,-4.5586,-4.5586,-4.5586,-4.5528,-4.4972,-4.4568,-4.4263,-4.3722,-4.3338,-4.3126,-4.3104,-4.3085,-4.2951,-4.222,-4.1162,-4.0142,-3.9565,-3.8695,-3.7618,-3.7035,-3.6439,-3.5944,-3.5641,-3.5507,-3.5507,-3.5507,-3.5488,-3.5507,-3.5507,-3.5507,-3.5488,-3.5507,-3.5507,-3.5507,-3.5489,-3.5546,-3.5629,-3.5736,-3.5838,-3.5928,-3.5984,-3.6016,-3.6016,-3.6016,-3.6016,-3.6016,-3.6016,-3.5742,-3.5215,-3.5605,-3.543,-3.4394,-3.4785,-3.4746,-3.4355,-3.3926,-3.3555,-3.3008,-3.2246,-3.1504,-3.1074,-3.0918,-3.0918,-3.0918,-3.0918,-3.0918,-3.0918,-3.0918,-3.0918,-3.0918,-3.0918,-3.0879,-3.0918,-3.0918,-3.0605,-3.0176,-3.0,-2.9707,-2.8926,-2.8711,-2.8301,-2.7559,-2.6797,-2.6016,-2.5898,-2.5703,-2.5703,-2.5703,-2.5703,-2.5703,-2.5703,-2.5703,-2.5703,-2.5703,-2.5703,-2.5703,-2.5703,-2.5703,-2.5703,-2.5703,-2.5703,-2.5703,-4.5586,-4.5586,-4.5586,-4.5586,-4.5586,-4.5586,-4.5586,-4.5586,-4.5586,-4.5586,-4.5586,-4.5586,-4.5586,-4.5586,-4.5586,-4.5586,-4.5566,-4.549,-4.5086,-4.4453,-4.4339,-4.3955,-4.3361,-4.3376,-4.3297,-4.3201,-4.2316,-4.1854,-4.1527,-4.0258,-3.9411,-3.8954,-3.7618,-3.6881,-3.665,-3.5963,-3.5565,-3.5507,-3.5507,-3.5507,-3.5507,-3.5507,-3.5507,-3.5507,-3.5507,-3.5507,-3.5507,-3.5509,-3.557,-3.5679,-3.5754,-3.5872,-3.5962,-3.5993,-3.6016,-3.6016,-3.6016,-3.6016,-3.6016,-3.6016,-3.5996,-3.5879,-3.5976,-3.5937,-3.5762,-3.5801,-3.582,-3.5605,-3.5117,-3.4629,-3.4434,-3.3769,-3.2734,-3.1269,-3.1133,-3.1074,-3.1035,-3.0937,-3.0918,-3.0918,-3.0918,-3.0918,-3.0918,-3.0918,-3.0918,-3.0918,-3.0898,-3.0879,-3.0723,-3.0703,-3.043,-2.9883,-2.957,-2.9258,-2.8437,-2.7598,-2.6777,-2.6094,-2.584,-2.5703,-2.5703,-2.5703,-2.5703,-2.5703,-2.5703,-2.5703,-2.5703,-2.5703,-2.5703,-2.5703,-2.5703,-2.5703,-2.5703,-2.5703,-2.5703,-4.5586,-4.5586,-4.5586,-4.5586,-4.5586,-4.5586,-4.5586,-4.5586,-4.5586,-4.5586,-4.5586,-4.5586,-4.5586,-4.5586,-4.5586,-4.5586,-4.5586,-4.5586,-4.5432,-4.522,-4.5163,-4.503,-4.4818,-4.4797,-4.4509,-4.3989,-4.3662,-4.2893,-4.1912,-4.1239,-4.0492,-3.9396,-3.8781,-3.7834,-3.6824,-3.6439,-3.6098,-3.5565,-3.5507,-3.5507,-3.5507,-3.5507,-3.5507,-3.5507,-3.5507,-3.5526,-3.5545,-3.5573,-3.5607,-3.5718,-3.5764,-3.5846,-3.5965,-3.6012,-3.6016,-3.6016,-3.6016,-3.6016,-3.6016,-3.6016,-3.6016,-3.6016,-3.6016,-3.6016,-3.6016,-3.6016,-3.6016,-3.6016,-3.5723,-3.5391,-3.4805,-3.4473,-3.3769,-3.2734,-3.2129,-3.1777,-3.166,-3.123,-3.0957,-3.0918,-3.0918,-3.0918,-3.0937,-3.0957,-3.0976,-3.0976,-3.0937,-3.0918,-3.0918,-3.0918,-3.0879,-3.0527,-3.0391,-3.0137,-2.9355,-2.8691,-2.8066,-2.709,-2.6484,-2.6016,-2.5918,-2.5703,-2.5703,-2.5703,-2.5703,-2.5703,-2.5703,-2.5703,-2.5703,-2.5703,-2.5703,-2.5703,-2.5703,-2.5703,-2.5703,-4.5586,-4.5586,-4.5586,-4.5586,-4.5586,-4.5586,-4.5586,-4.5586,-4.5586,-4.5586,-4.5586,-4.5586,-4.5586,-4.5586,-4.5586,-4.5586,-4.5586,-4.5586,-4.5586,-4.5586,-4.5586,-4.5586,-4.5586,-4.5586,-4.5355,-4.4816,-4.4451,-4.3778,-4.2758,-4.2066,-4.1258,-4.0354,-3.9627,-3.88,-3.7714,-3.731,-3.6887,-3.6469,-3.6142,-3.5949,-3.5892,-3.5661,-3.5507,-3.5507,-3.5507,-3.5545,-3.5603,-3.5624,-3.5667,-3.5776,-3.5852,-3.5928,-3.5991,-3.6016,-3.6016,-3.6016,-3.6016,-3.6016,-3.6016,-3.6016,-3.6016,-3.6016,-3.6016,-3.6016,-3.6016,-3.6016,-3.6016,-3.6016,-3.5976,-3.5781,-3.5312,-3.5176,-3.4902,-3.4434,-3.3301,-3.2598,-3.2207,-3.1426,-3.1172,-3.1289,-3.1426,-3.1523,-3.1738,-3.1484,-3.1406,-3.1367,-3.1113,-3.0918,-3.0918,-3.0918,-3.0918,-3.0918,-3.0781,-3.0488,-3.0176,-2.9726,-2.9355,-2.834,-2.7305,-2.6758,-2.6387,-2.5918,-2.5703,-2.5703,-2.5703,-2.5703,-2.5703,-2.5703,-2.5703,-2.5703,-2.5703,-2.5703,-2.5703,-2.5703,-2.5696,-4.5586,-4.5586,-4.5586,-4.5586,-4.5586,-4.5586,-4.5586,-4.5586,-4.5586,-4.5586,-4.5586,-4.5586,-4.5586,-4.5586,-4.5586,-4.5586,-4.5586,-4.5586,-4.5586,-4.5586,-4.5586,-4.5586,-4.5586,-4.5586,-4.5528,-4.5374,-4.4797,-4.4335,-4.3932,-4.2662,-4.1851,-4.1482,-4.0181,-3.9323,-3.8973,-3.8416,-3.7988,-3.768,-3.7103,-3.681,-3.676,-3.6155,-3.5694,-3.5674,-3.5674,-3.5674,-3.5617,-3.5685,-3.5786,-3.5904,-3.5943,-3.5997,-3.6013,-3.6012,-3.6016,-3.6016,-3.6016,-3.6016,-3.6016,-3.6016,-3.6016,-3.6016,-3.6016,-3.6016,-3.6016,-3.6016,-3.6016,-3.6016,-3.6016,-3.5996,-3.5918,-3.5898,-3.5859,-3.5742,-3.4394,-3.3242,-3.2363,-3.1621,-3.166,-3.2109,-3.2305,-3.25,-3.3066,-3.2598,-3.2344,-3.2148,-3.1699,-3.1465,-3.1328,-3.1406,-3.1074,-3.1035,-3.1113,-3.0801,-3.0469,-3.0312,-2.9941,-2.9512,-2.8398,-2.7539,-2.6758,-2.6133,-2.5703,-2.5703,-2.5703,-2.5703,-2.5703,-2.5703,-2.5703,-2.5703,-2.5703,-2.5703,-2.5703,-2.5703,-2.5689,-4.5586,-4.5586,-4.5586,-4.5586,-4.5586,-4.5586,-4.5586,-4.5586,-4.5586,-4.5586,-4.5586,-4.5586,-4.5586,-4.5586,-4.5586,-4.5586,-4.5586,-4.5586,-4.5586,-4.5586,-4.5586,-4.5586,-4.5586,-4.5586,-4.5586,-4.5528,-4.5297,-4.4932,-4.4259,-4.3278,-4.2467,-4.1767,-4.0793,-3.9877,-3.9323,-3.9089,-3.8589,-3.8084,-3.7882,-3.7737,-3.7706,-3.7494,-3.7083,-3.6505,-3.6434,-3.6177,-3.5759,-3.5776,-3.5846,-3.5914,-3.5966,-3.602,-3.6016,-3.6016,-3.6016,-3.6016,-3.6016,-3.6016,-3.6016,-3.6016,-3.6016,-3.6016,-3.6016,-3.6016,-3.6016,-3.6016,-3.6016,-3.6016,-3.6016,-3.6016,-3.6016,-3.6016,-3.6016,-3.5879,-3.498,-3.4023,-3.3281,-3.293,-3.2851,-3.3066,-3.3066,-3.3262,-3.3398,-3.332,-3.3086,-3.3027,-3.2793,-3.2559,-3.2344,-3.207,-3.1816,-3.1582,-3.1484,-3.1113,-3.084,-3.0703,-3.0547,-3.0449,-2.9531,-2.8359,-2.7344,-2.6269,-2.5918,-2.5703,-2.5703,-2.5703,-2.5703,-2.5703,-2.5703,-2.5703,-2.5703,-2.5703,-2.5703,-2.5699,-2.5703,-4.5586,-4.5586,-4.5586,-4.5586,-4.5586,-4.5586,-4.5586,-4.5586,-4.5586,-4.5586,-4.5586,-4.5586,-4.5586,-4.5586,-4.5586,-4.5586,-4.5586,-4.5586,-4.5586,-4.5586,-4.5586,-4.5586,-4.5586,-4.5586,-4.5586,-4.5586,-4.5586,-4.5336,-4.4797,-4.4008,-4.3179,-4.2351,-4.1482,-4.0639,-3.9877,-3.98,-3.9604,-3.9133,-3.8849,-3.8645,-3.8646,-3.8292,-3.7931,-3.7363,-3.7093,-3.6605,-3.6331,-3.6397,-3.6313,-3.6064,-3.5991,-3.6007,-3.6009,-3.6014,-3.6016,-3.6016,-3.6016,-3.6016,-3.6016,-3.6016,-3.6016,-3.6016,-3.6016,-3.6016,-3.6016,-3.6016,-3.6016,-3.6016,-3.6016,-3.6016,-3.6016,-3.6016,-3.6016,-3.5937,-3.5527,-3.4883,-3.4043,-3.3594,-3.3613,-3.3789,-3.3965,-3.4141,-3.4355,-3.416,-3.3984,-3.3867,-3.3516,-3.3359,-3.3203,-3.291,-3.2578,-3.2305,-3.1894,-3.1484,-3.1074,-3.0859,-3.0781,-3.0703,-3.0234,-2.9121,-2.793,-2.668,-2.623,-2.5977,-2.582,-2.5703,-2.5703,-2.5703,-2.5703,-2.5703,-2.5703,-2.5703,-2.5703,-2.5696,-2.5696,-4.5586,-4.5586,-4.5586,-4.5586,-4.5586,-4.5586,-4.5586,-4.5586,-4.5586,-4.5586,-4.5586,-4.5586,-4.5586,-4.5586,-4.5586,-4.5586,-4.5586,-4.5586,-4.5586,-4.5586,-4.5586,-4.5586,-4.5586,-4.5586,-4.5622,-4.5603,-4.5603,-4.5584,-4.5274,-4.4641,-4.3951,-4.3104,-4.2271,-4.1424,-4.0696,-4.0508,-4.0539,-4.0299,-3.9797,-3.9561,-3.9475,-3.9065,-3.8692,-3.8296,-3.7598,-3.7298,-3.7256,-3.7278,-3.7074,-3.6343,-3.6202,-3.6152,-3.6094,-3.6016,-3.6016,-3.6016,-3.6016,-3.6016,-3.6016,-3.6016,-3.6016,-3.6016,-3.6016,-3.6094,-3.6191,-3.6289,-3.6289,-3.6289,-3.6152,-3.6172,-3.6016,-3.6016,-3.6016,-3.5976,-3.5957,-3.5586,-3.4922,-3.4141,-3.3965,-3.4687,-3.4824,-3.5234,-3.5488,-3.5391,-3.4844,-3.4824,-3.4492,-3.4375,-3.416,-3.3828,-3.3398,-3.2949,-3.2441,-3.1875,-3.1426,-3.0996,-3.0918,-3.084,-3.043,-2.957,-2.8457,-2.7402,-2.6758,-2.6426,-2.6562,-2.625,-2.5723,-2.5723,-2.584,-2.5703,-2.5703,-2.5703,-2.5693,-2.5705,-2.5701,-4.5586,-4.5586,-4.5586,-4.5586,-4.5586,-4.5586,-4.5586,-4.5586,-4.5586,-4.5586,-4.5586,-4.5586,-4.5586,-4.5586,-4.5586,-4.5586,-4.5586,-4.5586,-4.5586,-4.5586,-4.5586,-4.5586,-4.5603,-4.5603,-4.564,-4.5657,-4.5673,-4.569,-4.5475,-4.4919,-4.4292,-4.3934,-4.2736,-4.1709,-4.1463,-4.0866,-4.0539,-4.0564,-4.0417,-4.0377,-4.0416,-4.0267,-3.9868,-3.9302,-3.8546,-3.8205,-3.8201,-3.8263,-3.8205,-3.793,-3.7422,-3.6875,-3.6348,-3.6172,-3.6191,-3.6211,-3.6133,-3.6074,-3.6055,-3.6172,-3.6055,-3.6191,-3.6269,-3.6309,-3.6973,-3.7031,-3.7031,-3.7031,-3.7012,-3.6777,-3.6309,-3.6074,-3.6191,-3.625,-3.6133,-3.6016,-3.5742,-3.5508,-3.5449,-3.5586,-3.5664,-3.5781,-3.5957,-3.5879,-3.5644,-3.5664,-3.5547,-3.543,-3.5098,-3.4707,-3.4238,-3.3711,-3.3144,-3.2559,-3.1758,-3.125,-3.0937,-3.0918,-3.0586,-3.0293,-2.916,-2.8418,-2.7891,-2.7598,-2.748,-2.6992,-2.6387,-2.6269,-2.6504,-2.6113,-2.5742,-2.5703,-2.5691,-2.5696,-2.5901,-4.5586,-4.5586,-4.5586,-4.5586,-4.5586,-4.5586,-4.5586,-4.5586,-4.5586,-4.5586,-4.5586,-4.5586,-4.5586,-4.5586,-4.5586,-4.5586,-4.5586,-4.5624,-4.564,-4.5654,-4.5635,-4.5635,-4.5657,-4.5654,-4.5671,-4.5706,-4.5738,-4.575,-4.5592,-4.5272,-4.4842,-4.4414,-4.3393,-4.2582,-4.1902,-4.132,-4.0983,-4.0698,-4.0706,-4.0776,-4.0828,-4.0896,-4.0575,-3.9875,-3.9346,-3.9105,-3.9117,-3.9169,-3.9207,-3.9101,-3.875,-3.8125,-3.7402,-3.7226,-3.7207,-3.7226,-3.7226,-3.7226,-3.7246,-3.7226,-3.7266,-3.7187,-3.7226,-3.7441,-3.7773,-3.791,-3.791,-3.793,-3.7891,-3.7676,-3.7285,-3.7226,-3.7207,-3.7129,-3.6816,-3.6641,-3.6543,-3.6269,-3.6016,-3.6016,-3.5957,-3.5976,-3.6016,-3.6016,-3.5996,-3.584,-3.582,-3.5723,-3.5742,-3.5351,-3.5,-3.4492,-3.3926,-3.3203,-3.2246,-3.1562,-3.0976,-3.0918,-3.082,-3.0664,-3.0156,-2.9609,-2.9141,-2.8691,-2.8144,-2.791,-2.7422,-2.7324,-2.7012,-2.6582,-2.623,-2.5918,-2.5824,-2.6071,-2.6329,-4.5586,-4.5586,-4.5586,-4.5586,-4.5586,-4.5586,-4.5586,-4.5586,-4.5586,-4.5586,-4.5586,-4.5586,-4.5586,-4.5586,-4.5586,-4.5586,-4.5622,-4.5673,-4.5722,-4.5708,-4.5712,-4.57,-4.5722,-4.5735,-4.5742,-4.5723,-4.5791,-4.5819,-4.5827,-4.5761,-4.5356,-4.4713,-4.4414,-4.347,-4.2325,-4.1861,-4.144,-4.0791,-4.0765,-4.084,-4.0907,-4.0964,-4.0656,-4.0246,-4.0059,-3.9993,-4.0014,-4.007,-4.0098,-4.0117,-4.0098,-3.9687,-3.918,-3.8652,-3.8613,-3.8535,-3.8379,-3.832,-3.8281,-3.8398,-3.8437,-3.8613,-3.8555,-3.8652,-3.873,-3.8789,-3.8789,-3.8711,-3.8652,-3.8457,-3.8594,-3.8359,-3.8418,-3.8379,-3.7851,-3.7519,-3.7187,-3.6621,-3.6328,-3.6016,-3.6016,-3.6016,-3.6016,-3.6016,-3.6016,-3.6016,-3.6016,-3.6016,-3.6016,-3.5937,-3.5527,-3.5137,-3.4531,-3.3418,-3.2422,-3.1523,-3.0996,-3.0918,-3.0918,-3.0859,-3.0801,-3.0449,-2.9844,-2.9141,-2.8652,-2.8535,-2.8359,-2.8086,-2.7695,-2.7148,-2.6694,-2.6327,-2.6367,-2.6517,-2.685,-4.5586,-4.5586,-4.5586,-4.5586,-4.5586,-4.5586,-4.5586,-4.5586,-4.5586,-4.5586,-4.5586,-4.5586,-4.5603,-4.5603,-4.5603,-4.5622,-4.5695,-4.5754,-4.5794,-4.5796,-4.5789,-4.5805,-4.5795,-4.5833,-4.5867,-4.5866,-4.5886,-4.591,-4.5933,-4.5883,-4.5732,-4.5448,-4.4864,-4.3871,-4.2941,-4.2271,-4.1596,-4.0854,-4.0828,-4.0926,-4.0976,-4.1031,-4.1035,-4.0779,-4.0742,-4.0762,-4.0831,-4.0912,-4.0996,-4.0996,-4.0996,-4.0859,-4.041,-3.9394,-3.8867,-3.8828,-3.8867,-3.8945,-3.8906,-3.8769,-3.8652,-3.8613,-3.8769,-3.9121,-3.9492,-3.9668,-3.9668,-3.9531,-3.9121,-3.8691,-3.8613,-3.8867,-3.8691,-3.8613,-3.8535,-3.8164,-3.7598,-3.7207,-3.6855,-3.6484,-3.6269,-3.6016,-3.6016,-3.6016,-3.6016,-3.6016,-3.6016,-3.6016,-3.6016,-3.6016,-3.5879,-3.5508,-3.5117,-3.3789,-3.248,-3.1582,-3.0918,-3.0918,-3.0918,-3.0918,-3.0879,-3.0898,-3.0449,-2.9766,-2.957,-2.9609,-2.9336,-2.8926,-2.8359,-2.7793,-2.7286,-2.6789,-2.6985,-2.7235,-2.7789,-4.5586,-4.5586,-4.5586,-4.5586,-4.5586,-4.5586,-4.5586,-4.5586,-4.5586,-4.5586,-4.5603,-4.564,-4.5657,-4.5657,-4.5687,-4.5726,-4.5796,-4.5841,-4.5863,-4.5908,-4.5897,-4.5898,-4.5899,-4.5949,-4.5956,-4.5998,-4.6037,-4.6047,-4.6074,-4.6027,-4.5956,-4.5808,-4.5332,-4.4488,-4.3389,-4.2814,-4.1872,-4.1117,-4.0888,-4.0996,-4.1046,-4.1113,-4.1152,-4.1152,-4.1152,-4.1147,-4.1167,-4.117,-4.1191,-4.1191,-4.1191,-4.1191,-4.0937,-4.0527,-3.9902,-3.9863,-3.9863,-3.9902,-3.9922,-3.9961,-4.0,-3.998,-3.9922,-4.0117,-4.043,-4.0566,-4.0527,-4.0449,-4.0351,-3.9941,-4.0,-3.9883,-3.9941,-3.9863,-3.957,-3.9082,-3.8652,-3.8223,-3.7734,-3.7148,-3.6601,-3.6269,-3.6016,-3.6016,-3.6016,-3.6016,-3.6016,-3.6016,-3.6016,-3.6016,-3.5996,-3.5469,-3.4941,-3.3691,-3.2422,-3.1562,-3.0937,-3.0918,-3.0918,-3.0918,-3.0918,-3.0918,-3.082,-3.043,-3.043,-3.0391,-3.0176,-2.9707,-2.9062,-2.8463,-2.8012,-2.769,-2.7766,-2.8026,-2.8514,-4.5586,-4.5586,-4.5586,-4.5586,-4.5586,-4.5586,-4.5586,-4.5586,-4.5586,-4.5586,-4.5603,-4.5657,-4.569,-4.5722,-4.5781,-4.5844,-4.5911,-4.5941,-4.5987,-4.6029,-4.6002,-4.6007,-4.6027,-4.6047,-4.6084,-4.6122,-4.6166,-4.6203,-4.6157,-4.6135,-4.6046,-4.5938,-4.5854,-4.4962,-4.3576,-4.3203,-4.2237,-4.1364,-4.0949,-4.1039,-4.1111,-4.1172,-4.1191,-4.1191,-4.1191,-4.1191,-4.1191,-4.1191,-4.1191,-4.1191,-4.1191,-4.1191,-4.1191,-4.1191,-4.1191,-4.1191,-4.1191,-4.1191,-4.1152,-4.1094,-4.0918,-4.0898,-4.1113,-4.1172,-4.1152,-4.1055,-4.1133,-4.1191,-4.1113,-4.1035,-4.0918,-4.1113,-4.1094,-4.0976,-4.0488,-4.0039,-3.9648,-3.9199,-3.8711,-3.8008,-3.7129,-3.6719,-3.6621,-3.6016,-3.6016,-3.6016,-3.6016,-3.6016,-3.6016,-3.6016,-3.5859,-3.5273,-3.4531,-3.3398,-3.2324,-3.1484,-3.1035,-3.0918,-3.0918,-3.0918,-3.0918,-3.0918,-3.0801,-3.0723,-3.0762,-3.0684,-3.0566,-3.041,-2.9785,-2.9225,-2.8801,-2.8573,-2.8563,-2.8696,-2.9059,-4.5586,-4.5586,-4.5586,-4.5586,-4.5586,-4.5586,-4.5586,-4.5586,-4.5622,-4.5586,-4.5603,-4.5673,-4.5722,-4.5742,-4.5847,-4.5925,-4.6002,-4.6056,-4.6098,-4.6147,-4.6103,-4.6092,-4.6103,-4.6158,-4.6174,-4.6215,-4.6242,-4.6255,-4.6215,-4.6201,-4.6144,-4.6054,-4.5859,-4.5142,-4.3721,-4.3578,-4.2525,-4.1221,-4.0967,-4.1017,-4.1101,-4.1172,-4.1191,-4.1191,-4.1191,-4.1191,-4.1191,-4.1191,-4.1191,-4.1191,-4.1211,-4.1211,-4.1191,-4.1191,-4.1191,-4.1191,-4.1191,-4.1191,-4.1191,-4.1191,-4.1191,-4.1191,-4.1191,-4.1191,-4.1191,-4.1191,-4.1191,-4.1191,-4.1191,-4.1191,-4.1191,-4.1191,-4.1191,-4.1172,-4.0996,-4.0508,-4.0137,-4.0098,-3.9609,-3.9141,-3.834,-3.7812,-3.75,-3.668,-3.6016,-3.6016,-3.6016,-3.6016,-3.6016,-3.6016,-3.5684,-3.5078,-3.4629,-3.3574,-3.2832,-3.1894,-3.1601,-3.1309,-3.1133,-3.1113,-3.1133,-3.1152,-3.0918,-3.0879,-3.0918,-3.0918,-3.0781,-3.0566,-3.0293,-2.9964,-2.9519,-2.9362,-2.9285,-2.9477,-2.9638,-4.5586,-4.5586,-4.5586,-4.5586,-4.5586,-4.5586,-4.5586,-4.5622,-4.564,-4.5657,-4.5673,-4.5765,-4.5838,-4.5912,-4.5997,-4.6055,-4.6119,-4.6134,-4.6183,-4.6214,-4.6195,-4.6177,-4.6189,-4.6222,-4.6267,-4.6265,-4.6275,-4.6288,-4.6253,-4.6221,-4.615,-4.6098,-4.6047,-4.5521,-4.4208,-4.418,-4.3201,-4.2059,-4.1334,-4.1124,-4.1146,-4.1191,-4.1191,-4.1191,-4.1191,-4.1191,-4.1191,-4.1191,-4.1191,-4.1289,-4.1543,-4.1875,-4.1875,-4.1894,-4.1894,-4.1855,-4.1426,-4.123,-4.1191,-4.123,-4.1191,-4.1191,-4.1191,-4.1191,-4.1191,-4.1191,-4.1191,-4.1191,-4.1191,-4.1191,-4.1191,-4.1191,-4.1191,-4.1191,-4.1191,-4.1035,-4.0703,-4.0723,-4.0488,-4.0039,-3.959,-3.9004,-3.8398,-3.7617,-3.6816,-3.6328,-3.623,-3.6094,-3.6055,-3.6016,-3.5527,-3.4863,-3.4473,-3.3965,-3.3398,-3.2715,-3.2656,-3.2363,-3.1875,-3.1797,-3.1582,-3.1465,-3.1348,-3.1074,-3.0957,-3.0937,-3.0951,-3.0793,-3.0556,-3.0401,-3.0232,-3.0072,-2.9913,-2.9993,-3.0144,-4.5586,-4.5586,-4.5586,-4.5586,-4.5603,-4.562,-4.562,-4.5637,-4.569,-4.5722,-4.575,-4.586,-4.5991,-4.6105,-4.6123,-4.6152,-4.6222,-4.6221,-4.6216,-4.6257,-4.6273,-4.6267,-4.6257,-4.6269,-4.6303,-4.63,-4.6296,-4.6306,-4.629,-4.6241,-4.6201,-4.6133,-4.6127,-4.5596,-4.5051,-4.4663,-4.3972,-4.2749,-4.1894,-4.157,-4.1504,-4.1308,-4.123,-4.1191,-4.1191,-4.1191,-4.1191,-4.1191,-4.1191,-4.166,-4.2012,-4.2363,-4.2637,-4.2734,-4.2734,-4.2656,-4.2305,-4.207,-4.1855,-4.1641,-4.1289,-4.1191,-4.1191,-4.1191,-4.1191,-4.1191,-4.1191,-4.1191,-4.1191,-4.1191,-4.1191,-4.1191,-4.1191,-4.1191,-4.1191,-4.1191,-4.1172,-4.1055,-4.0996,-4.0723,-4.0312,-4.0039,-3.9375,-3.8613,-3.7793,-3.6914,-3.6504,-3.625,-3.6133,-3.6074,-3.5527,-3.4902,-3.4648,-3.4238,-3.3652,-3.334,-3.3398,-3.3379,-3.2871,-3.2559,-3.2402,-3.2207,-3.2051,-3.1699,-3.1328,-3.1279,-3.1476,-3.1159,-3.0836,-3.0634,-3.0502,-3.0568,-3.0545,-3.0549,-3.0509,-4.5586,-4.5586,-4.5586,-4.5586,-4.5603,-4.5687,-4.568,-4.5696,-4.5765,-4.5791,-4.5841,-4.5944,-4.6085,-4.6169,-4.6196,-4.6229,-4.6293,-4.6294,-4.629,-4.6285,-4.6289,-4.6289,-4.6289,-4.6295,-4.6303,-4.6303,-4.629,-4.6295,-4.6297,-4.6295,-4.6245,-4.6195,-4.617,-4.565,-4.5202,-4.4924,-4.4536,-4.3525,-4.2756,-4.2257,-4.2012,-4.168,-4.1269,-4.1211,-4.1191,-4.1191,-4.1191,-4.1191,-4.1523,-4.209,-4.2461,-4.2988,-4.3457,-4.3594,-4.3613,-4.3535,-4.3281,-4.3105,-4.2949,-4.2168,-4.1387,-4.125,-4.1191,-4.1191,-4.1191,-4.1191,-4.1191,-4.1191,-4.1191,-4.1191,-4.1191,-4.1191,-4.1191,-4.1191,-4.1191,-4.1191,-4.1191,-4.1191,-4.1133,-4.1191,-4.0976,-4.0605,-4.0391,-3.9648,-3.8711,-3.7832,-3.6992,-3.6719,-3.6309,-3.6133,-3.5605,-3.5117,-3.4902,-3.4453,-3.3789,-3.373,-3.4121,-3.4062,-3.3672,-3.3457,-3.332,-3.3086,-3.2656,-3.2617,-3.2311,-3.2151,-3.1882,-3.151,-3.1153,-3.0877,-3.0742,-3.0664,-3.0585,-3.0491,-3.0524,-4.5586,-4.5586,-4.5586,-4.5586,-4.5603,-4.5668,-4.5684,-4.5731,-4.5802,-4.5937,-4.6046,-4.6093,-4.6174,-4.6235,-4.6265,-4.6277,-4.6293,-4.63,-4.6289,-4.6289,-4.6289,-4.6289,-4.6289,-4.6289,-4.6305,-4.6289,-4.6289,-4.6289,-4.6287,-4.6289,-4.6289,-4.6257,-4.6215,-4.6084,-4.5709,-4.5258,-4.4826,-4.4433,-4.3652,-4.3027,-4.2363,-4.2148,-4.1699,-4.1211,-4.1191,-4.1191,-4.1191,-4.1191,-4.168,-4.2305,-4.2891,-4.3652,-4.4316,-4.4473,-4.4512,-4.4433,-4.4141,-4.3887,-4.3808,-4.3066,-4.2558,-4.1855,-4.1543,-4.1269,-4.1387,-4.125,-4.1211,-4.1191,-4.1211,-4.1191,-4.1191,-4.1191,-4.1191,-4.1191,-4.1191,-4.1191,-4.1191,-4.1191,-4.1191,-4.1191,-4.1172,-4.0996,-4.0879,-4.0703,-3.9707,-3.873,-3.791,-3.7148,-3.6738,-3.6328,-3.5879,-3.5527,-3.5332,-3.5312,-3.4726,-3.4785,-3.4922,-3.4707,-3.4473,-3.4336,-3.4141,-3.3496,-3.3164,-3.3223,-3.32,-3.2849,-3.2415,-3.1863,-3.1396,-3.0911,-3.069,-3.0582,-3.0501,-3.0466,-3.0683,-4.5586,-4.5586,-4.5586,-4.5586,-4.5603,-4.57,-4.5736,-4.5762,-4.5879,-4.6035,-4.6205,-4.6209,-4.6248,-4.6279,-4.6303,-4.6297,-4.6289,-4.6289,-4.6289,-4.6289,-4.6289,-4.6289,-4.6289,-4.6289,-4.6289,-4.6289,-4.6289,-4.6289,-4.6289,-4.6289,-4.6289,-4.6284,-4.6275,-4.623,-4.6114,-4.5742,-4.5391,-4.5195,-4.4531,-4.3887,-4.3262,-4.2598,-4.2246,-4.1562,-4.1387,-4.1191,-4.1328,-4.1504,-4.209,-4.2851,-4.3633,-4.4492,-4.5039,-4.5371,-4.5391,-4.5176,-4.4883,-4.4473,-4.4394,-4.3867,-4.3476,-4.2812,-4.2402,-4.2109,-4.1914,-4.1738,-4.168,-4.1601,-4.1426,-4.1191,-4.1191,-4.1191,-4.1191,-4.1191,-4.1191,-4.1191,-4.1191,-4.1191,-4.1191,-4.1191,-4.1172,-4.1152,-4.1113,-4.0957,-4.0351,-3.9531,-3.9023,-3.8066,-3.7129,-3.6738,-3.6367,-3.6055,-3.584,-3.5898,-3.5937,-3.5664,-3.543,-3.5449,-3.5254,-3.5176,-3.4863,-3.4256,-3.4082,-3.4432,-3.4237,-3.3574,-3.2985,-3.245,-3.1654,-3.0807,-3.0649,-3.053,-3.0635,-3.0675,-3.1095,-4.5586,-4.5586,-4.5586,-4.5586,-4.562,-4.5742,-4.5803,-4.5831,-4.6014,-4.6115,-4.6229,-4.6255,-4.6277,-4.63,-4.6287,-4.6301,-4.6289,-4.6289,-4.6289,-4.6289,-4.6289,-4.6289,-4.6289,-4.6289,-4.6289,-4.6289,-4.6289,-4.6289,-4.6289,-4.6289,-4.6289,-4.6295,-4.6287,-4.6293,-4.6289,-4.6289,-4.625,-4.6133,-4.5332,-4.4961,-4.4375,-4.3359,-4.2812,-4.2324,-4.1738,-4.1465,-4.1797,-4.1953,-4.2598,-4.3613,-4.4316,-4.5137,-4.5918,-4.6055,-4.6094,-4.6055,-4.6074,-4.6055,-4.6055,-4.4629,-4.3984,-4.3672,-4.3301,-4.3203,-4.3262,-4.2871,-4.2207,-4.2031,-4.1621,-4.1269,-4.1191,-4.1191,-4.1191,-4.1191,-4.1191,-4.1191,-4.1191,-4.1191,-4.1191,-4.1191,-4.1191,-4.1191,-4.1191,-4.1074,-4.0703,-4.0234,-3.9961,-3.9141,-3.7949,-3.7129,-3.6758,-3.6465,-3.623,-3.6016,-3.6016,-3.6016,-3.5937,-3.5996,-3.5918,-3.5703,-3.5669,-3.5391,-3.5398,-3.5622,-3.5139,-3.4392,-3.3701,-3.3074,-3.2232,-3.1419,-3.0704,-3.0528,-3.0678,-3.0991,-3.1506,-4.5586,-4.5586,-4.5586,-4.5624,-4.5678,-4.5761,-4.5828,-4.5901,-4.6083,-4.6196,-4.6255,-4.6296,-4.6295,-4.6303,-4.6289,-4.6289,-4.6289,-4.6289,-4.6289,-4.6289,-4.6289,-4.6289,-4.6289,-4.6289,-4.6289,-4.6289,-4.6289,-4.6289,-4.6289,-4.6289,-4.6289,-4.6306,-4.6289,-4.6287,-4.6289,-4.6289,-4.6289,-4.6269,-4.5937,-4.5605,-4.5019,-4.4375,-4.3769,-4.3262,-4.2461,-4.2246,-4.2617,-4.2715,-4.3223,-4.4277,-4.4961,-4.5469,-4.6133,-4.6289,-4.6289,-4.6289,-4.6289,-4.6289,-4.625,-4.5586,-4.5176,-4.4668,-4.416,-4.3926,-4.3652,-4.2891,-4.2519,-4.2226,-4.168,-4.1328,-4.1191,-4.1191,-4.1191,-4.1191,-4.1191,-4.1191,-4.1191,-4.1191,-4.1191,-4.1191,-4.1191,-4.1191,-4.1191,-4.1191,-4.0898,-4.0644,-4.0371,-4.0019,-3.9043,-3.7832,-3.7109,-3.6816,-3.6543,-3.6191,-3.6016,-3.6016,-3.6016,-3.5996,-3.5996,-3.5937,-3.5978,-3.6005,-3.5919,-3.5742,-3.5513,-3.5182,-3.4284,-3.3445,-3.2863,-3.2146,-3.1422,-3.1083,-3.1338,-3.1691,-3.2102,-4.5586,-4.5586,-4.5624,-4.568,-4.5697,-4.5761,-4.5871,-4.5996,-4.617,-4.6264,-4.6293,-4.6297,-4.6303,-4.6289,-4.6289,-4.6289,-4.6289,-4.6289,-4.6289,-4.6289,-4.6289,-4.6289,-4.6289,-4.6289,-4.6289,-4.6289,-4.6289,-4.6289,-4.6289,-4.6289,-4.6289,-4.6289,-4.6289,-4.6289,-4.6289,-4.6289,-4.6289,-4.6289,-4.6133,-4.5996,-4.5527,-4.5078,-4.4668,-4.4062,-4.3457,-4.3066,-4.3437,-4.3652,-4.3769,-4.4766,-4.5332,-4.5664,-4.6152,-4.6289,-4.6289,-4.6289,-4.6289,-4.6289,-4.6269,-4.625,-4.5801,-4.5488,-4.4863,-4.4648,-4.4336,-4.3633,-4.3125,-4.2637,-4.1797,-4.1406,-4.123,-4.123,-4.1211,-4.1211,-4.1211,-4.1211,-4.1191,-4.1191,-4.1191,-4.1191,-4.1191,-4.1191,-4.1191,-4.1191,-4.1113,-4.0918,-4.0742,-4.0371,-4.0,-3.8887,-3.7754,-3.7324,-3.6934,-3.6523,-3.6211,-3.6016,-3.6016,-3.6016,-3.6067,-3.6137,-3.5977,-3.5963,-3.5919,-3.588,-3.5651,-3.5253,-3.4519,-3.3819,-3.3364,-3.2813,-3.2139,-3.1961,-3.2102,-3.2449,-3.2891,-4.5586,-4.5622,-4.568,-4.5719,-4.5734,-4.5805,-4.5972,-4.6208,-4.627,-4.6297,-4.6289,-4.6289,-4.6289,-4.6289,-4.6289,-4.6289,-4.6289,-4.6289,-4.6289,-4.6289,-4.6289,-4.6289,-4.6289,-4.6289,-4.6289,-4.6289,-4.6289,-4.6289,-4.6289,-4.6289,-4.6289,-4.6289,-4.6289,-4.6289,-4.6289,-4.6289,-4.6289,-4.6289,-4.6269,-4.6191,-4.5937,-4.5527,-4.5254,-4.4785,-4.4297,-4.4004,-4.4219,-4.4453,-4.4785,-4.5332,-4.5801,-4.6113,-4.6289,-4.6289,-4.6289,-4.6289,-4.6289,-4.6289,-4.6289,-4.6289,-4.6289,-4.6055,-4.6074,-4.6191,-4.5625,-4.4433,-4.3613,-4.293,-4.2168,-4.166,-4.1308,-4.1289,-4.125,-4.125,-4.125,-4.123,-4.1211,-4.1191,-4.1191,-4.1191,-4.1191,-4.1191,-4.1191,-4.1191,-4.1191,-4.1113,-4.0937,-4.0742,-4.0371,-3.9941,-3.8848,-3.7949,-3.75,-3.6894,-3.6582,-3.6406,-3.6367,-3.6484,-3.6367,-3.6375,-3.6172,-3.6,-3.5858,-3.5801,-3.5732,-3.5368,-3.4832,-3.4411,-3.4039,-3.3487,-3.3192,-3.2961,-3.3122,-3.341,-3.3814,-4.5659,-4.5693,-4.5755,-4.5806,-4.5849,-4.6025,-4.6149,-4.6215,-4.6279,-4.6297,-4.6289,-4.6289,-4.6289,-4.6289,-4.6289,-4.6289,-4.6289,-4.6289,-4.6289,-4.6289,-4.6289,-4.6289,-4.6289,-4.6289,-4.6289,-4.6289,-4.6289,-4.6289,-4.6289,-4.6289,-4.6289,-4.6289,-4.6289,-4.6289,-4.6289,-4.6289,-4.6289,-4.6289,-4.6289,-4.6289,-4.6289,-4.5976,-4.582,-4.5586,-4.5058,-4.4902,-4.5293,-4.5078,-4.5351,-4.5918,-4.6113,-4.6289,-4.6289,-4.6289,-4.6289,-4.6289,-4.6289,-4.6289,-4.6289,-4.6289,-4.6289,-4.6289,-4.6289,-4.6289,-4.582,-4.4961,-4.3887,-4.334,-4.2558,-4.1992,-4.1855,-4.1855,-4.1777,-4.1719,-4.1641,-4.1445,-4.1387,-4.1269,-4.125,-4.1191,-4.1191,-4.1191,-4.1191,-4.1191,-4.1191,-4.1191,-4.1133,-4.0957,-4.0762,-4.0351,-3.9785,-3.8848,-3.8184,-3.7637,-3.7266,-3.7051,-3.6992,-3.6953,-3.6914,-3.6859,-3.6782,-3.6528,-3.6015,-3.5721,-3.5649,-3.5535,-3.5297,-3.4937,-3.4641,-3.4911,-3.4699,-3.4353,-3.4141,-3.4314,-3.4526,-4.5722,-4.5746,-4.5803,-4.5911,-4.6025,-4.613,-4.6209,-4.6235,-4.6303,-4.6297,-4.6289,-4.6289,-4.6289,-4.6289,-4.6289,-4.6289,-4.6289,-4.6289,-4.6289,-4.6289,-4.6289,-4.6289,-4.6289,-4.6289,-4.6289,-4.6289,-4.6289,-4.6289,-4.6289,-4.6289,-4.6289,-4.6289,-4.6289,-4.6289,-4.6289,-4.6289,-4.6289,-4.6289,-4.6289,-4.6289,-4.6289,-4.6289,-4.6289,-4.6191,-4.5664,-4.5898,-4.6152,-4.5625,-4.5879,-4.623,-4.6289,-4.6289,-4.6289,-4.6289,-4.6289,-4.6289,-4.6289,-4.6289,-4.6289,-4.6289,-4.6289,-4.6289,-4.6289,-4.6289,-4.5898,-4.5156,-4.4609,-4.4082,-4.3105,-4.2363,-4.248,-4.2539,-4.2441,-4.2344,-4.2051,-4.1738,-4.1562,-4.1387,-4.1289,-4.1211,-4.1191,-4.1191,-4.1191,-4.1172,-4.1152,-4.1152,-4.1152,-4.1094,-4.0976,-4.0801,-4.0293,-3.957,-3.8965,-3.8437,-3.8083,-3.7811,-3.7812,-3.7793,-3.7773,-3.7667,-3.7506,-3.6961,-3.6332,-3.5883,-3.5546,-3.5457,-3.5393,-3.5424,-3.5315,-3.5507,-3.5507,-3.5103,-3.4795,-3.4872,-3.5103,-4.5733,-4.5829,-4.5907,-4.6026,-4.6183,-4.6201,-4.6236,-4.6294,-4.6303,-4.6297,-4.6289,-4.6289,-4.6289,-4.6289,-4.6289,-4.6289,-4.6289,-4.6289,-4.6289,-4.6289,-4.6289,-4.6289,-4.6289,-4.6289,-4.6289,-4.6289,-4.6289,-4.6289,-4.6289,-4.6289,-4.6289,-4.6289,-4.6289,-4.6289,-4.6289,-4.6289,-4.6289,-4.6289,-4.6289,-4.6289,-4.6289,-4.6289,-4.6289,-4.6289,-4.623,-4.6289,-4.6289,-4.6269,-4.6289,-4.6289,-4.6289,-4.6289,-4.6289,-4.6289,-4.6289,-4.6289,-4.6289,-4.6289,-4.6289,-4.6289,-4.6289,-4.6289,-4.6289,-4.6289,-4.5937,-4.5332,-4.4824,-4.4531,-4.3652,-4.3418,-4.3476,-4.3301,-4.3144,-4.3086,-4.2891,-4.2637,-4.2441,-4.2109,-4.168,-4.1523,-4.1289,-4.1269,-4.1172,-4.1142,-4.1127,-4.1111,-4.1101,-4.1108,-4.1094,-4.1035,-4.0723,-4.0176,-3.9609,-3.9127,-3.8912,-3.87,-3.8682,-3.8672,-3.8639,-3.858,-3.8461,-3.7633,-3.661,-3.6049,-3.5522,-3.5495,-3.5468,-3.5507,-3.5507,-3.5507,-3.5507,-3.5507,-3.543,-3.5353,-3.5372,-4.5815,-4.5886,-4.6053,-4.6166,-4.6206,-4.6257,-4.6277,-4.6308,-4.6296,-4.6278,-4.6289,-4.6289,-4.6289,-4.6289,-4.6289,-4.6289,-4.6289,-4.6289,-4.6289,-4.6289,-4.6289,-4.6289,-4.6289,-4.6289,-4.6289,-4.6289,-4.6289,-4.6289,-4.6289,-4.6289,-4.6289,-4.6289,-4.6289,-4.6289,-4.6289,-4.6289,-4.6289,-4.6289,-4.6289,-4.6289,-4.6289,-4.6289,-4.6289,-4.6289,-4.6289,-4.6289,-4.6289,-4.6289,-4.6289,-4.6289,-4.6289,-4.6289,-4.6289,-4.6289,-4.6289,-4.6289,-4.6289,-4.6289,-4.6289,-4.6289,-4.6289,-4.6289,-4.6289,-4.6289,-4.6016,-4.5391,-4.4961,-4.4746,-4.459,-4.4512,-4.4394,-4.4121,-4.3867,-4.3828,-4.375,-4.3555,-4.3359,-4.2812,-4.2207,-4.1875,-4.1562,-4.1406,-4.1308,-4.1182,-4.112,-4.1105,-4.1104,-4.1116,-4.1105,-4.1074,-4.1094,-4.0625,-4.0137,-3.9727,-3.9605,-3.9563,-3.9543,-3.9517,-3.9477,-3.9442,-3.9349,-3.8152,-3.6922,-3.6054,-3.5488,-3.5507,-3.5507,-3.5507,-3.5507,-3.5507,-3.5507,-3.5507,-3.5507,-3.543,-3.5449,-4.591,-4.6003,-4.6162,-4.6259,-4.6256,-4.63,-4.6295,-4.6245,-4.5905,-4.5933,-4.6269,-4.6289,-4.6289,-4.6289,-4.6289,-4.6289,-4.6289,-4.6289,-4.6289,-4.6289,-4.6289,-4.6289,-4.6289,-4.6289,-4.6289,-4.6289,-4.6289,-4.6289,-4.6289,-4.6289,-4.6289,-4.6289,-4.6289,-4.6289,-4.6289,-4.6289,-4.6289,-4.6289,-4.6289,-4.6289,-4.6289,-4.6289,-4.6289,-4.6289,-4.6289,-4.6289,-4.6289,-4.6289,-4.6289,-4.6289,-4.6289,-4.6289,-4.6289,-4.6289,-4.6289,-4.6289,-4.6289,-4.6289,-4.6289,-4.6289,-4.6289,-4.6289,-4.6289,-4.6289,-4.6289,-4.5762,-4.5742,-4.5547,-4.5508,-4.543,-4.5449,-4.5254,-4.4844,-4.4668,-4.4433,-4.4199,-4.4023,-4.3711,-4.3242,-4.2891,-4.2598,-4.2363,-4.2201,-4.187,-4.1691,-4.1109,-4.1115,-4.123,-4.1222,-4.1272,-4.1244,-4.1066,-4.0581,-4.045,-4.0422,-4.0418,-4.0394,-4.0365,-4.0232,-3.9898,-3.9491,-3.8326,-3.7231,-3.6394,-3.5757,-3.5507,-3.5507,-3.5507,-3.5507,-3.5507,-3.5507,-3.5507,-3.5507,-3.5507,-3.5507,-4.5997,-4.6134,-4.6266,-4.6292,-4.6289,-4.6289,-4.6208,-4.6002,-4.5371,-4.5332,-4.582,-4.5976,-4.6152,-4.6289,-4.6289,-4.6289,-4.6289,-4.6289,-4.6289,-4.6289,-4.6289,-4.6289,-4.6289,-4.6289,-4.6289,-4.6289,-4.6289,-4.6289,-4.6289,-4.6289,-4.6289,-4.6289,-4.6289,-4.6289,-4.6289,-4.6289,-4.6289,-4.6289,-4.6289,-4.6289,-4.6289,-4.6289,-4.6289,-4.6289,-4.6289,-4.6289,-4.6289,-4.6289,-4.6289,-4.6289,-4.6289,-4.6289,-4.6289,-4.6289,-4.6289,-4.6289,-4.6289,-4.6289,-4.6289,-4.6289,-4.6289,-4.6289,-4.6289,-4.6289,-4.6289,-4.6289,-4.625,-4.623,-4.6191,-4.6172,-4.6191,-4.6113,-4.5664,-4.5391,-4.5117,-4.4922,-4.4785,-4.457,-4.4199,-4.3837,-4.356,-4.3287,-4.2939,-4.2607,-4.2195,-4.1572,-4.1338,-4.1382,-4.1457,-4.1577,-4.1631,-4.1425,-4.1042,-4.1011,-4.1017,-4.0914,-4.0811,-4.0773,-4.0551,-4.0179,-3.9677,-3.8769,-3.7808,-3.6785,-3.6238,-3.5911,-3.5584,-3.5507,-3.5507,-3.5526,-3.5507,-3.5507,-3.5507,-3.5507,-3.5507,-4.6088,-4.6255,-4.6303,-4.6295,-4.6289,-4.6289,-4.5918,-4.5273,-4.5078,-4.4746,-4.4551,-4.5058,-4.5566,-4.6289,-4.6289,-4.6289,-4.6289,-4.6289,-4.6289,-4.6289,-4.6289,-4.6289,-4.6289,-4.6289,-4.6289,-4.6289,-4.6289,-4.6289,-4.6289,-4.6289,-4.6289,-4.6289,-4.6289,-4.6289,-4.6289,-4.6289,-4.6289,-4.6289,-4.6289,-4.6289,-4.6289,-4.6289,-4.6289,-4.6289,-4.6289,-4.6289,-4.6289,-4.6289,-4.6289,-4.6289,-4.6289,-4.6289,-4.6289,-4.6289,-4.6289,-4.6289,-4.6289,-4.6289,-4.6289,-4.6289,-4.6289,-4.6289,-4.6289,-4.6289,-4.6289,-4.6289,-4.6269,-4.6269,-4.625,-4.625,-4.6269,-4.6269,-4.5996,-4.5996,-4.582,-4.582,-4.5742,-4.5312,-4.4844,-4.4519,-4.4211,-4.3902,-4.3532,-4.3308,-4.3197,-4.2751,-4.2635,-4.2641,-4.251,-4.2318,-4.2061,-4.1734,-4.1459,-4.1155,-4.0986,-4.0967,-4.0901,-4.0918,-4.0818,-4.04,-3.9946,-3.943,-3.8513,-3.756,-3.6815,-3.6353,-3.6045,-3.5757,-3.5545,-3.5565,-3.5526,-3.5507,-3.5507,-3.5545,-3.5584]}]]